[[{"header":{"parameterUnit":"m.s-1","parameterCategory":1,"la1":31.0,"la2":29.5877,"lo1":-88.7671,"lo2":-86.6584,"dy":0.0162,"dx":0.0185,"nx":115,"ny":88,"refTime":"2023-06-15T18:00:00:Z","depth":0,"parameterNumber":2,"parameterNumberName":"U-component_of_WINDS"},"data":[0.0,0.0,0.0,0.0,0.0,0.0,0.0,0.0,0.0,0.0,0.0,0.0,0.0,0.0,0.0,0.0,0.0,0.0,0.0,0.0,0.0,0.0,0.0,0.0,0.0,0.0,0.0,0.0,0.0,0.0,0.0,0.0,0.0,0.0,0.0,0.0,0.0,0.0,0.0,0.0,0.0,0.0,0.0,0.0,0.0,0.0,0.0,0.0,0.0,0.0,0.0,0.0,0.0,0.0,0.0,0.0,0.0,0.0,0.0,0.0,0.0,0.0,0.0,0.0,0.0,0.0,0.0,0.0,0.0,0.0,0.0,0.0,0.0,0.0,0.0,0.0,0.0,0.0,0.0,0.0,0.0,0.0,0.0,0.0,0.0,0.0,0.0,0.0,0.0,0.0,0.0,0.0,0.0,0.0,0.0,0.0,0.0,0.0,0.0,0.0,0.0,0.0,0.0,0.0,0.0,0.0,0.0,0.0,0.0,0.0,0.0,0.0,0.0,0.0,0.0,0.0,0.0,0.0,0.0,0.0,0.0,0.0,0.0,0.0,0.0,0.0,0.0,0.0,0.0,0.0,0.0,0.0,0.0,0.0,0.0,0.0,0.0,0.0,0.0,0.0,0.0,0.0,0.0,0.0,0.0,0.0,0.0,0.0,0.0,0.0,0.0,0.0,0.0,0.0,0.0,0.0,0.0,0.0,0.0,0.0,0.0,0.0,0.0,0.0,0.0,0.0,0.0,0.0,0.0,0.0,0.0,0.0,0.0,0.0,0.0,0.0,0.0,0.0,0.0,0.0,0.0,0.0,0.0,0.0,0.0,0.0,0.0,0.0,0.0,0.0,0.0,0.0,0.0,0.0,0.0,0.0,0.0,0.0,0.0,0.0,0.0,0.0,0.0,0.0,0.0,0.0,0.0,0.0,0.0,0.0,0.0,0.0,0.0,0.0,0.0,0.0,0.0,0.0,0.0,0.0,0.0,0.0,0.0,0.0,0.0,0.0,0.0,0.0,0.0,0.0,0.0,0.0,0.0,0.0,0.0,0.0,0.0,0.0,0.0,0.0,0.0,0.0,0.0,0.0,0.0,0.0,0.0,0.0,0.0,0.0,0.0,0.0,0.0,0.0,0.0,0.0,0.0,0.0,0.0,0.0,0.0,0.0,0.0,0.0,0.0,0.0,0.0,0.0,0.0,0.0,0.0,0.0,0.0,0.0,0.0,0.0,0.0,0.0,0.0,0.0,0.0,0.0,0.0,0.0,0.0,0.0,0.0,0.0,0.0,0.0,0.0,0.0,0.0,0.0,0.0,0.0,0.0,0.0,0.0,0.0,0.0,0.0,0.0,0.0,0.0,0.0,0.0,0.0,0.0,0.0,0.0,0.0,0.0,0.0,0.0,0.0,0.0,0.0,0.0,0.0,0.0,0.0,0.0,0.0,0.0,0.0,0.0,0.0,0.0,0.0,0.0,0.0,0.0,0.0,0.0,0.0,0.0,0.0,0.0,0.0,0.0,0.0,0.0,0.0,0.0,0.0,0.0,0.0,0.0,0.0,0.0,0.0,0.0,0.0,0.0,0.0,0.0,0.0,0.0,0.0,0.0,0.0,0.0,0.0,0.0,0.0,0.0,0.0,0.0,0.0,0.0,0.0,0.0,0.0,0.0,0.0,0.0,0.0,0.0,0.0,0.0,0.0,0.0,0.0,0.0,0.0,0.0,0.0,0.0,0.0,0.0,0.0,0.0,0.0,0.0,0.0,0.0,0.0,0.0,0.0,0.0,0.0,0.0,0.0,0.0,0.0,0.0,0.0,0.0,0.0,0.0,0.0,0.0,0.0,0.0,0.0,0.0,0.0,0.0,0.0,0.0,0.0,0.0,0.0,0.0,0.0,0.0,0.0,0.0,0.0,0.0,0.0,0.0,0.0,0.0,0.0,0.0,0.0,0.0,0.0,0.0,0.0,0.0,0.0,0.0,0.0,0.0,0.0,0.0,0.0,0.0,0.0,0.0,0.0,0.0,0.0,0.0,0.0,0.0,0.0,0.0,0.0,0.0,0.0,0.0,0.0,0.0,0.0,0.0,0.0,0.0,0.0,0.0,0.0,0.0,0.0,0.0,0.0,0.0,0.0,0.0,0.0,0.0,0.0,0.0,0.0,0.0,0.0,0.0,0.0,0.0,0.0,0.0,0.0,0.0,0.0,0.0,0.0,0.0,0.0,0.0,0.0,0.0,0.0,0.0,0.0,0.0,0.0,0.0,0.0,0.0,0.0,0.0,0.0,0.0,0.0,0.0,0.0,0.0,0.0,0.0,0.0,0.0,0.0,0.0,0.0,0.0,0.0,0.0,0.0,0.0,0.0,0.0,0.0,0.0,0.0,0.0,0.0,0.0,0.0,0.0,0.0,0.0,0.0,0.0,0.0,0.0,0.0,0.0,0.0,0.0,0.0,0.0,0.0,0.0,0.0,0.0,0.0,0.0,0.0,0.0,0.0,0.0,0.0,0.0,0.0,0.0,0.0,0.0,0.0,0.0,0.0,0.0,0.0,0.0,0.0,0.0,0.0,0.0,0.0,0.0,0.0,0.0,0.0,0.0,0.0,0.0,0.0,0.0,0.0,0.0,0.0,0.0,0.0,0.0,0.0,0.0,0.0,0.0,0.0,0.0,0.0,0.0,0.0,0.0,0.0,0.0,0.0,0.0,0.0,0.0,0.0,0.0,0.0,0.0,0.0,0.0,0.0,0.0,0.0,0.0,0.0,0.0,0.0,0.0,0.0,0.0,0.0,0.0,0.0,0.0,0.0,0.0,0.0,0.0,0.0,0.0,0.0,0.0,0.0,0.0,0.0,0.0,0.0,0.0,0.0,0.0,0.0,0.0,0.0,0.0,0.0,0.0,0.0,0.0,0.0,0.0,0.0,0.0,0.0,0.0,0.0,0.0,0.0,0.0,0.0,0.0,0.0,0.0,0.0,0.0,0.0,0.0,0.0,0.0,0.0,0.0,0.0,0.0,0.0,0.0,0.0,0.0,0.0,0.0,0.0,0.0,0.0,0.0,0.0,0.0,0.0,0.0,0.0,0.0,0.0,0.0,0.0,0.0,0.0,0.0,0.0,0.0,0.0,0.0,0.0,0.0,0.0,0.0,0.0,0.0,0.0,0.0,0.0,0.0,0.0,0.0,0.0,0.0,0.0,0.0,0.0,0.0,0.0,0.0,0.0,0.0,0.0,0.0,0.0,0.0,0.0,0.0,0.0,0.0,0.0,0.0,0.0,0.0,0.0,0.0,0.0,0.0,0.0,0.0,0.0,0.0,0.0,0.0,0.0,0.0,0.0,0.0,0.0,0.0,0.0,0.0,0.0,0.0,0.0,0.0,0.0,0.0,0.0,0.0,0.0,0.0,0.0,0.0,0.0,0.0,0.0,0.0,0.0,0.0,0.0,0.0,0.0,0.0,0.0,0.0,0.0,0.0,0.0,0.0,0.0,0.0,0.0,0.0,0.0,0.0,0.0,0.0,0.0,0.0,0.0,0.0,0.0,0.0,0.0,0.0,0.0,0.0,0.0,0.0,0.0,0.0,0.0,0.0,0.0,0.0,0.0,0.0,0.0,0.0,0.0,0.0,0.0,0.0,0.0,0.0,0.0,0.0,0.0,0.0,0.0,0.0,0.0,0.0,0.0,0.0,0.0,0.0,0.0,0.0,0.0,0.0,0.0,0.0,0.0,0.0,0.0,0.0,0.0,0.0,0.0,0.0,0.0,0.0,0.0,0.0,0.0,0.0,0.0,0.0,0.0,0.0,0.0,0.0,0.0,0.0,0.0,0.0,0.0,0.0,0.0,0.0,0.0,0.0,0.0,0.0,0.0,0.0,0.0,0.0,0.0,0.0,0.0,0.0,0.0,0.0,0.0,0.0,0.0,0.0,0.0,0.0,0.0,0.0,0.0,0.0,0.0,0.0,0.0,0.0,0.0,0.0,0.0,0.0,0.0,0.0,0.0,0.0,0.0,0.0,0.0,0.0,0.0,0.0,0.0,0.0,0.0,0.0,0.0,0.0,0.0,0.0,0.0,0.0,0.0,0.0,0.0,0.0,0.0,0.0,0.0,0.0,0.0,0.0,0.0,0.0,0.0,0.0,0.0,0.0,0.0,0.0,0.0,0.0,0.0,0.0,0.0,0.0,0.0,0.0,0.0,0.0,0.0,0.0,0.0,0.0,0.0,0.0,0.0,0.0,0.0,0.0,0.0,0.0,0.0,0.0,0.0,0.0,0.0,0.0,0.0,-2.9578,0.0,0.0,0.0,0.0,0.0,0.0,0.0,0.0,0.0,0.0,0.0,0.0,0.0,0.0,0.0,0.0,0.0,0.0,0.0,0.0,0.0,0.0,0.0,0.0,0.0,0.0,0.0,0.0,0.0,0.0,0.0,0.0,0.0,0.0,0.0,0.0,0.0,0.0,0.0,0.0,0.0,0.0,0.0,0.0,0.0,0.0,0.0,0.0,0.0,0.0,0.0,0.0,0.0,0.0,0.0,0.0,0.0,0.0,0.0,0.0,0.0,0.0,0.0,0.0,0.0,0.0,0.0,0.0,0.0,0.0,0.0,0.0,0.0,0.0,0.0,0.0,0.0,0.0,0.0,0.0,0.0,0.0,0.0,0.0,0.0,0.0,0.0,0.0,0.0,0.0,0.0,0.0,0.0,0.0,0.0,0.0,0.0,0.0,0.0,0.0,0.0,0.0,0.0,0.0,0.0,0.0,0.0,0.0,0.0,0.0,-2.8311,-2.9693,-3.0075,-3.0568,-3.097,0.0,0.0,0.0,0.0,0.0,0.0,0.0,0.0,0.0,0.0,0.0,0.0,0.0,0.0,0.0,0.0,0.0,0.0,0.0,0.0,0.0,0.0,0.0,0.0,0.0,0.0,0.0,0.0,0.0,0.0,0.0,0.0,0.0,0.0,0.0,0.0,0.0,0.0,0.0,0.0,0.0,0.0,0.0,0.0,0.0,0.0,0.0,0.0,0.0,0.0,0.0,0.0,0.0,0.0,0.0,0.0,0.0,0.0,0.0,0.0,0.0,0.0,0.0,0.0,0.0,0.0,0.0,0.0,0.0,0.0,0.0,0.0,0.0,0.0,0.0,0.0,0.0,0.0,0.0,0.0,0.0,0.0,0.0,0.0,0.0,0.0,0.0,0.0,0.0,0.0,0.0,0.0,0.0,0.0,0.0,0.0,0.0,0.0,0.0,0.0,0.0,0.0,0.0,0.0,0.0,0.0,0.0,0.0,0.0,0.0,0.0,0.0,-3.1596,-3.177,-3.2277,0.0,0.0,0.0,0.0,0.0,0.0,0.0,0.0,0.0,0.0,0.0,0.0,0.0,0.0,0.0,0.0,0.0,0.0,0.0,0.0,0.0,0.0,0.0,0.0,0.0,0.0,0.0,0.0,0.0,0.0,0.0,0.0,0.0,0.0,0.0,0.0,0.0,0.0,0.0,0.0,0.0,0.0,0.0,0.0,0.0,0.0,0.0,0.0,0.0,0.0,0.0,0.0,0.0,0.0,0.0,0.0,0.0,0.0,0.0,0.0,0.0,0.0,0.0,0.0,0.0,0.0,0.0,0.0,0.0,0.0,0.0,0.0,0.0,0.0,0.0,0.0,0.0,0.0,0.0,0.0,0.0,0.0,0.0,0.0,0.0,0.0,0.0,0.0,0.0,0.0,0.0,0.0,0.0,0.0,0.0,0.0,0.0,0.0,0.0,0.0,0.0,0.0,0.0,0.0,0.0,0.0,0.0,0.0,0.0,0.0,-3.1662,-3.3798,-3.3898,0.0,-3.2975,0.0,0.0,0.0,0.0,0.0,0.0,0.0,0.0,0.0,0.0,0.0,0.0,0.0,0.0,0.0,0.0,0.0,0.0,0.0,0.0,0.0,0.0,0.0,0.0,0.0,0.0,0.0,0.0,0.0,0.0,0.0,0.0,0.0,0.0,0.0,0.0,0.0,0.0,0.0,0.0,0.0,0.0,0.0,0.0,0.0,0.0,0.0,0.0,0.0,0.0,0.0,0.0,0.0,0.0,0.0,0.0,0.0,0.0,0.0,0.0,0.0,0.0,0.0,0.0,0.0,0.0,0.0,0.0,0.0,0.0,0.0,0.0,0.0,0.0,0.0,0.0,0.0,0.0,0.0,0.0,0.0,0.0,0.0,0.0,0.0,0.0,0.0,0.0,0.0,0.0,0.0,0.0,0.0,0.0,0.0,0.0,0.0,0.0,0.0,0.0,0.0,0.0,0.0,0.0,0.0,0.0,0.0,0.0,0.0,0.0,-3.3662,-3.5473,-3.5473,-3.4871,0.0,0.0,0.0,0.0,0.0,0.0,0.0,0.0,0.0,0.0,0.0,0.0,0.0,0.0,0.0,0.0,0.0,0.0,0.0,0.0,0.0,0.0,0.0,0.0,0.0,0.0,0.0,0.0,0.0,0.0,0.0,0.0,0.0,0.0,0.0,0.0,0.0,0.0,0.0,0.0,0.0,0.0,0.0,0.0,0.0,0.0,0.0,0.0,0.0,0.0,0.0,0.0,0.0,0.0,0.0,0.0,0.0,0.0,0.0,0.0,0.0,0.0,0.0,0.0,0.0,0.0,0.0,0.0,0.0,0.0,0.0,0.0,0.0,0.0,0.0,0.0,0.0,0.0,0.0,0.0,0.0,0.0,0.0,0.0,0.0,0.0,0.0,0.0,0.0,0.0,0.0,0.0,0.0,0.0,0.0,0.0,0.0,0.0,0.0,0.0,0.0,0.0,0.0,0.0,0.0,0.0,0.0,0.0,0.0,0.0,-3.3954,-3.5702,-3.7266,-3.6862,-3.5914,-3.4683,0.0,0.0,0.0,0.0,0.0,0.0,0.0,0.0,0.0,0.0,0.0,0.0,0.0,0.0,0.0,0.0,0.0,0.0,0.0,0.0,0.0,0.0,0.0,0.0,0.0,0.0,0.0,0.0,0.0,0.0,0.0,0.0,0.0,0.0,0.0,0.0,0.0,0.0,0.0,0.0,0.0,0.0,0.0,0.0,0.0,0.0,0.0,0.0,0.0,0.0,0.0,0.0,0.0,0.0,0.0,0.0,0.0,0.0,0.0,0.0,0.0,0.0,0.0,0.0,0.0,0.0,0.0,0.0,0.0,0.0,0.0,0.0,0.0,0.0,0.0,0.0,0.0,0.0,0.0,0.0,0.0,0.0,0.0,0.0,0.0,0.0,0.0,0.0,0.0,0.0,0.0,0.0,0.0,0.0,0.0,0.0,0.0,0.0,0.0,0.0,0.0,0.0,0.0,0.0,0.0,0.0,0.0,0.0,-3.5824,-3.6328,-3.7523,-3.9604,-3.7899,-3.6739,0.0,0.0,0.0,0.0,0.0,0.0,0.0,0.0,0.0,0.0,0.0,0.0,0.0,0.0,0.0,0.0,0.0,0.0,0.0,0.0,0.0,0.0,0.0,0.0,0.0,0.0,0.0,0.0,0.0,0.0,0.0,0.0,0.0,0.0,0.0,0.0,0.0,0.0,0.0,0.0,0.0,0.0,0.0,0.0,0.0,0.0,0.0,0.0,0.0,0.0,0.0,0.0,0.0,0.0,0.0,0.0,0.0,0.0,0.0,0.0,0.0,0.0,0.0,0.0,0.0,0.0,0.0,0.0,0.0,0.0,0.0,0.0,0.0,0.0,0.0,0.0,0.0,0.0,0.0,0.0,0.0,0.0,0.0,0.0,0.0,0.0,0.0,0.0,0.0,0.0,0.0,0.0,0.0,0.0,0.0,0.0,0.0,0.0,0.0,0.0,0.0,0.0,0.0,0.0,0.0,0.0,0.0,0.0,0.0,-3.501,-3.7421,-3.9388,-4.0804,-3.9511,-3.8082,0.0,0.0,0.0,0.0,0.0,0.0,0.0,0.0,0.0,0.0,0.0,0.0,0.0,0.0,0.0,0.0,0.0,0.0,0.0,0.0,0.0,0.0,0.0,0.0,0.0,0.0,0.0,0.0,0.0,0.0,0.0,0.0,0.0,0.0,0.0,0.0,0.0,0.0,0.0,0.0,0.0,0.0,0.0,0.0,0.0,0.0,0.0,0.0,0.0,0.0,0.0,0.0,0.0,0.0,0.0,0.0,0.0,0.0,0.0,0.0,0.0,0.0,0.0,0.0,0.0,0.0,0.0,0.0,0.0,0.0,0.0,0.0,0.0,0.0,0.0,0.0,0.0,0.0,0.0,0.0,0.0,0.0,0.0,0.0,0.0,0.0,0.0,0.0,0.0,0.0,0.0,0.0,0.0,0.0,0.0,0.0,0.0,0.0,0.0,0.0,0.0,0.0,0.0,0.0,0.0,0.0,0.0,0.0,0.0,-3.6122,0.0,-4.1325,-4.2152,-4.0997,-3.9329,0.0,0.0,0.0,0.0,0.0,0.0,0.0,0.0,0.0,0.0,0.0,0.0,0.0,0.0,0.0,0.0,0.0,0.0,0.0,0.0,0.0,0.0,0.0,0.0,0.0,0.0,0.0,0.0,0.0,0.0,0.0,0.0,0.0,0.0,0.0,0.0,0.0,0.0,0.0,0.0,0.0,0.0,0.0,0.0,0.0,0.0,0.0,0.0,0.0,0.0,0.0,0.0,0.0,0.0,0.0,0.0,0.0,0.0,0.0,0.0,0.0,0.0,0.0,0.0,0.0,0.0,0.0,0.0,0.0,0.0,0.0,0.0,0.0,0.0,0.0,0.0,0.0,0.0,0.0,0.0,0.0,0.0,0.0,0.0,0.0,0.0,0.0,0.0,0.0,0.0,0.0,0.0,0.0,0.0,0.0,0.0,0.0,0.0,0.0,0.0,0.0,0.0,0.0,0.0,0.0,0.0,0.0,0.0,-3.3213,-3.9629,-4.1916,-4.3185,-4.374,-4.2167,-4.0441,0.0,0.0,0.0,0.0,0.0,0.0,0.0,0.0,0.0,0.0,0.0,0.0,0.0,0.0,0.0,0.0,0.0,0.0,0.0,0.0,0.0,0.0,0.0,0.0,0.0,0.0,0.0,0.0,0.0,0.0,0.0,0.0,0.0,0.0,0.0,0.0,0.0,0.0,0.0,0.0,0.0,0.0,0.0,0.0,0.0,0.0,0.0,0.0,0.0,0.0,0.0,0.0,0.0,0.0,0.0,0.0,0.0,0.0,0.0,0.0,0.0,0.0,0.0,0.0,0.0,0.0,0.0,0.0,0.0,0.0,0.0,0.0,0.0,0.0,0.0,0.0,0.0,0.0,0.0,0.0,0.0,0.0,0.0,0.0,0.0,0.0,0.0,0.0,0.0,0.0,0.0,0.0,0.0,0.0,0.0,0.0,0.0,0.0,0.0,0.0,0.0,0.0,0.0,0.0,0.0,0.0,0.0,0.0,0.0,-3.7685,-4.0342,-4.2705,-4.4566,-4.2805,-4.1274,0.0,0.0,0.0,0.0,0.0,0.0,0.0,0.0,0.0,0.0,0.0,0.0,0.0,0.0,0.0,0.0,0.0,0.0,0.0,0.0,0.0,0.0,0.0,0.0,0.0,0.0,0.0,0.0,0.0,0.0,0.0,0.0,0.0,0.0,0.0,0.0,0.0,0.0,0.0,0.0,0.0,0.0,0.0,0.0,0.0,0.0,0.0,0.0,0.0,0.0,0.0,0.0,0.0,0.0,0.0,0.0,0.0,0.0,0.0,0.0,0.0,0.0,0.0,0.0,0.0,0.0,0.0,0.0,0.0,0.0,0.0,0.0,0.0,0.0,0.0,0.0,0.0,0.0,0.0,0.0,0.0,0.0,0.0,0.0,0.0,0.0,0.0,0.0,0.0,0.0,0.0,0.0,0.0,0.0,0.0,0.0,0.0,0.0,0.0,0.0,0.0,0.0,0.0,0.0,0.0,0.0,0.0,0.0,0.0,-3.7534,-4.0963,-4.3759,-4.5776,-4.4155,-4.2328,-4.0479,0.0,0.0,0.0,0.0,0.0,0.0,0.0,0.0,0.0,0.0,0.0,0.0,0.0,0.0,0.0,0.0,0.0,0.0,0.0,0.0,0.0,0.0,0.0,0.0,0.0,0.0,0.0,0.0,0.0,0.0,0.0,0.0,0.0,0.0,0.0,0.0,0.0,0.0,0.0,0.0,0.0,0.0,0.0,0.0,0.0,0.0,0.0,0.0,0.0,0.0,0.0,0.0,0.0,0.0,0.0,0.0,0.0,0.0,0.0,0.0,0.0,0.0,0.0,0.0,0.0,0.0,0.0,0.0,0.0,0.0,0.0,0.0,0.0,0.0,0.0,0.0,0.0,0.0,0.0,0.0,0.0,0.0,0.0,0.0,0.0,0.0,0.0,0.0,0.0,0.0,0.0,0.0,0.0,0.0,0.0,0.0,0.0,0.0,0.0,0.0,0.0,0.0,0.0,0.0,0.0,0.0,0.0,0.0,-3.8952,-4.3415,-4.6119,-4.6877,-4.5911,-4.3588,0.0,0.0,0.0,0.0,0.0,0.0,0.0,0.0,0.0,0.0,0.0,0.0,0.0,0.0,0.0,0.0,0.0,0.0,0.0,0.0,0.0,0.0,0.0,0.0,0.0,0.0,0.0,0.0,0.0,0.0,0.0,0.0,0.0,0.0,0.0,0.0,0.0,0.0,0.0,0.0,0.0,0.0,0.0,0.0,0.0,0.0,0.0,0.0,0.0,0.0,0.0,0.0,0.0,0.0,0.0,0.0,0.0,0.0,0.0,0.0,0.0,0.0,0.0,0.0,0.0,0.0,0.0,0.0,0.0,0.0,0.0,0.0,0.0,0.0,0.0,0.0,0.0,0.0,0.0,0.0,0.0,0.0,0.0,0.0,0.0,0.0,0.0,0.0,0.0,0.0,0.0,0.0,0.0,0.0,0.0,0.0,0.0,0.0,0.0,0.0,0.0,0.0,0.0,0.0,0.0,0.0,0.0,0.0,0.0,-4.1598,-4.5319,-4.7369,-4.7751,-4.6653,-4.4577,0.0,0.0,0.0,0.0,0.0,0.0,0.0,0.0,0.0,0.0,0.0,0.0,0.0,0.0,0.0,0.0,0.0,0.0,0.0,0.0,0.0,0.0,0.0,0.0,0.0,0.0,0.0,0.0,0.0,0.0,0.0,0.0,0.0,0.0,0.0,0.0,0.0,0.0,0.0,0.0,0.0,0.0,0.0,0.0,0.0,0.0,0.0,0.0,0.0,0.0,0.0,0.0,0.0,0.0,0.0,0.0,0.0,0.0,0.0,0.0,0.0,0.0,0.0,0.0,0.0,0.0,0.0,0.0,0.0,0.0,0.0,0.0,0.0,0.0,0.0,0.0,0.0,0.0,0.0,0.0,0.0,0.0,0.0,0.0,0.0,0.0,0.0,0.0,0.0,0.0,0.0,0.0,0.0,0.0,0.0,0.0,0.0,0.0,0.0,0.0,0.0,0.0,0.0,0.0,0.0,0.0,0.0,0.0,-3.923,-4.2253,-4.6179,-4.8514,-4.9022,-4.8273,-4.6014,0.0,0.0,0.0,0.0,0.0,0.0,0.0,0.0,0.0,0.0,0.0,0.0,0.0,0.0,0.0,0.0,0.0,0.0,0.0,0.0,0.0,0.0,0.0,0.0,0.0,0.0,0.0,0.0,0.0,0.0,0.0,0.0,0.0,0.0,0.0,0.0,0.0,0.0,0.0,0.0,0.0,0.0,0.0,0.0,0.0,0.0,0.0,0.0,0.0,0.0,0.0,0.0,0.0,0.0,0.0,0.0,0.0,0.0,0.0,0.0,0.0,0.0,0.0,0.0,0.0,0.0,0.0,0.0,0.0,0.0,0.0,0.0,0.0,0.0,0.0,0.0,0.0,0.0,0.0,0.0,0.0,0.0,0.0,0.0,0.0,0.0,0.0,0.0,0.0,0.0,0.0,0.0,0.0,0.0,0.0,0.0,0.0,0.0,0.0,0.0,0.0,0.0,0.0,0.0,0.0,0.0,0.0,0.0,-3.9632,-4.2093,-4.6504,-4.9358,-5.051,-5.0017,-4.7319,0.0,0.0,0.0,0.0,0.0,0.0,0.0,0.0,0.0,0.0,0.0,0.0,0.0,0.0,0.0,0.0,0.0,0.0,0.0,0.0,0.0,0.0,0.0,0.0,0.0,0.0,0.0,0.0,0.0,0.0,0.0,0.0,0.0,0.0,0.0,0.0,0.0,0.0,0.0,0.0,0.0,0.0,0.0,0.0,0.0,0.0,0.0,0.0,0.0,0.0,0.0,0.0,0.0,0.0,0.0,0.0,0.0,0.0,0.0,0.0,0.0,0.0,0.0,0.0,0.0,0.0,0.0,0.0,0.0,0.0,0.0,0.0,0.0,0.0,0.0,0.0,0.0,0.0,0.0,0.0,0.0,0.0,0.0,0.0,0.0,0.0,0.0,0.0,0.0,0.0,0.0,0.0,0.0,0.0,0.0,0.0,0.0,0.0,0.0,0.0,0.0,0.0,0.0,0.0,0.0,0.0,0.0,0.0,-4.0013,-4.3317,-4.6504,-4.9356,-5.1792,-4.9443,-4.6326,0.0,0.0,0.0,0.0,0.0,0.0,0.0,0.0,0.0,0.0,0.0,0.0,0.0,0.0,0.0,0.0,0.0,0.0,0.0,0.0,0.0,0.0,0.0,0.0,0.0,0.0,0.0,0.0,0.0,0.0,0.0,0.0,0.0,0.0,0.0,0.0,0.0,0.0,0.0,0.0,0.0,0.0,0.0,0.0,0.0,0.0,0.0,0.0,-2.6064,0.0,0.0,0.0,0.0,0.0,0.0,0.0,0.0,0.0,0.0,0.0,0.0,0.0,0.0,0.0,0.0,0.0,0.0,0.0,0.0,0.0,0.0,0.0,0.0,0.0,0.0,0.0,0.0,0.0,0.0,0.0,0.0,0.0,0.0,0.0,0.0,0.0,0.0,0.0,0.0,0.0,0.0,0.0,0.0,0.0,0.0,0.0,0.0,0.0,0.0,0.0,0.0,0.0,0.0,0.0,0.0,0.0,0.0,0.0,-3.999,-4.4163,-4.6338,-4.8822,-5.1541,-4.9058,-4.6291,0.0,0.0,0.0,0.0,0.0,0.0,0.0,0.0,0.0,0.0,0.0,0.0,0.0,0.0,0.0,0.0,0.0,0.0,0.0,0.0,0.0,0.0,0.0,0.0,0.0,0.0,0.0,0.0,0.0,0.0,0.0,0.0,0.0,0.0,0.0,0.0,0.0,0.0,0.0,0.0,0.0,0.0,0.0,0.0,0.0,0.0,0.0,0.0,0.0,0.0,0.0,0.0,0.0,0.0,0.0,0.0,0.0,0.0,0.0,0.0,0.0,0.0,0.0,0.0,0.0,0.0,0.0,0.0,0.0,0.0,0.0,0.0,0.0,0.0,0.0,0.0,0.0,0.0,0.0,0.0,0.0,0.0,0.0,0.0,0.0,0.0,0.0,0.0,0.0,0.0,0.0,0.0,0.0,0.0,0.0,0.0,0.0,0.0,0.0,0.0,0.0,0.0,0.0,0.0,0.0,0.0,0.0,-3.7056,-3.9935,-4.4589,-4.6108,-4.809,-5.0708,-4.8795,-4.6597,-4.4375,0.0,0.0,0.0,0.0,0.0,0.0,0.0,0.0,0.0,0.0,0.0,0.0,0.0,0.0,0.0,0.0,0.0,0.0,0.0,0.0,0.0,0.0,0.0,0.0,0.0,0.0,0.0,0.0,0.0,0.0,0.0,0.0,0.0,0.0,0.0,0.0,0.0,0.0,-2.0004,-2.3395,0.0,0.0,0.0,0.0,0.0,0.0,0.0,0.0,-3.0535,0.0,0.0,0.0,0.0,0.0,0.0,0.0,0.0,0.0,0.0,0.0,0.0,0.0,0.0,0.0,0.0,0.0,0.0,0.0,0.0,0.0,0.0,0.0,0.0,0.0,0.0,0.0,0.0,0.0,0.0,0.0,0.0,0.0,0.0,0.0,0.0,0.0,0.0,0.0,0.0,0.0,0.0,0.0,0.0,0.0,0.0,0.0,0.0,0.0,0.0,0.0,0.0,0.0,0.0,0.0,0.0,-3.6589,-3.7725,-4.0375,-4.4573,-4.6056,-4.7517,-4.9154,-4.8729,-4.6892,-4.3652,0.0,0.0,0.0,0.0,0.0,0.0,0.0,0.0,0.0,0.0,0.0,0.0,0.0,0.0,0.0,0.0,0.0,0.0,0.0,0.0,0.0,0.0,0.0,0.0,0.0,0.0,0.0,0.0,0.0,0.0,0.0,0.0,0.0,0.0,0.0,0.0,0.0,0.0,0.0,-2.6189,-2.8062,0.0,0.0,0.0,0.0,0.0,0.0,0.0,0.0,-3.1342,0.0,0.0,0.0,0.0,0.0,0.0,0.0,0.0,0.0,0.0,0.0,0.0,0.0,0.0,0.0,0.0,0.0,0.0,0.0,0.0,0.0,0.0,0.0,0.0,0.0,0.0,0.0,0.0,0.0,0.0,0.0,0.0,0.0,0.0,0.0,0.0,0.0,0.0,0.0,0.0,0.0,0.0,0.0,0.0,0.0,0.0,0.0,0.0,0.0,0.0,0.0,0.0,0.0,0.0,0.0,-3.6587,-3.7388,-3.9796,-4.4069,-4.5476,-4.6868,-4.8317,-4.7333,-4.5681,0.0,0.0,0.0,0.0,0.0,0.0,0.0,0.0,0.0,0.0,0.0,0.0,0.0,0.0,0.0,0.0,0.0,0.0,0.0,0.0,0.0,0.0,0.0,0.0,0.0,0.0,0.0,0.0,0.0,0.0,0.0,0.0,0.0,0.0,0.0,0.0,0.0,0.0,0.0,0.0,-2.6678,-2.854,-3.1972,0.0,0.0,0.0,0.0,0.0,0.0,-3.3655,-3.2828,0.0,0.0,0.0,0.0,0.0,0.0,0.0,0.0,0.0,0.0,0.0,0.0,0.0,0.0,0.0,0.0,0.0,0.0,0.0,0.0,0.0,0.0,0.0,0.0,0.0,0.0,0.0,0.0,0.0,0.0,0.0,0.0,0.0,0.0,0.0,0.0,0.0,0.0,0.0,0.0,0.0,0.0,0.0,0.0,0.0,0.0,0.0,0.0,0.0,0.0,0.0,0.0,0.0,0.0,0.0,-3.663,-3.7038,-3.9265,-4.342,-4.4991,-4.6307,-4.7525,-4.6065,-4.4499,0.0,0.0,0.0,0.0,0.0,0.0,0.0,0.0,0.0,0.0,0.0,0.0,0.0,0.0,0.0,0.0,0.0,0.0,0.0,0.0,0.0,0.0,0.0,0.0,0.0,0.0,0.0,0.0,0.0,0.0,0.0,0.0,0.0,0.0,0.0,0.0,0.0,0.0,0.0,0.0,0.0,-2.9567,-3.4181,-3.4969,0.0,0.0,0.0,0.0,-3.5319,-3.5596,0.0,0.0,0.0,0.0,0.0,0.0,0.0,0.0,0.0,0.0,0.0,0.0,0.0,0.0,0.0,0.0,0.0,0.0,0.0,0.0,0.0,0.0,0.0,0.0,0.0,0.0,0.0,0.0,0.0,0.0,0.0,0.0,0.0,0.0,0.0,0.0,0.0,0.0,0.0,0.0,0.0,0.0,0.0,0.0,0.0,0.0,0.0,0.0,0.0,0.0,0.0,0.0,0.0,0.0,0.0,0.0,-3.6436,-3.7336,-3.9609,-4.3223,-4.4833,-4.5866,-4.6449,-4.607,-4.4346,0.0,0.0,0.0,0.0,0.0,0.0,0.0,0.0,0.0,0.0,0.0,0.0,0.0,0.0,0.0,0.0,0.0,0.0,0.0,0.0,0.0,0.0,0.0,0.0,0.0,0.0,0.0,0.0,0.0,0.0,0.0,0.0,0.0,0.0,0.0,0.0,0.0,0.0,0.0,0.0,0.0,-3.2836,-3.4817,-3.6125,-3.6922,0.0,0.0,-3.7781,-3.8834,-3.8926,0.0,0.0,0.0,0.0,0.0,0.0,0.0,0.0,0.0,0.0,0.0,0.0,0.0,0.0,0.0,0.0,0.0,0.0,0.0,0.0,0.0,0.0,0.0,0.0,0.0,0.0,0.0,0.0,0.0,0.0,0.0,0.0,0.0,0.0,0.0,0.0,0.0,0.0,0.0,0.0,0.0,0.0,0.0,0.0,0.0,0.0,0.0,0.0,0.0,0.0,0.0,0.0,0.0,0.0,0.0,-3.2965,-3.4968,-3.6527,-3.8605,-4.1235,-4.3122,-4.4139,-4.4188,-4.3339,-4.1656,0.0,0.0,0.0,0.0,0.0,0.0,0.0,0.0,0.0,0.0,0.0,0.0,0.0,0.0,0.0,0.0,0.0,0.0,0.0,0.0,0.0,0.0,0.0,0.0,0.0,0.0,0.0,0.0,0.0,0.0,0.0,0.0,0.0,0.0,0.0,0.0,0.0,0.0,0.0,0.0,0.0,0.0,-3.5942,-3.8278,0.0,0.0,0.0,-3.9037,-3.9534,0.0,0.0,0.0,0.0,0.0,0.0,0.0,0.0,0.0,0.0,0.0,0.0,0.0,0.0,0.0,0.0,0.0,0.0,0.0,0.0,0.0,0.0,0.0,0.0,0.0,0.0,0.0,0.0,0.0,0.0,0.0,0.0,0.0,0.0,0.0,0.0,0.0,0.0,0.0,0.0,0.0,0.0,0.0,0.0,0.0,0.0,0.0,0.0,0.0,0.0,0.0,0.0,0.0,0.0,0.0,0.0,0.0,-3.3851,-3.577,-3.7714,-3.9536,-4.1392,-4.2297,-4.2202,-4.1179,0.0,0.0,0.0,0.0,0.0,0.0,0.0,0.0,0.0,0.0,0.0,0.0,0.0,0.0,0.0,0.0,0.0,0.0,0.0,0.0,0.0,0.0,0.0,0.0,0.0,0.0,0.0,-1.7601,0.0,0.0,0.0,0.0,0.0,0.0,0.0,0.0,0.0,0.0,0.0,0.0,0.0,0.0,-3.6081,-3.7866,-4.031,-4.1732,0.0,0.0,-3.9992,-3.9543,-3.9397,-3.7861,0.0,0.0,0.0,0.0,0.0,0.0,0.0,0.0,0.0,0.0,0.0,0.0,0.0,0.0,0.0,0.0,0.0,0.0,0.0,0.0,0.0,0.0,0.0,0.0,0.0,0.0,0.0,0.0,0.0,0.0,0.0,0.0,0.0,0.0,0.0,0.0,0.0,0.0,0.0,0.0,0.0,0.0,0.0,0.0,0.0,0.0,0.0,0.0,0.0,0.0,0.0,0.0,0.0,0.0,-3.2593,-3.3688,-3.556,-3.7372,-3.9069,-4.0034,-4.0775,-4.1126,-4.1098,-3.9339,0.0,0.0,0.0,0.0,0.0,0.0,0.0,0.0,0.0,0.0,0.0,0.0,0.0,0.0,0.0,0.0,0.0,0.0,0.0,0.0,0.0,0.0,0.0,0.0,0.0,0.0,0.0,0.0,0.0,0.0,0.0,0.0,0.0,0.0,0.0,0.0,0.0,0.0,0.0,0.0,0.0,-3.7678,-4.0971,-4.1737,-4.2365,0.0,-4.2307,-4.1055,-3.9456,-4.0783,-3.9546,-3.2177,0.0,0.0,0.0,0.0,0.0,0.0,0.0,0.0,0.0,0.0,0.0,0.0,0.0,0.0,0.0,0.0,0.0,0.0,0.0,0.0,0.0,0.0,0.0,0.0,0.0,0.0,0.0,0.0,0.0,0.0,0.0,0.0,0.0,0.0,0.0,0.0,0.0,0.0,0.0,0.0,0.0,0.0,0.0,0.0,0.0,0.0,0.0,0.0,0.0,0.0,0.0,0.0,0.0,-3.2127,-3.2659,-3.4979,-3.6822,-3.8076,-3.9256,-3.9704,-3.9432,-3.9274,-3.7365,0.0,0.0,0.0,0.0,0.0,0.0,0.0,0.0,0.0,0.0,0.0,0.0,0.0,0.0,0.0,0.0,0.0,0.0,0.0,0.0,0.0,0.0,0.0,0.0,0.0,0.0,0.0,0.0,-2.3969,-2.5171,-2.515,0.0,0.0,0.0,0.0,0.0,0.0,0.0,0.0,0.0,0.0,-3.8025,-4.0159,-4.1944,0.0,0.0,-4.1922,-4.0764,-3.9767,-3.8742,-3.6703,-3.2409,-3.0623,0.0,0.0,0.0,0.0,0.0,0.0,0.0,0.0,0.0,0.0,0.0,0.0,0.0,0.0,0.0,0.0,0.0,0.0,0.0,0.0,0.0,0.0,0.0,0.0,0.0,0.0,0.0,0.0,0.0,0.0,0.0,0.0,0.0,0.0,0.0,0.0,0.0,0.0,0.0,0.0,0.0,0.0,0.0,0.0,0.0,0.0,0.0,0.0,0.0,0.0,0.0,0.0,-3.1625,-3.2384,-3.4703,-3.6372,-3.7362,-3.8197,-3.832,-3.7678,-3.755,-3.5652,0.0,0.0,0.0,0.0,0.0,0.0,0.0,0.0,0.0,0.0,0.0,0.0,0.0,0.0,0.0,0.0,0.0,0.0,0.0,0.0,0.0,0.0,0.0,0.0,0.0,0.0,0.0,0.0,-2.5513,-2.6345,-2.613,0.0,0.0,0.0,0.0,0.0,0.0,0.0,0.0,0.0,0.0,-3.8685,-4.0427,-4.1957,-4.2865,-4.2627,-4.1014,-3.9709,-3.9026,-3.6851,-3.4378,-3.1775,0.0,0.0,0.0,0.0,0.0,0.0,0.0,0.0,0.0,0.0,0.0,0.0,0.0,0.0,0.0,0.0,0.0,0.0,0.0,0.0,0.0,0.0,0.0,0.0,0.0,0.0,0.0,0.0,0.0,0.0,-3.1609,0.0,0.0,0.0,0.0,0.0,0.0,0.0,0.0,0.0,0.0,0.0,0.0,0.0,0.0,0.0,0.0,0.0,0.0,0.0,0.0,0.0,0.0,-3.1294,-3.2975,-3.4779,-3.6106,-3.6933,-3.6792,-3.643,-3.5823,-3.6148,-3.4717,-3.1211,0.0,0.0,0.0,0.0,0.0,0.0,0.0,0.0,0.0,0.0,0.0,0.0,0.0,0.0,0.0,0.0,0.0,0.0,0.0,0.0,0.0,0.0,0.0,0.0,0.0,0.0,-2.4706,-2.5535,-2.5851,0.0,0.0,0.0,0.0,0.0,0.0,0.0,0.0,0.0,0.0,-3.7409,-3.9804,-4.2307,-4.2106,-4.1752,-4.2384,-3.9879,-3.7697,-3.699,-3.553,-3.3432,0.0,0.0,0.0,0.0,0.0,0.0,0.0,0.0,0.0,0.0,0.0,0.0,0.0,0.0,0.0,0.0,0.0,0.0,0.0,0.0,0.0,0.0,0.0,0.0,0.0,0.0,0.0,-3.3308,-3.2993,0.0,0.0,0.0,0.0,0.0,0.0,0.0,0.0,0.0,0.0,0.0,-3.4028,-3.3343,0.0,0.0,0.0,0.0,0.0,0.0,0.0,0.0,0.0,0.0,0.0,0.0,-3.035,-3.1988,-3.319,-3.4284,-3.5211,-3.5474,-3.4753,-3.3113,-3.3979,-3.295,-2.9693,0.0,0.0,0.0,0.0,0.0,0.0,0.0,0.0,0.0,0.0,0.0,0.0,0.0,0.0,0.0,0.0,0.0,0.0,0.0,0.0,0.0,0.0,0.0,0.0,0.0,-2.5753,0.0,0.0,0.0,0.0,0.0,0.0,0.0,0.0,0.0,0.0,0.0,-3.2177,-3.3929,-3.5685,-3.7051,-3.7944,-3.7914,-3.8144,0.0,0.0,0.0,0.0,0.0,0.0,0.0,0.0,0.0,0.0,0.0,0.0,0.0,0.0,-3.0262,-3.0428,-2.7278,-2.4651,-2.4832,0.0,0.0,0.0,0.0,0.0,0.0,0.0,0.0,0.0,0.0,0.0,0.0,0.0,0.0,-3.4028,0.0,-3.3092,0.0,0.0,0.0,0.0,0.0,0.0,0.0,0.0,-3.4379,-3.4665,-3.4728,-3.3612,-3.2711,0.0,-3.0971,-2.9704,0.0,0.0,0.0,0.0,0.0,0.0,0.0,0.0,-2.9328,-3.1003,-3.2098,-3.2978,-3.3729,-3.4161,-3.3452,-3.1677,-3.1783,-3.0997,-2.9184,-2.7392,-2.5929,0.0,0.0,0.0,0.0,0.0,0.0,0.0,0.0,0.0,0.0,0.0,0.0,0.0,0.0,0.0,0.0,0.0,0.0,0.0,0.0,0.0,0.0,0.0,-2.6823,0.0,0.0,0.0,0.0,0.0,0.0,0.0,0.0,0.0,-2.8477,-3.0606,-3.2547,-3.3754,-3.4858,-3.5636,-3.5665,0.0,0.0,0.0,0.0,0.0,0.0,0.0,-3.0787,-2.9694,-2.9808,-3.0077,-3.0212,-3.0802,-3.1298,-3.1426,0.0,0.0,-3.1006,-2.8358,-2.6152,-2.6034,-2.5621,-2.5427,-2.5957,-2.6448,-2.6863,0.0,0.0,0.0,0.0,0.0,0.0,0.0,0.0,-3.4473,-3.4537,0.0,-3.2773,0.0,0.0,0.0,0.0,0.0,-3.2334,0.0,0.0,-3.5165,-3.5475,-3.5507,-3.2758,-3.1483,-3.1766,-3.0707,-2.974,-2.8927,-2.8733,0.0,0.0,0.0,0.0,0.0,0.0,-2.8384,-2.9899,-3.1424,-3.2371,-3.2558,-3.2674,-3.2274,-3.1286,-2.9606,-2.8953,-2.9347,-2.7588,-2.6579,-2.6548,-2.5279,0.0,0.0,0.0,0.0,0.0,0.0,0.0,0.0,0.0,0.0,0.0,0.0,0.0,0.0,0.0,0.0,0.0,0.0,0.0,0.0,-2.5622,0.0,0.0,0.0,0.0,0.0,0.0,0.0,0.0,0.0,0.0,-2.9232,-3.1162,-3.2918,-3.4245,0.0,0.0,0.0,0.0,-3.6459,-3.5523,-3.4188,-3.322,-3.3109,-3.1339,-3.0036,-2.9994,0.0,0.0,-3.0781,-3.136,-3.1699,-3.1409,-3.077,-3.0062,-3.0087,-2.8967,-2.7785,-2.7065,-2.5665,-2.4436,-2.409,-2.4592,-2.5108,-3.9729,0.0,0.0,0.0,0.0,-3.5752,-3.6247,-3.6924,-3.6836,-3.6413,-3.5697,-3.4997,0.0,0.0,0.0,0.0,0.0,0.0,-3.3882,-3.5149,-3.478,-3.4846,-3.517,-3.3481,-3.2488,-3.2228,-3.124,-3.0471,-2.997,-2.9325,-2.8245,-2.6881,0.0,0.0,0.0,0.0,-2.7586,-2.9274,-2.9604,-3.0086,-3.0714,-3.0706,-3.0303,-2.9491,-2.8344,-2.7778,-2.7905,-2.7389,-2.69,-2.6579,-2.6033,0.0,0.0,0.0,0.0,0.0,0.0,0.0,0.0,0.0,0.0,0.0,0.0,0.0,0.0,0.0,0.0,0.0,0.0,0.0,-2.5681,-2.6362,-2.67,0.0,0.0,0.0,0.0,0.0,0.0,0.0,0.0,0.0,-2.9205,-3.1307,-3.2679,0.0,0.0,-3.3016,-3.2201,-3.2318,-3.2544,-3.2566,-3.2169,0.0,-3.1853,-3.1079,-3.0377,-3.0046,-3.0501,-3.0946,-3.1143,-3.1418,-3.148,-3.1356,-3.1174,-3.0734,-3.0015,-2.8848,-2.7612,-2.6783,-2.5405,-2.4279,-2.4166,-2.4861,-2.5727,-4.2316,-4.017,-3.8687,-3.7812,-3.7464,-3.743,-3.7891,-3.849,-3.8227,-3.7764,-3.7143,-3.5925,-3.4428,-3.2742,-3.2235,0.0,0.0,0.0,-3.4164,-3.5712,-3.4354,-3.3974,-3.4316,-3.2949,-3.198,-3.1487,-3.0908,-3.0525,-3.0195,-2.9182,-2.8433,-2.7883,0.0,0.0,-2.6144,-2.6347,-2.7049,-2.8391,-2.8445,-2.8593,-2.8856,-2.8867,-2.8548,-2.8196,-2.7631,-2.7272,-2.7272,-2.7272,-2.7138,-2.6858,-2.6465,-2.5941,0.0,0.0,0.0,0.0,0.0,0.0,0.0,0.0,0.0,0.0,0.0,-1.8286,-1.901,0.0,0.0,0.0,-2.2981,-2.4524,-2.6695,-2.6319,0.0,0.0,0.0,0.0,0.0,0.0,0.0,-2.7458,-2.7914,-2.84,-2.8959,-3.0252,-3.132,-3.1636,-3.171,-3.1498,-3.0912,0.0,-3.1306,-3.1189,-3.1367,-3.1401,-3.1169,-3.0708,-3.0315,-3.0046,-3.0222,-3.0481,-3.076,-3.0822,-3.0833,-3.0833,-3.0833,-3.0719,-3.0154,-2.8708,-2.738,-2.6486,-2.5218,-2.4054,-2.3478,-2.3875,-2.4686,-4.4235,-4.2929,-4.0648,-3.9386,-3.8742,-3.9146,-3.9398,-3.9535,-3.8838,-3.8608,-3.8541,-3.6039,-3.4607,-3.4088,-3.215,0.0,-3.3528,-3.3527,-3.4523,-3.623,-3.4275,-3.3423,-3.3411,-3.1961,-3.0998,-3.046,-3.0449,-3.0329,-2.9938,-2.8795,-2.8476,-2.8926,-2.7641,-2.693,-2.6672,-2.6568,-2.6755,-2.7251,-2.7624,-2.7624,-2.7272,-2.7272,-2.7272,-2.7357,-2.7272,-2.7272,-2.7272,-2.7272,-2.7272,-2.7251,-2.665,-2.631,-2.6135,0.0,0.0,0.0,0.0,0.0,0.0,0.0,0.0,0.0,0.0,0.0,0.0,0.0,0.0,-2.3168,-2.4434,0.0,-2.6898,-2.6023,0.0,0.0,0.0,-2.6556,-2.722,-2.7655,-2.7903,-2.7872,0.0,0.0,-2.8556,-2.8597,-2.9249,-3.0936,-3.0822,-3.0615,-3.0836,-3.1625,-3.1814,-3.0891,-3.124,-3.1299,-3.0777,-3.0294,-3.0036,-3.0005,-2.9994,-3.0025,-3.0046,-3.0046,-3.0015,-3.0056,-3.0005,-3.0015,-3.0005,-2.884,-2.7487,-2.6467,-2.5085,-2.3761,-2.2699,-2.2264,-2.2421,-4.5811,-4.5316,-4.4012,-4.2709,-4.1598,-4.2094,-4.2051,-4.1369,-4.0671,-3.9689,-3.8494,-3.7209,-3.588,-3.4595,-3.3719,-3.3708,-3.4437,-3.5074,-3.5485,-3.577,-3.5393,-3.5162,-3.4981,-3.4243,-3.3523,-3.3041,-3.2849,-3.2436,-3.1651,-3.0125,-2.9205,-2.878,-2.7715,-2.7357,-2.7541,-2.6568,-2.6444,-2.7251,-2.7024,-2.7013,-2.7262,-2.7272,-2.7272,-2.7272,-2.7272,-2.7272,-2.7272,-2.7272,-2.7272,-2.7262,-2.7148,-2.6826,-2.6186,-2.4434,0.0,0.0,0.0,0.0,0.0,0.0,0.0,0.0,0.0,-2.0027,-2.002,0.0,-2.2428,0.0,-2.5012,-2.626,-2.7089,-2.7028,0.0,0.0,-2.7507,-2.7318,-2.6996,-2.7548,-2.779,-2.7458,-2.78,-2.809,-2.809,-2.839,-2.8763,-2.9228,-2.9487,-2.9911,-3.0712,-3.1029,-3.0862,-3.0369,-3.0674,-3.0726,-3.0317,-3.0077,-2.9994,-2.9994,-2.9994,-2.9994,-2.9994,-2.9994,-2.9994,-2.9994,-2.9994,-2.9994,-2.9994,-2.9649,-2.9061,-2.7864,-2.5783,-2.4085,-2.3398,-2.238,-2.1602,-4.615,-4.5745,-4.4755,-4.3656,-4.272,-4.2946,-4.2708,-4.219,-4.1385,-4.0478,-3.9231,-3.8023,-3.6846,-3.5846,-3.5536,-3.5709,-3.6217,-3.6518,-3.6626,-3.6434,-3.623,-3.5738,-3.4871,-3.4362,-3.3575,-3.2727,-3.2647,-3.2215,-3.146,-3.0548,-2.9914,-2.9673,-2.9228,-2.9175,-2.9493,-2.7525,-2.7128,-2.8201,-2.7745,-2.7547,-2.7531,-2.7365,-2.7272,-2.7251,-2.696,-2.6847,-2.6857,-2.6484,-2.6382,-2.6371,-2.6371,-2.6166,-2.5716,-2.4463,-2.373,0.0,0.0,0.0,0.0,0.0,0.0,0.0,0.0,0.0,0.0,0.0,-2.3204,-2.4529,-2.566,-2.65,-2.7033,-2.7421,-2.7631,-2.7631,-2.7805,-2.7924,-2.7678,-2.7981,-2.8131,-2.7893,-2.7903,-2.7924,-2.7935,-2.7976,-2.81,-2.8286,-2.8711,-2.9382,-3.0214,-3.0223,-3.0046,-3.0015,-3.0212,-3.0305,-3.0025,-2.9994,-2.9994,-2.9994,-2.9994,-2.9994,-2.9994,-2.9994,-2.9994,-2.9994,-2.9994,-2.9994,-2.9994,-2.9994,-2.9774,-2.8946,-2.7246,-2.5554,-2.4649,-2.3644,-2.2757,-4.6189,-4.5529,-4.4442,-4.3514,-4.2887,-4.2609,-4.2511,-4.2511,-4.1683,-4.0893,-4.0142,-3.8518,-3.7544,-3.707,-3.7057,-3.7352,-3.7731,-3.7636,-3.754,-3.7445,-3.6855,-3.5891,-3.4445,-3.4066,-3.315,-3.2026,-3.1925,-3.1574,-3.0996,-3.0804,-3.0822,-3.0894,-3.0986,-3.1239,-3.1536,-2.9102,-2.8412,-2.9431,-2.9184,-2.8726,-2.8282,-2.7799,-2.7537,-2.7516,-2.6796,-2.6362,-2.627,-2.5645,-2.527,-2.5189,-2.5189,-2.5209,-2.533,-2.4296,-2.3958,0.0,-2.3466,0.0,0.0,0.0,0.0,0.0,0.0,0.0,0.0,-2.3271,-2.4021,-2.5605,-2.6285,-2.6759,-2.6951,-2.7549,-2.7846,-2.7754,-2.8112,-2.8348,-2.8545,-2.8524,-2.8504,-2.8442,-2.8079,-2.7831,-2.781,-2.75,-2.7427,-2.779,-2.8348,-2.8906,-2.9593,-2.9803,-2.991,-3.0359,-3.0401,-3.0745,-3.0609,-3.0495,-3.0495,-3.0495,-3.0401,-3.0183,-3.0287,-3.0088,-2.9994,-2.9994,-2.9994,-2.9994,-2.9994,-2.9994,-2.9994,-2.9879,-2.881,-2.7445,-2.5919,-2.4977,-2.4684,-4.7773,-4.7167,-4.5627,-4.4153,-4.2887,-4.2887,-4.2803,-4.279,-4.1993,-4.0697,-3.9058,-3.7818,-3.716,-3.707,-3.6896,-3.6866,-3.6968,-3.7368,-3.7368,-3.7181,-3.7622,-3.7651,-3.7208,-3.709,-3.6533,-3.5596,-3.5402,-3.4754,-3.3521,-3.2507,-3.189,-3.1627,-3.1192,-3.1066,-3.1159,0.0,0.0,0.0,-3.0433,-3.0546,-3.0416,-2.9466,-2.8824,-2.8656,-2.811,0.0,-2.6531,-2.6367,-2.5885,-2.527,-2.5189,0.0,0.0,0.0,0.0,0.0,0.0,0.0,0.0,0.0,0.0,0.0,-2.4631,-2.404,-2.3074,-2.3942,-2.4795,-2.5521,-2.6653,-2.7411,-2.7421,-2.8695,-2.9198,-2.8507,-2.8786,-2.8776,-2.8173,-2.8048,-2.7924,-2.7552,-2.7438,-2.7396,-2.7396,-2.7303,-2.7388,-2.7492,-2.8105,-2.8668,-2.8877,-3.0167,-3.1433,-3.2387,-3.2398,-3.2499,-3.26,-3.251,-3.2398,-3.2499,-3.179,-3.137,-3.1133,-3.0453,-2.9984,-2.9973,-2.9994,-2.9984,-2.9994,-2.9994,-2.9994,-2.9994,-2.9702,-2.8968,-2.7026,-2.5701,-2.4812,-4.8717,0.0,-4.5802,-4.4324,0.0,-4.3067,-4.29,-4.2873,-4.2175,-4.0986,-3.9453,-3.8569,-3.8173,-3.8173,-3.79,-3.7808,-3.7821,-3.8161,-3.8043,-3.7677,-3.8227,-3.807,-3.7456,-3.7352,-3.6871,-3.6045,-3.5775,-3.5302,-3.4489,-3.3814,-3.3408,-3.3264,-3.3223,-3.3281,-3.3281,-3.3799,-3.3185,-3.1389,-3.1856,-3.1973,-3.1711,-3.0675,-3.0171,-3.0308,0.0,0.0,0.0,0.0,0.0,0.0,0.0,0.0,0.0,0.0,0.0,-2.5665,-2.5391,-2.5371,-2.5655,-2.5593,-2.5601,-2.601,-2.5926,-2.5451,-2.4455,-2.512,-2.5829,-2.6164,-2.7242,-2.7969,-2.8109,-2.9219,-2.9622,-2.8763,-2.8835,-2.8597,-2.7779,-2.7603,-2.751,-2.7314,-2.7272,-2.7272,-2.7272,-2.7715,-2.7987,-2.8102,-2.9014,-2.968,-2.958,-3.0696,-3.198,-3.2998,-3.3201,-3.3201,-3.3201,-3.3201,-3.3086,-3.2815,-3.2327,-3.1728,-3.1019,-3.0407,-2.9975,-2.9652,-2.9642,-2.9715,-2.9953,-2.9994,-2.9994,-2.9994,-2.9994,-2.959,-2.8259,-2.7331,-2.6633,-4.9449,-4.8955,-4.6114,-4.4676,-4.4219,-4.3519,-4.3012,-4.2697,0.0,0.0,0.0,-3.9785,-3.946,-3.9379,-3.9069,-3.8836,-3.8769,-3.882,-3.8609,-3.8161,-3.8437,-3.8057,-3.7181,-3.6871,-3.6354,-3.575,-3.548,-3.5146,-3.4876,-3.4864,-3.4876,-3.4914,-3.5328,-3.5592,-3.5717,-3.6132,-3.535,-3.3335,-3.3419,-3.3299,-3.2838,-3.1786,-3.1412,-3.1821,-3.074,-3.0062,-2.9871,-2.9269,-2.8683,-2.7875,-2.7841,-2.747,-2.6768,-2.6689,-2.6472,-2.6032,-2.587,-2.6023,-2.6548,-2.6215,-2.6388,-2.7156,-2.7071,-2.6707,-2.5973,-2.6285,-2.6699,-2.69,-2.7615,-2.8253,-2.839,-2.9208,-2.9384,-2.8473,-2.8442,-2.8152,-2.7396,-2.7272,-2.7282,-2.7272,-2.7272,-2.7357,-2.762,-2.8164,-2.8806,-2.9035,-3.0101,-3.1009,-3.1171,-3.2054,-3.3062,-3.3829,-3.408,-3.3871,-3.3667,-3.3719,-3.3359,-3.3086,-3.2704,-3.2059,-3.0957,-3.0361,-2.9968,-2.9737,-2.9382,-2.9508,-2.9891,-2.9994,-2.9994,-2.9994,-2.9994,-2.9902,-2.9359,-2.8873,-2.8332,-5.0543,-4.909,-4.8075,-4.6349,-4.4312,-4.4139,-4.3296,-4.2127,-4.2046,-4.1896,-4.172,-4.091,-4.0172,-3.9715,-3.9256,-3.8793,-3.8317,-3.8149,-3.7965,0.0,-3.7978,-3.7939,-3.7782,-3.7481,-3.7245,-3.6878,-3.6574,-3.6067,-3.5466,-3.5336,-3.5441,-3.5349,-3.5424,-3.578,-3.6207,-3.632,-3.6225,-3.5817,-3.4952,-3.4466,-3.4334,-3.2822,-3.1956,-3.1859,-3.1331,-3.0495,-2.9515,-2.9382,-2.8947,-2.8113,-2.7852,-2.7965,-2.8377,-2.8232,-2.8352,-2.8771,-2.8272,-2.8046,-2.8089,-2.7442,-2.7379,-2.8113,-2.8757,-2.8341,-2.6597,-2.6658,-2.69,-2.6921,-2.7554,-2.7765,-2.7562,-2.8307,-2.8514,-2.7676,-2.781,-2.781,-2.7324,-2.7272,-2.7272,-2.7272,-2.7272,-2.7631,-2.8269,-2.8631,-2.9176,-2.9897,-3.0863,-3.2046,-3.3514,-3.5071,-3.5717,-3.5928,-3.5966,-3.5767,-3.5149,-3.5177,-3.4792,-3.4458,-3.3494,-3.2864,-3.2417,-3.1179,-3.0307,-3.0578,-2.9817,-2.9559,-2.987,-2.9994,-2.9994,-2.9994,-2.9994,-2.9901,-2.9787,-2.8901,-2.8061,-5.1019,-4.9877,-4.8741,-4.6977,-4.5052,-4.3965,-4.3353,-4.3133,-4.3105,-4.2371,-4.1275,-4.0481,-3.9986,-3.952,-3.8938,-3.8477,-3.8213,-3.7979,-3.79,-3.79,-3.79,-3.79,-3.79,-3.7505,-3.7214,-3.7108,-3.6734,-3.6326,-3.6006,-3.5994,-3.5981,-3.5981,-3.5981,-3.6107,-3.6332,-3.637,-3.637,-3.6345,-3.5579,-3.5303,-3.5567,-3.4274,-3.3633,-3.3833,-3.3321,-3.2698,-3.1846,-3.1846,-3.144,-3.0632,-3.0458,-3.0214,-2.9981,-2.9736,-2.9591,-2.9474,-2.922,-2.9035,-2.9035,-2.8817,-2.8817,-2.9371,-2.9738,-2.9543,-2.8609,-2.7998,-2.7736,-2.7831,-2.7944,-2.8036,-2.8413,-2.8509,-2.8349,-2.7696,-2.781,-2.7728,-2.7365,-2.7272,-2.7272,-2.7357,-2.7809,-2.8269,-2.8631,-2.9635,-3.0362,-3.1003,-3.1757,-3.2879,-3.4097,-3.4951,-3.5705,-3.6219,-3.6358,-3.6119,-3.5642,-3.5542,-3.519,-3.4437,-3.3903,-3.3203,-3.2521,-3.1343,-3.0541,-2.9365,-2.9271,-2.9812,-3.0034,-2.9985,-2.9973,-2.9994,-2.9994,-2.9942,-2.9425,-2.8239,-2.7132,-5.1436,-5.0549,-4.9273,-4.7762,-4.5973,-4.4247,-4.3801,-4.4144,-4.413,-4.3051,-4.1254,-4.061,-4.0224,-3.9838,-3.8832,-3.8254,-3.8148,-3.7979,-3.79,-3.79,-3.79,-3.79,-3.7808,-3.7307,-3.7108,-3.7015,-3.6546,-3.637,-3.637,-3.637,-3.637,-3.637,-3.637,-3.637,-3.637,-3.637,-3.637,-3.6332,-3.5818,-3.5742,-3.6132,-3.5102,-3.4738,-3.509,-3.4613,-3.4148,-3.3746,-3.3721,-3.3421,-3.2847,-3.2562,-3.2025,-3.1282,-3.1015,-3.0566,-3.0034,-2.984,-2.9749,-2.9658,-3.0,-3.026,-3.0441,-3.0621,-3.0633,-3.0351,-2.9646,-2.9013,-2.9035,-2.8664,-2.8784,-2.9365,-2.9192,-2.8718,-2.8187,-2.8327,-2.8275,-2.7778,-2.7799,-2.7987,-2.8081,-2.8631,-2.9084,-2.9543,-3.0633,-3.1536,-3.1937,-3.2584,-3.3295,-3.3784,-3.4172,-3.4785,-3.5642,-3.5994,-3.5717,-3.529,-3.5127,-3.4713,-3.3847,-3.3721,-3.3195,-3.2347,-3.1849,-3.1113,-2.9465,-2.9332,-2.9805,-2.9944,-2.9859,-2.9849,-2.9942,-2.9994,-2.962,-2.8767,-2.7622,-2.6557,-5.1852,-5.0774,-5.0519,-4.9189,-4.6974,-4.5958,-4.5191,-4.4714,-4.4479,-4.381,-4.2782,-4.2247,-4.174,-4.1077,-3.9376,-3.8318,-3.7913,-3.79,-3.79,-3.79,-3.79,-3.7808,-3.7505,-3.7214,-3.7002,-3.6709,-3.6534,-3.637,-3.637,-3.637,-3.637,-3.637,-3.637,-3.637,-3.6383,-3.637,-3.637,-3.6345,-3.583,-3.5567,-3.5542,-3.4537,-3.3997,-3.4035,-3.3533,-3.3206,-3.3194,-3.3156,-3.3131,-3.2995,-3.2649,-3.2388,-3.2213,-3.1837,-3.1572,-3.1484,-3.1015,-3.0621,-3.0272,-3.0812,-3.1158,-3.1247,-3.1825,-3.1925,-3.1258,-3.108,-3.0722,-3.0283,-3.0034,-2.9908,-3.0136,-3.0057,-2.9561,-2.8877,-2.9379,-2.9669,-2.8828,-2.9349,-2.9988,-2.9909,-2.9897,-3.0351,-3.0991,-3.1448,-3.1989,-3.2711,-3.2959,-3.3245,-3.3709,-3.3583,-3.3707,-3.456,-3.4876,-3.4675,-3.4274,-3.4073,-3.3897,-3.3345,-3.3181,-3.3057,-3.2736,-3.2125,-3.1586,-3.1576,-3.0393,-2.9656,-2.9658,-2.9672,-2.9539,-2.9797,-2.9723,-2.9339,-2.8329,-2.7632,-2.7003,-5.1913,-5.0713,-5.0697,-4.9352,-4.7193,-4.6226,-4.5594,-4.5201,-4.5084,-4.4806,-4.4235,-4.3242,-4.1957,-4.055,-3.8926,-3.8109,-3.7913,-3.79,-3.79,-3.79,-3.79,-3.7716,-3.7505,-3.7201,-3.7015,-3.6722,-3.6452,-3.637,-3.637,-3.637,-3.637,-3.637,-3.637,-3.6521,-3.6784,-3.6533,-3.6521,-3.681,-3.6307,-3.6019,-3.5893,-3.4951,-3.4387,-3.4336,-3.3847,-3.3407,-3.3119,-3.3081,-3.3081,-3.3081,-3.2649,-3.24,-3.24,-3.1937,-3.1661,-3.1661,-3.1649,-3.156,-3.1625,-3.1989,-3.2164,-3.2351,-3.2636,-3.2636,-3.2438,-3.2351,-3.2251,-3.1889,-3.089,-3.0441,-3.0902,-3.0531,-3.0,-2.9726,-2.9988,-3.0079,-2.9624,-2.9988,-3.017,-3.026,-3.0722,-3.1169,-3.1625,-3.2077,-3.2624,-3.3081,-3.3081,-3.3206,-3.3395,-3.3245,-3.3333,-3.3646,-3.3746,-3.3822,-3.3834,-3.3909,-3.3646,-3.3257,-3.3081,-3.3081,-3.2896,-3.2251,-3.1925,-3.2846,-3.0867,-2.9375,-2.9095,-2.9299,-2.9302,-2.9599,-2.9343,-2.8856,-2.8161,-2.7607,-2.6849,-5.1605,-5.0697,-5.0297,-4.9173,-4.7578,-4.6842,-4.6384,-4.6007,-4.5962,-4.5615,-4.5005,-4.3657,-4.1952,-4.0193,-3.8839,-3.8148,-3.79,-3.79,-3.79,-3.79,-3.79,-3.7703,-3.7413,-3.7214,-3.6909,-3.6628,-3.6452,-3.637,-3.637,-3.637,-3.6433,-3.6558,-3.6584,-3.6784,-3.7086,-3.6759,-3.6697,-3.6885,-3.6558,-3.6295,-3.6031,-3.5215,-3.4726,-3.4663,-3.4035,-3.3483,-3.3106,-3.3081,-3.3081,-3.3081,-3.2649,-3.24,-3.24,-3.1937,-3.1761,-3.1937,-3.2113,-3.2376,-3.281,-3.281,-3.2896,-3.3081,-3.3081,-3.3081,-3.3081,-3.3081,-3.3081,-3.2982,-3.1801,-3.1347,-3.1801,-3.1436,-3.0902,-3.0621,-3.0812,-3.089,-3.0621,-3.08,-3.1069,-3.108,-3.1625,-3.1989,-3.2077,-3.2612,-3.3081,-3.3081,-3.3081,-3.3081,-3.3081,-3.3093,-3.3106,-3.3081,-3.3106,-3.3257,-3.3596,-3.3633,-3.3445,-3.3269,-3.3081,-3.2982,-3.2797,-3.1989,-3.1401,-3.1642,-3.0045,-2.9031,-2.8505,-2.852,-2.8911,-2.9151,-2.9026,-2.8589,-2.8152,-2.754,-2.6744,-5.0759,-5.0513,-4.9266,-4.8644,-4.8521,-4.8423,-4.7987,-4.703,-4.6963,-4.607,-4.4629,-4.3563,-4.208,-4.0516,-3.959,-3.8715,-3.7979,-3.79,-3.79,-3.79,-3.79,-3.7611,-3.7121,-3.7108,-3.6828,-3.6452,-3.6465,-3.637,-3.637,-3.6395,-3.6634,-3.7098,-3.7111,-3.7149,-3.7211,-3.7111,-3.6885,-3.6546,-3.6408,-3.6119,-3.5604,-3.5039,-3.4726,-3.4587,-3.3684,-3.3131,-3.3081,-3.3081,-3.3081,-3.3081,-3.2661,-3.24,-3.24,-3.1937,-3.1925,-3.23,-3.255,-3.281,-3.2995,-3.3081,-3.3081,-3.3068,-3.3081,-3.3081,-3.3081,-3.3081,-3.3081,-3.3081,-3.2896,-3.2797,-3.2896,-3.2723,-3.2351,-3.1725,-3.2351,-3.2351,-3.1625,-3.2264,-3.2896,-3.281,-3.281,-3.2896,-3.2982,-3.3068,-3.3081,-3.3081,-3.3081,-3.3081,-3.3081,-3.3081,-3.3081,-3.3081,-3.3081,-3.3093,-3.3131,-3.3244,-3.3194,-3.3081,-3.2896,-3.2711,-3.2077,-3.1496,-3.1058,-3.0526,-2.9327,-2.8496,-2.7821,-2.7852,-2.8349,-2.8635,-2.8754,-2.8443,-2.8246,-2.7599,-2.6812,-5.1467,-5.0574,-4.9189,-4.8604,-4.8604,-4.8604,-4.7987,-4.7143,-4.7061,-4.604,-4.4533,-4.3976,-4.2655,-4.0603,-4.0246,-3.9326,-3.7979,-3.79,-3.79,-3.79,-3.79,-3.7611,-3.7121,-3.7108,-3.6828,-3.6452,-3.637,-3.637,-3.6408,-3.6709,-3.6973,-3.7136,-3.7186,-3.7349,-3.7525,-3.6985,-3.6709,-3.6835,-3.6558,-3.6094,-3.5542,-3.5002,-3.4562,-3.4186,-3.347,-3.3081,-3.3081,-3.3081,-3.3081,-3.3081,-3.2649,-3.24,-3.24,-3.2125,-3.2038,-3.2388,-3.255,-3.281,-3.3081,-3.3081,-3.3081,-3.3081,-3.3081,-3.3081,-3.3081,-3.3081,-3.3081,-3.3081,-3.3081,-3.3081,-3.3081,-3.3081,-3.2995,-3.2723,-3.2896,-3.2982,-3.2711,-3.2896,-3.3081,-3.3081,-3.3081,-3.3081,-3.3081,-3.3081,-3.3081,-3.3081,-3.3081,-3.3081,-3.3081,-3.3081,-3.3081,-3.3081,-3.3081,-3.3081,-3.3081,-3.3093,-3.3081,-3.2896,-3.2711,-3.2164,-3.1625,-3.0362,-2.969,-2.9858,-2.8794,-2.7915,-2.7225,-2.7653,-2.8081,-2.8306,-2.8404,-2.8455,-2.8357,-2.7885,-2.7085,-5.1067,-4.9959,-4.9004,-4.8604,-4.862,-4.8537,-4.8042,-4.7281,-4.6955,-4.5981,-4.4736,-4.4407,-4.2919,-4.0916,-4.0589,-3.959,-3.7979,-3.79,-3.79,-3.79,-3.79,-3.7611,-3.7214,-3.7108,-3.6828,-3.6465,-3.637,-3.637,-3.6395,-3.6747,-3.6998,-3.7174,-3.7186,-3.7362,-3.755,-3.6985,-3.6759,-3.6835,-3.6546,-3.6019,-3.5341,-3.4926,-3.4361,-3.3709,-3.3269,-3.3081,-3.3081,-3.2995,-3.2982,-3.2896,-3.2562,-3.23,-3.23,-3.2201,-3.2288,-3.2475,-3.2723,-3.2909,-3.3081,-3.3081,-3.3081,-3.3081,-3.3081,-3.3081,-3.3081,-3.3081,-3.3081,-3.3081,-3.3081,-3.3081,-3.3081,-3.3081,-3.3081,-3.3081,-3.3081,-3.3081,-3.3081,-3.3081,-3.3081,-3.3081,-3.3081,-3.3081,-3.3081,-3.3081,-3.3081,-3.3081,-3.3081,-3.3081,-3.3081,-3.3081,-3.3081,-3.3081,-3.3081,-3.3081,-3.3081,-3.2995,-3.3068,-3.2884,-3.2251,-3.1713,-3.0902,-2.9635,-2.8779,-2.8943,-2.838,-2.7486,-2.717,-2.7491,-2.7815,-2.8038,-2.8259,-2.8378,-2.8251,-2.8325,-2.7539,-4.9343,-4.8804,-4.8604,-4.8573,-4.8521,-4.8293,-4.8157,-4.7706,-4.6924,-4.6064,-4.502,-4.4571,-4.2904,-4.0944,-4.0589,-3.959,-3.8161,-3.79,-3.79,-3.79,-3.79,-3.7611,-3.7108,-3.7108,-3.6828,-3.6465,-3.637,-3.637,-3.637,-3.6496,-3.6759,-3.7123,-3.7186,-3.7211,-3.7211,-3.7086,-3.6847,-3.6508,-3.6332,-3.5793,-3.4876,-3.4688,-3.4161,-3.3269,-3.3093,-3.3081,-3.3081,-3.2896,-3.2711,-3.2711,-3.2288,-3.205,-3.2125,-3.2376,-3.2624,-3.2723,-3.2896,-3.3068,-3.3081,-3.3081,-3.3081,-3.3081,-3.3081,-3.3081,-3.3081,-3.3081,-3.3081,-3.3081,-3.3081,-3.3081,-3.3081,-3.3081,-3.3081,-3.3081,-3.3081,-3.3081,-3.3081,-3.3081,-3.3081,-3.3081,-3.3081,-3.3081,-3.3081,-3.3081,-3.3081,-3.3081,-3.3081,-3.3081,-3.3081,-3.3081,-3.3081,-3.3081,-3.2995,-3.2995,-3.2982,-3.2896,-3.2982,-3.2797,-3.2077,-3.1347,-3.0441,-2.9268,-2.8384,-2.8241,-2.784,-2.6966,-2.6884,-2.7268,-2.7589,-2.7924,-2.8018,-2.8252,-2.831,-2.8288,-2.8081,-4.9558,-4.9235,-4.8312,-4.8122,-4.8278,-4.7812,-4.7433,-4.7068,-4.6659,-4.58,-4.4721,-4.4407,-4.2904,-4.1043,-4.0589,-3.959,-3.7992,-3.79,-3.79,-3.79,-3.79,-3.7703,-3.7413,-3.7201,-3.6828,-3.6452,-3.637,-3.637,-3.6433,-3.6722,-3.7036,-3.7161,-3.7174,-3.7186,-3.7149,-3.6822,-3.6508,-3.6358,-3.5981,-3.5429,-3.4751,-3.4349,-3.3796,-3.3181,-3.3081,-3.3081,-3.3081,-3.2797,-3.2711,-3.2711,-3.2288,-3.205,-3.2125,-3.2463,-3.2711,-3.2723,-3.2982,-3.3081,-3.3081,-3.3081,-3.3081,-3.3081,-3.3081,-3.3081,-3.3081,-3.3081,-3.3081,-3.3081,-3.3081,-3.3081,-3.3081,-3.3081,-3.3081,-3.3081,-3.3081,-3.3081,-3.3081,-3.3081,-3.3081,-3.3081,-3.3081,-3.3081,-3.3081,-3.3081,-3.3081,-3.3081,-3.3081,-3.3081,-3.3081,-3.3081,-3.2995,-3.2896,-3.281,-3.286,-3.2847,-3.2773,-3.2748,-3.2586,-3.1946,-3.1181,-3.026,-2.9371,-2.8384,-2.7757,-2.7262,-2.7148,-2.7063,-2.7258,-2.7722,-2.7949,-2.8186,-2.8278,-2.8339,-2.8377,-2.841,-4.9297,-4.9158,-4.7999,-4.7671,-4.7828,-4.7052,-4.6516,-4.6207,-4.5883,-4.5229,-4.4377,-4.4047,-4.296,-4.1353,-4.0774,-3.9752,-3.8485,-3.807,-3.79,-3.79,-3.79,-3.7808,-3.7505,-3.7108,-3.6734,-3.6452,-3.637,-3.637,-3.6383,-3.6684,-3.6872,-3.686,-3.6872,-3.6872,-3.686,-3.6546,-3.637,-3.6307,-3.6031,-3.5491,-3.4813,-3.4387,-3.3847,-3.3206,-3.3081,-3.3081,-3.3081,-3.281,-3.2624,-3.255,-3.2288,-3.2213,-3.2288,-3.2636,-3.281,-3.2896,-3.2982,-3.3081,-3.3081,-3.3081,-3.3081,-3.3081,-3.3081,-3.3081,-3.3081,-3.3081,-3.3081,-3.3081,-3.3081,-3.3081,-3.3081,-3.3081,-3.3081,-3.3081,-3.3081,-3.3081,-3.3081,-3.3081,-3.3081,-3.3081,-3.3081,-3.3081,-3.3081,-3.3081,-3.3081,-3.3068,-3.2982,-3.2982,-3.2909,-3.2909,-3.2736,-3.2636,-3.2636,-3.2661,-3.2758,-3.2671,-3.2533,-3.2204,-3.1884,-3.121,-3.0441,-2.9646,-2.8757,-2.8189,-2.77,-2.8146,-2.8102,-2.8228,-2.8551,-2.8435,-2.8743,-2.8925,-2.9242,-2.9363,-2.9242,-4.8558,-4.8398,-4.7528,-4.714,-4.7058,-4.6122,-4.5686,-4.5499,-4.4758,-4.4347,-4.4107,-4.3658,-4.2879,-4.1908,-4.1127,-4.026,-3.9299,-3.8472,-3.8148,-3.807,-3.7979,-3.7795,-3.7505,-3.7002,-3.6722,-3.6452,-3.6465,-3.637,-3.637,-3.6433,-3.637,-3.6433,-3.6445,-3.6383,-3.6433,-3.637,-3.637,-3.6358,-3.6282,-3.5705,-3.4851,-3.4625,-3.4173,-3.3232,-3.3194,-3.3156,-3.3081,-3.281,-3.2636,-3.2475,-3.2388,-3.2475,-3.2723,-3.2982,-3.3068,-3.3068,-3.3081,-3.3081,-3.3081,-3.3081,-3.3081,-3.3081,-3.3081,-3.3081,-3.3081,-3.3081,-3.3081,-3.3081,-3.3081,-3.3081,-3.3081,-3.3081,-3.3081,-3.3081,-3.3081,-3.3081,-3.3081,-3.3081,-3.3081,-3.3081,-3.3081,-3.3081,-3.3081,-3.3081,-3.3081,-3.2995,-3.281,-3.2723,-3.2636,-3.2649,-3.2475,-3.2388,-3.2388,-3.2533,-3.2552,-3.2601,-3.2487,-3.2406,-3.2105,-3.1715,-3.0819,-2.9942,-2.9234,-2.8739,-2.8732,-2.9072,-2.9409,-2.9572,-2.9803,-3.0092,-3.0208,-3.0335,-3.0244,-3.0266,-3.0088,-4.7881,-4.7758,-4.6379,-4.602,-4.6179,-4.5263,-4.4815,-4.4653,-4.4392,-4.4018,-4.3643,-4.3419,-4.282,-4.1976,-4.1728,-4.1127,-4.0159,-3.9299,-3.8881,-3.8715,-3.8148,-3.7782,-3.7505,-3.7201,-3.6815,-3.6628,-3.6452,-3.637,-3.637,-3.637,-3.637,-3.637,-3.637,-3.637,-3.637,-3.637,-3.637,-3.6295,-3.5943,-3.568,-3.5278,-3.4537,-3.3997,-3.3771,-3.3684,-3.3483,-3.3144,-3.281,-3.2636,-3.2388,-3.255,-3.2624,-3.2711,-3.2995,-3.3081,-3.3081,-3.3081,-3.3081,-3.3081,-3.3081,-3.3081,-3.3081,-3.3081,-3.3081,-3.3081,-3.3081,-3.3081,-3.3081,-3.3081,-3.3081,-3.3081,-3.3081,-3.3081,-3.3081,-3.3081,-3.3081,-3.3081,-3.3081,-3.3081,-3.3081,-3.3081,-3.3081,-3.3081,-3.2982,-3.281,-3.281,-3.2636,-3.2475,-3.2475,-3.2376,-3.23,-3.2125,-3.2086,-3.2289,-3.2418,-3.2478,-3.2473,-3.2605,-3.2556,-3.2516,-3.1447,-3.0376,-2.9731,-2.918,-2.9978,-3.0417,-3.0745,-3.1081,-3.1348,-3.1672,-3.1838,-3.1891,-3.1429,-3.1187,-3.1197,-4.7865,-4.7511,-4.6226,-4.5685,-4.5475,-4.4584,-4.4073,-4.3898,-4.3898,-4.3703,-4.3389,-4.3344,-4.2996,-4.2578,-4.2155,-4.1728,-4.1127,-4.0246,-3.9798,-3.9738,-3.9326,-3.8549,-3.7756,-3.7201,-3.7002,-3.6722,-3.6452,-3.6465,-3.637,-3.637,-3.637,-3.637,-3.637,-3.637,-3.637,-3.637,-3.637,-3.6307,-3.6031,-3.5793,-3.5491,-3.4951,-3.45,-3.4324,-3.4236,-3.406,-3.3784,-3.3371,-3.3059,-3.2798,-3.2723,-3.2723,-3.2896,-3.2995,-3.3081,-3.3081,-3.3081,-3.3081,-3.3081,-3.3081,-3.3081,-3.3081,-3.3081,-3.3081,-3.3081,-3.3081,-3.3081,-3.3081,-3.3081,-3.3081,-3.3081,-3.3081,-3.3081,-3.3081,-3.3081,-3.3081,-3.3081,-3.3081,-3.3081,-3.3081,-3.3081,-3.3068,-3.2995,-3.281,-3.2636,-3.255,-3.2388,-3.23,-3.2213,-3.2213,-3.2113,-3.1937,-3.1922,-3.2164,-3.2364,-3.2485,-3.2839,-3.2996,-3.3035,-3.2993,-3.244,-3.1333,-3.0947,-3.0768,-3.1326,-3.1852,-3.2237,-3.2608,-3.263,-3.291,-3.3204,-3.3126,-3.2622,-3.2286,-3.2185,-4.8112,-4.7434,-4.6548,-4.5715,-4.4853,-4.4025,-4.3672,-4.3374,-4.3389,-4.3374,-4.3344,-4.3344,-4.325,-4.325,-4.2578,-4.2155,-4.2073,-4.1212,-4.0689,-4.0504,-4.0246,-3.9563,-3.8277,-3.7651,-3.7176,-3.6815,-3.6534,-3.6452,-3.637,-3.637,-3.637,-3.637,-3.637,-3.637,-3.637,-3.637,-3.637,-3.637,-3.632,-3.6081,-3.5755,-3.5466,-3.5152,-3.4851,-3.4638,-3.47,-3.4575,-3.4274,-3.3759,-3.3194,-3.2934,-3.2884,-3.3081,-3.3081,-3.3081,-3.3081,-3.3081,-3.3081,-3.3081,-3.3081,-3.3081,-3.3081,-3.3081,-3.3081,-3.3081,-3.3081,-3.3081,-3.3081,-3.3081,-3.3081,-3.3081,-3.3081,-3.3081,-3.3081,-3.3081,-3.3081,-3.3081,-3.3081,-3.3081,-3.3081,-3.3081,-3.2896,-3.281,-3.2624,-3.255,-3.2288,-3.2125,-3.2038,-3.195,-3.1937,-3.1849,-3.1761,-3.1858,-3.199,-3.2202,-3.2491,-3.3092,-3.3537,-3.3669,-3.3659,-3.3539,-3.2771,-3.2371,-3.2345,-3.2718,-3.3309,-3.3915,-3.408,-3.3871,-3.3993,-3.4075,-3.3953,-3.361,-3.34,-3.33,-4.7419,-4.6757,-4.5859,-4.5122,-4.4464,-4.3907,-4.369,-4.3596,-4.3359,-4.3374,-4.3344,-4.3344,-4.3344,-4.325,-4.309,-4.2996,-4.285,-4.2087,-4.1365,-4.0589,-4.0589,-4.0418,-3.9678,-3.8922,-3.7821,-3.7188,-3.664,-3.6465,-3.637,-3.637,-3.637,-3.637,-3.637,-3.637,-3.637,-3.637,-3.637,-3.637,-3.637,-3.6307,-3.6119,-3.5768,-3.5529,-3.5341,-3.5002,-3.5002,-3.519,-3.4839,-3.4299,-3.3784,-3.3357,-3.3107,-3.3156,-3.3131,-3.3169,-3.3194,-3.3131,-3.3106,-3.3093,-3.3106,-3.3081,-3.3081,-3.3081,-3.3081,-3.3081,-3.3081,-3.3081,-3.3081,-3.3081,-3.3081,-3.3081,-3.3081,-3.3081,-3.3081,-3.3081,-3.3081,-3.3081,-3.3081,-3.3081,-3.3081,-3.2896,-3.2723,-3.2723,-3.2376,-3.2213,-3.2125,-3.195,-3.1761,-3.1761,-3.1749,-3.1749,-3.1661,-3.1709,-3.1853,-3.2142,-3.2527,-3.32,-3.3801,-3.4054,-3.4222,-3.4102,-3.3839,-3.3351,-3.3529,-3.4066,-3.4559,-3.4799,-3.4726,-3.4397,-3.4617,-3.4823,-3.4519,-3.4311,-3.4311,-3.4355,-4.7219,-4.6542,-4.5802,-4.4971,-4.4234,-4.4228,-4.404,-4.3623,-4.3688,-4.3614,-4.3374,-4.3344,-4.3344,-4.3344,-4.3344,-4.3265,-4.3339,-4.3175,-4.3031,-4.2731,-4.2545,-4.2249,-4.1795,-4.0687,-3.9509,-3.7965,-3.6828,-3.6452,-3.637,-3.6383,-3.637,-3.637,-3.637,-3.637,-3.637,-3.637,-3.637,-3.637,-3.637,-3.637,-3.6295,-3.6107,-3.5931,-3.5906,-3.5642,-3.5655,-3.5855,-3.5391,-3.5002,-3.4613,-3.4135,-3.3709,-3.3495,-3.347,-3.3583,-3.3796,-3.3571,-3.3483,-3.3445,-3.3232,-3.3081,-3.3106,-3.3093,-3.3081,-3.3081,-3.3081,-3.3081,-3.3081,-3.3081,-3.3081,-3.3081,-3.3081,-3.3081,-3.3081,-3.3081,-3.3081,-3.3081,-3.3081,-3.3081,-3.2896,-3.281,-3.255,-3.2376,-3.2125,-3.195,-3.195,-3.1849,-3.1761,-3.1761,-3.1749,-3.1749,-3.1661,-3.1661,-3.1793,-3.2082,-3.2563,-3.3248,-3.3837,-3.4306,-3.4487,-3.4547,-3.4366,-3.4066,-3.4306,-3.4523,-3.4643,-3.4811,-3.4811,-3.4823,-3.4823,-3.4823,-3.4823,-3.4714,-3.4617,-3.4757,-4.7142,-4.6388,-4.5834,-4.5048,-4.4295,-4.4749,-4.4406,-4.3638,-4.4018,-4.3883,-4.3434,-4.3344,-4.3344,-4.3344,-4.3344,-4.3374,-4.3599,-4.3743,-4.3983,-4.4682,-4.3901,-4.3563,-4.321,-4.2209,-4.096,-3.9016,-3.7622,-3.7019,-3.6742,-3.6553,-3.6445,-3.6471,-3.6383,-3.637,-3.637,-3.637,-3.637,-3.637,-3.637,-3.637,-3.637,-3.632,-3.6307,-3.627,-3.6245,-3.6207,-3.6194,-3.5893,-3.5604,-3.5437,-3.5102,-3.4638,-3.4274,-3.406,-3.4198,-3.465,-3.4236,-3.406,-3.3972,-3.3684,-3.3432,-3.3332,-3.337,-3.3382,-3.3407,-3.3345,-3.3282,-3.3206,-3.3181,-3.3081,-3.3081,-3.3081,-3.3081,-3.3081,-3.3081,-3.3081,-3.3081,-3.3068,-3.2896,-3.2723,-3.255,-3.2376,-3.2201,-3.195,-3.1862,-3.1761,-3.1761,-3.1661,-3.1661,-3.1661,-3.1661,-3.1661,-3.1661,-3.1661,-3.1913,-3.2346,-3.3068,-3.3513,-3.4126,-3.439,-3.4607,-3.4607,-3.4438,-3.4619,-3.4751,-3.4811,-3.4811,-3.4811,-3.4823,-3.4823,-3.4823,-3.4823,-3.4823,-3.4823,-3.5136,-4.688,-4.5741,-4.5634,-4.5187,-4.4588,-4.4858,-4.461,-4.3998,-4.4208,-4.3943,-4.3404,-4.3344,-4.3344,-4.3344,-4.3344,-4.3614,-4.3913,-4.3943,-4.4257,-4.493,-4.4272,-4.3708,-4.3838,-4.3081,-4.2038,-4.1128,-3.9634,-3.8398,-3.7589,-3.6897,-3.6671,-3.686,-3.6571,-3.637,-3.637,-3.637,-3.637,-3.637,-3.637,-3.637,-3.637,-3.637,-3.637,-3.637,-3.637,-3.637,-3.637,-3.627,-3.6031,-3.5604,-3.5454,-3.5366,-3.5228,-3.4901,-3.4788,-3.4788,-3.4713,-3.4587,-3.455,-3.4474,-3.4424,-3.4449,-3.4349,-3.4374,-3.4286,-3.4035,-3.3796,-3.3646,-3.3382,-3.3106,-3.3081,-3.3131,-3.3093,-3.3093,-3.3093,-3.3081,-3.3068,-3.2896,-3.2723,-3.2636,-3.2376,-3.2113,-3.195,-3.1862,-3.1761,-3.1761,-3.1761,-3.1661,-3.1661,-3.1661,-3.1661,-3.1661,-3.1661,-3.1661,-3.1721,-3.219,-3.2719,-3.2984,-3.3452,-3.3801,-3.4102,-3.4535,-3.4691,-3.4788,-3.4763,-3.4811,-3.4811,-3.4823,-3.4823,-3.4823,-3.4823,-3.4823,-3.4823,-3.4847,-3.51,-4.6188,-4.5557,-4.5218,-4.4803,-4.4588,-4.4937,-4.4822,-4.4406,-4.4394,-4.4218,-4.3808,-4.3509,-4.3344,-4.3344,-4.3344,-4.3703,-4.4047,-4.4047,-4.4421,-4.4915,-4.4362,-4.402,-4.4377,-4.3653,-4.3228,-4.2669,-4.1686,-4.0187,-3.8781,-3.7475,-3.7094,-3.696,-3.6634,-3.637,-3.637,-3.637,-3.6452,-3.6452,-3.6452,-3.6452,-3.6452,-3.6465,-3.6465,-3.6452,-3.6465,-3.637,-3.637,-3.637,-3.6257,-3.6094,-3.6245,-3.6358,-3.6282,-3.6132,-3.5843,-3.5579,-3.5328,-3.5165,-3.5077,-3.4939,-3.47,-3.47,-3.4751,-3.4726,-3.4675,-3.4462,-3.4324,-3.4186,-3.3859,-3.3621,-3.3922,-3.3445,-3.3257,-3.3382,-3.3282,-3.3032,-3.2896,-3.2736,-3.2574,-3.2412,-3.2237,-3.2062,-3.1849,-3.1761,-3.1761,-3.1661,-3.1661,-3.1661,-3.1661,-3.1661,-3.1661,-3.1661,-3.1661,-3.1661,-3.1709,-3.2046,-3.2358,-3.2587,-3.2899,-3.3248,-3.3597,-3.4042,-3.445,-3.4787,-3.48,-3.4799,-3.4823,-3.4823,-3.4823,-3.4823,-3.4823,-3.4823,-3.4823,-3.4907,-3.5124,-4.5588,-4.5541,-4.4864,-4.4511,-4.4481,-4.4952,-4.5069,-4.472,-4.4529,-4.4449,-4.4227,-4.3658,-4.3344,-4.3344,-4.3404,-4.3673,-4.4257,-4.4182,-4.4511,-4.4975,-4.4407,-4.4162,-4.4501,-4.4417,-4.4064,-4.3641,-4.3188,-4.2361,-4.0489,-3.8633,-3.7922,-3.7884,-3.7318,-3.6805,-3.6937,-3.7253,-3.6947,-3.6989,-3.6989,-3.6989,-3.6989,-3.6815,-3.6722,-3.6666,-3.6647,-3.6508,-3.6383,-3.6546,-3.6471,-3.6508,-3.6759,-3.7136,-3.7199,-3.7287,-3.7086,-3.6571,-3.6107,-3.5931,-3.5793,-3.5604,-3.5479,-3.5504,-3.519,-3.5102,-3.5039,-3.5039,-3.4826,-3.4675,-3.4374,-3.4186,-3.4374,-3.3935,-3.3671,-3.3646,-3.3408,-3.3033,-3.281,-3.2636,-3.2435,-3.2259,-3.2059,-3.1922,-3.1797,-3.1761,-3.1749,-3.1661,-3.1661,-3.1661,-3.1661,-3.1661,-3.1661,-3.1661,-3.1661,-3.1661,-3.1745,-3.1913,-3.2106,-3.2178,-3.2527,-3.2899,-3.3212,-3.3549,-3.3944,-3.4401,-3.474,-3.4823,-3.4823,-3.4823,-3.4823,-3.4823,-3.4823,-3.4823,-3.4823,-3.4835,-3.4968,-4.5588,-4.5511,-4.4864,-4.4572,-4.4603,-4.4906,-4.5054,-4.4895,-4.4529,-4.4317,-4.4272,-4.3658,-4.3344,-4.3344,-4.3344,-4.3718,-4.3973,-4.3853,-4.4107,-4.4751,-4.4062,-4.3832,-4.4244,-4.3974,-4.4299,-4.4298,-4.3816,-4.311,-4.1978,-4.0314,-3.9485,-3.9466,-3.8696,-3.8298,-3.8165,-3.8582,-3.8854,-3.8868,-3.8792,-3.8778,-3.8599,-3.8004,-3.7677,-3.7477,-3.7197,-3.681,-3.6496,-3.6697,-3.6822,-3.6471,-3.6885,-3.7161,-3.7262,-3.7676,-3.7563,-3.7262,-3.7023,-3.6985,-3.6872,-3.6596,-3.6634,-3.6496,-3.6307,-3.6194,-3.5918,-3.5617,-3.5278,-3.4751,-3.465,-3.4738,-3.4851,-3.46,-3.4324,-3.4022,-3.3758,-3.3308,-3.2934,-3.2941,-3.2686,-3.2313,-3.2236,-3.1966,-3.1757,-3.1709,-3.1661,-3.1661,-3.1661,-3.1661,-3.1661,-3.1661,-3.1661,-3.1661,-3.1661,-3.1661,-3.1673,-3.1865,-3.1913,-3.1901,-3.2166,-3.2539,-3.2851,-3.3176,-3.3525,-3.3909,-3.4414,-3.4799,-3.4823,-3.4823,-3.4823,-3.4823,-3.4823,-3.4823,-3.4823,-3.4847,-3.4871,-4.5018,-4.5018,-4.511,-4.491,-4.4633,-4.4757,-4.4861,-4.4853,-4.4406,-4.4213,-4.4137,-4.3629,-4.3344,-4.3344,-4.3344,-4.3479,-4.3658,-4.3464,-4.3584,-4.4107,-4.3703,-4.3623,-4.4058,-4.4241,-4.4461,-4.4806,-4.489,-4.4886,-4.3696,-4.1773,-4.0174,-4.0284,-3.9708,-3.9141,-3.9399,-3.9984,-3.9947,-3.9861,-3.9712,-3.9536,-3.9119,-3.8671,-3.8109,-3.7769,-3.747,-3.6956,-3.6684,-3.6872,-3.6897,-3.6584,-3.6885,-3.7349,-3.7588,-3.7889,-3.7965,-3.8228,-3.8153,-3.7826,-3.7262,-3.696,-3.7161,-3.7299,-3.6923,-3.6332,-3.6307,-3.6144,-3.5931,-3.5705,-3.5353,-3.5316,-3.5366,-3.5052,-3.4823,-3.4532,-3.4115,-3.3699,-3.331,-3.3277,-3.3089,-3.2732,-3.2364,-3.2034,-3.1817,-3.1709,-3.1661,-3.1661,-3.1661,-3.1661,-3.1661,-3.1661,-3.1661,-3.1661,-3.1661,-3.1661,-3.1661,-3.1745,-3.1769,-3.1769,-3.1805,-3.2178,-3.2503,-3.2839,-3.3263,-3.3755,-3.4294,-3.457,-3.4775,-3.4823,-3.4823,-3.4823,-3.4823,-3.4823,-3.4823,-3.4823,-3.4992,-4.4479,-4.4402,-4.5064,-4.4941,-4.4356,-4.4434,-4.4679,-4.4868,-4.4134,-4.3957,-4.4083,-4.3643,-4.3344,-4.3344,-4.3344,-4.3374,-4.3359,-4.3344,-4.3344,-4.3359,-4.3474,-4.3802,-4.4132,-4.4448,-4.4829,-4.5361,-4.5287,-4.5425,-4.4804,-4.3225,-4.1635,-4.1306,-4.118,-4.079,-4.079,-4.1421,-4.175,-4.1472,-4.1146,-4.0678,-3.9987,-3.9304,-3.8688,-3.8197,-3.7756,-3.7337,-3.6948,-3.7362,-3.7387,-3.7061,-3.7412,-3.7927,-3.8191,-3.8467,-3.8442,-3.8567,-3.853,-3.8329,-3.7739,-3.74,-3.75,-3.7563,-3.7249,-3.6584,-3.6358,-3.637,-3.6358,-3.6232,-3.5994,-3.6006,-3.6081,-3.5474,-3.5219,-3.4922,-3.4576,-3.4115,-3.3759,-3.355,-3.3228,-3.2702,-3.2322,-3.2106,-3.1901,-3.1733,-3.1661,-3.1661,-3.1661,-3.1661,-3.1661,-3.1661,-3.1661,-3.1661,-3.1661,-3.1661,-3.1661,-3.1661,-3.1661,-3.1733,-3.1769,-3.1985,-3.243,-3.2891,-3.3479,-3.3839,-3.4246,-3.4546,-3.4811,-3.4823,-3.4823,-3.4823,-3.4823,-3.4823,-3.4823,-3.4823,-3.516,-4.4218,-4.3694,-4.4356,-4.4279,-4.3725,-4.3945,-4.443,-4.4822,-4.3852,-4.3768,-4.4092,-4.3673,-4.3344,-4.3344,-4.3344,-4.3344,-4.3344,-4.3344,-4.3344,-4.3539,-4.3913,-4.4131,-4.4467,-4.4709,-4.5032,-4.552,-4.5507,-4.5607,-4.5541,-4.4627,-4.3878,-4.3864,-4.292,-4.3018,-4.3083,-4.3149,-4.3469,-4.3169,-4.2796,-4.2091,-4.1207,-4.0368,-3.9428,-3.8812,-3.8617,-3.8492,-3.7952,-3.8304,-3.8291,-3.7739,-3.8103,-3.8492,-3.8655,-3.8969,-3.8906,-3.8693,-3.8831,-3.8655,-3.8241,-3.8165,-3.8542,-3.8417,-3.7839,-3.6885,-3.642,-3.637,-3.637,-3.637,-3.6207,-3.6245,-3.6238,-3.6068,-3.5543,-3.5182,-3.4834,-3.4393,-3.4023,-3.3772,-3.3389,-3.2719,-3.2418,-3.2298,-3.1901,-3.1721,-3.1661,-3.1661,-3.1661,-3.1661,-3.1661,-3.1661,-3.1661,-3.1661,-3.1661,-3.1661,-3.1661,-3.1661,-3.1661,-3.1841,-3.1973,-3.2214,-3.2551,-3.3059,-3.3719,-3.3935,-3.4294,-3.457,-3.4823,-3.4823,-3.4823,-3.4823,-3.4823,-3.4823,-3.4823,-3.4823,-3.5352,-4.3587,-4.3048,-4.3694,-4.3802,-4.3618,-4.4143,-4.4357,-4.4306,-4.3938,-4.3687,-4.3718,-4.3449,-4.3344,-4.3344,-4.3344,-4.3344,-4.3344,-4.3344,-4.3344,-4.3554,-4.3943,-4.4496,-4.4795,-4.5253,-4.5779,-4.5976,-4.5844,-4.5636,-4.5747,-4.5398,-4.5398,-4.5072,-4.4387,-4.4003,-4.4054,-4.4392,-4.4515,-4.4297,-4.3701,-4.2824,-4.2041,-4.0922,-3.9902,-3.9177,-3.885,-3.863,-3.8165,-3.858,-3.8442,-3.8278,-3.8341,-3.8605,-3.8894,-3.9182,-3.9145,-3.8944,-3.9182,-3.9132,-3.8843,-3.8605,-3.8203,-3.7902,-3.7638,-3.7299,-3.6483,-3.637,-3.637,-3.637,-3.6275,-3.6181,-3.6098,-3.5895,-3.5581,-3.5255,-3.4929,-3.4605,-3.4364,-3.4088,-3.3669,-3.314,-3.2839,-3.2647,-3.2166,-3.1673,-3.1661,-3.1661,-3.1661,-3.1661,-3.1661,-3.1661,-3.1661,-3.1661,-3.1661,-3.1661,-3.1661,-3.1661,-3.1685,-3.1937,-3.2214,-3.2599,-3.2971,-3.344,-3.3923,-3.421,-3.433,-3.4618,-3.4823,-3.4823,-3.4823,-3.4823,-3.4823,-3.4823,-3.4823,-3.4823,-3.5388,-4.291,-4.2402,-4.3002,-4.3402,-4.3648,-4.4219,-4.4281,-4.4065,-4.391,-4.366,-4.3329,-4.3344,-4.3344,-4.3344,-4.3344,-4.3344,-4.3344,-4.3344,-4.3344,-4.3673,-4.4212,-4.4811,-4.5356,-4.5873,-4.6312,-4.6535,-4.6314,-4.6135,-4.588,-4.588,-4.579,-4.5595,-4.5201,-4.4869,-4.4861,-4.4996,-4.5169,-4.4977,-4.3987,-4.3062,-4.22,-4.0803,-3.9816,-3.9272,-3.8981,-3.8944,-3.873,-3.9007,-3.8981,-3.8755,-3.8693,-3.8793,-3.8981,-3.9157,-3.9245,-3.9421,-3.9584,-3.9622,-3.927,-3.8806,-3.8015,-3.7776,-3.7575,-3.7174,-3.6646,-3.637,-3.6275,-3.6275,-3.5991,-3.592,-3.5837,-3.562,-3.5416,-3.5185,-3.5005,-3.4703,-3.4607,-3.4354,-3.4006,-3.3597,-3.3308,-3.2971,-3.2791,-3.2322,-3.1997,-3.1889,-3.1661,-3.1661,-3.1661,-3.1661,-3.1661,-3.1661,-3.1661,-3.1661,-3.1661,-3.1889,-3.2118,-3.2322,-3.2647,-3.3128,-3.3549,-3.3958,-3.4258,-3.4438,-3.4618,-3.4799,-3.4823,-3.4823,-3.4823,-3.4823,-3.4823,-3.4823,-3.4823,-3.4871,-3.5244,-4.2309,-4.174,-4.2417,-4.3048,-4.3679,-4.4083,-4.4205,-4.3988,-4.3754,-4.3581,-4.3344,-4.3374,-4.3374,-4.3374,-4.3419,-4.3449,-4.3374,-4.3389,-4.3449,-4.3733,-4.4736,-4.5229,-4.5684,-4.6215,-4.6695,-4.655,-4.6403,-4.6135,-4.588,-4.588,-4.588,-4.588,-4.5685,-4.5685,-4.579,-4.5866,-4.5851,-4.557,-4.4089,-4.293,-4.1829,-4.043,-3.9548,-3.9182,-3.9133,-3.9107,-3.932,-3.9408,-3.9421,-3.9358,-3.9346,-3.9433,-3.9509,-3.9559,-3.9433,-3.912,-3.9496,-3.9433,-3.8994,-3.8868,-3.8429,-3.7826,-3.7487,-3.6964,-3.6488,-3.6231,-3.6115,-3.6202,-3.5936,-3.5682,-3.5549,-3.5465,-3.5308,-3.5151,-3.4957,-3.4969,-3.4775,-3.4631,-3.427,-3.3909,-3.3573,-3.3284,-3.3272,-3.3068,-3.2551,-3.2202,-3.1805,-3.1721,-3.1853,-3.1973,-3.2094,-3.2118,-3.2142,-3.2142,-3.2238,-3.237,-3.2563,-3.2743,-3.3044,-3.3513,-3.3933,-3.4294,-3.4571,-3.4787,-3.4823,-3.4823,-3.4823,-3.4823,-3.4823,-3.4823,-3.4823,-3.4823,-3.4823,-3.4931,-3.5292,-4.3125,-4.2925,-4.3156,-4.3618,-4.4218,-4.4236,-4.4205,-4.3988,-4.3596,-4.3423,-4.3449,-4.3748,-4.3688,-4.3569,-4.3763,-4.3793,-4.3494,-4.3898,-4.3988,-4.4152,-4.5319,-4.5828,-4.6177,-4.6554,-4.6931,-4.6683,-4.6491,-4.6225,-4.588,-4.588,-4.588,-4.588,-4.588,-4.588,-4.588,-4.588,-4.5671,-4.4776,-4.3634,-4.248,-4.1484,-4.0327,-3.9525,-3.9371,-3.9358,-3.9446,-3.9659,-3.9672,-3.9622,-3.9609,-3.9597,-3.9584,-3.9622,-3.9634,-3.9572,-3.9396,-3.9672,-3.9634,-3.932,-3.8968,-3.8166,-3.7665,-3.7155,-3.6955,-3.6646,-3.644,-3.6259,-3.6259,-3.6051,-3.5832,-3.5429,-3.5539,-3.5391,-3.5101,-3.4968,-3.5028,-3.4968,-3.4787,-3.4523,-3.415,-3.3801,-3.3585,-3.3501,-3.3621,-3.3248,-3.2903,-3.2512,-3.2484,-3.2659,-3.2779,-3.2887,-3.2887,-3.2887,-3.2827,-3.2839,-3.2911,-3.2996,-3.314,-3.3428,-3.3825,-3.4222,-3.4571,-3.4691,-3.4811,-3.4823,-3.4823,-3.4823,-3.4823,-3.4823,-3.4823,-3.4823,-3.4823,-3.4823,-3.498,-3.528,-4.3294,-4.294,-4.3387,-4.3818,-4.4233,-4.4327,-4.4388,-4.423,-4.3623,-4.3449,-4.3748,-4.4137,-4.4107,-4.3958,-4.4257,-4.4511,-4.4077,-4.4421,-4.4661,-4.4796,-4.5768,-4.6157,-4.6486,-4.695,-4.6974,-4.6771,-4.6594,-4.6417,-4.6046,-4.597,-4.588,-4.588,-4.588,-4.588,-4.579,-4.5489,-4.5278,-4.4406,-4.3476,-4.2128,-4.14,-4.0537,-3.9536,-3.9534,-3.9521,-3.9459,-3.9572,-3.9546,-3.9408,-3.9396,-3.9295,-3.9283,-3.9346,-3.9421,-3.9509,-3.9609,-3.9697,-3.9597,-3.9078,-3.8776,-3.8079,-3.7283,-3.6998,-3.6986,-3.6899,-3.6702,-3.6603,-3.6504,-3.6305,-3.6012,-3.5707,-3.5809,-3.5725,-3.5449,-3.5485,-3.5557,-3.5244,-3.5076,-3.4859,-3.4487,-3.4234,-3.3994,-3.3849,-3.3933,-3.3921,-3.3588,-3.335,-3.3349,-3.3335,-3.3558,-3.3582,-3.3416,-3.3356,-3.3212,-3.3248,-3.3404,-3.3477,-3.3549,-3.3849,-3.421,-3.439,-3.4703,-3.4763,-3.4811,-3.4702,-3.4702,-3.4811,-3.4823,-3.4617,-3.4617,-3.4823,-3.4823,-3.4823,-3.5016,-3.528,-4.2906,-4.2027,-4.3137,-4.3781,-4.38,-4.4341,-4.4695,-4.4822,-4.3758,-4.3673,-4.4227,-4.4272,-4.4332,-4.4436,-4.5005,-4.5155,-4.5095,-4.5185,-4.5229,-4.5469,-4.6112,-4.6337,-4.6636,-4.701,-4.7061,-4.6931,-4.6668,-4.6403,-4.621,-4.5956,-4.588,-4.588,-4.588,-4.588,-4.5685,-4.5187,-4.4989,-4.442,-4.3163,-4.2293,-4.1959,-4.0382,-3.9804,-3.9676,-3.9613,-3.9421,-3.9421,-3.9295,-3.9094,-3.8868,-3.8542,-3.863,-3.8743,-3.8906,-3.9245,-3.9521,-3.9685,-3.9216,-3.8863,-3.8599,-3.8172,-3.759,-3.7192,-3.7167,-3.7155,-3.6941,-3.684,-3.6739,-3.6638,-3.6488,-3.6338,-3.6362,-3.6362,-3.6302,-3.6314,-3.6086,-3.5665,-3.5412,-3.5208,-3.4956,-3.4751,-3.4583,-3.4523,-3.4547,-3.4378,-3.4318,-3.4102,-3.409,-3.415,-3.4241,-3.4205,-3.3729,-3.3645,-3.3513,-3.3621,-3.3909,-3.4006,-3.4078,-3.4318,-3.4619,-3.4751,-3.4763,-3.4799,-3.4714,-3.4581,-3.4374,-3.3895,-3.3906,-3.4225,-3.4323,-3.3906,-3.4519,-3.4421,-3.4918,-3.528,-4.4717,-4.5336,-4.5719,-4.5611,-4.5008,-4.4403,-4.4109,-4.398,-4.3483,-4.3479,-4.3658,-4.4616,-4.4661,-4.4451,-4.5484,-4.5304,-4.5289,-4.5394,-4.5514,-4.5888,-4.6441,-4.6845,-4.7085,-4.7189,-4.7121,-4.6931,-4.6668,-4.6491,-4.621,-4.5956,-4.588,-4.588,-4.588,-4.588,-4.5489,-4.4805,-4.4805,-4.4312,-4.2971,-4.2585,-4.211,-4.0637,-4.0223,-4.0109,-3.9905,-3.9739,-3.9496,-3.9157,-3.9032,-3.9233,-3.8856,-3.8894,-3.9383,-3.9459,-3.9609,-3.9647,-3.9581,-3.9274,-3.9047,-3.8583,-3.8252,-3.788,-3.7545,-3.7412,-3.7285,-3.7224,-3.7006,-3.697,-3.7031,-3.6916,-3.6831,-3.6831,-3.6735,-3.6639,-3.6627,-3.6411,-3.5978,-3.5557,-3.534,-3.5004,-3.4823,-3.4823,-3.4823,-3.4787,-3.4643,-3.4726,-3.481,-3.4762,-3.4895,-3.5005,-3.4787,-3.4402,-3.4234,-3.4186,-3.4258,-3.4499,-3.4547,-3.4631,-3.4763,-3.4823,-3.4714,-3.4702,-3.4811,-3.4362,-3.3581,-3.3009,-3.2376,-3.2689,-3.3201,-3.2689,-3.2476,-3.34,-3.4249,-3.4414,-3.4861,-4.5271,-4.5627,-4.6488,-4.6324,-4.5551,-4.4768,-4.4189,-4.3754,-4.3409,-4.3449,-4.3808,-4.4541,-4.4691,-4.4526,-4.5319,-4.5484,-4.493,-4.5738,-4.6052,-4.6157,-4.68,-4.71,-4.7294,-4.7309,-4.7207,-4.7033,-4.6756,-4.6506,-4.6314,-4.6046,-4.588,-4.588,-4.588,-4.588,-4.5685,-4.5384,-4.5095,-4.4326,-4.345,-4.2682,-4.2012,-4.1145,-4.0844,-4.0554,-4.0262,-4.007,-3.9725,-3.9246,-3.9132,-3.9258,-3.8831,-3.8806,-3.9295,-3.9521,-3.9672,-3.9697,-3.9478,-3.9258,-3.8988,-3.8699,-3.8396,-3.8052,-3.7597,-3.7356,-3.7272,-3.7211,-3.7224,-3.7132,-3.7324,-3.7433,-3.7348,-3.724,-3.7012,-3.6807,-3.6735,-3.6663,-3.6206,-3.5713,-3.5328,-3.4944,-3.4823,-3.4823,-3.4823,-3.4823,-3.4823,-3.4762,-3.4882,-3.5002,-3.5218,-3.5608,-3.5379,-3.5064,-3.5016,-3.498,-3.5004,-3.4859,-3.4678,-3.4642,-3.4775,-3.4823,-3.4726,-3.4481,-3.4134,-3.3254,-3.214,-3.1425,-3.0681,-3.1509,-3.1971,-3.1462,-3.1359,-3.2185,-3.2812,-3.3092,-3.3591,-4.5097,-4.4269,-4.5907,-4.6175,-4.5378,-4.507,-4.4402,-4.3693,-4.3364,-4.3643,-4.4107,-4.4302,-4.4362,-4.4466,-4.511,-4.5289,-4.5229,-4.5828,-4.6172,-4.6292,-4.695,-4.7294,-4.7309,-4.7309,-4.7222,-4.7135,-4.6858,-4.6506,-4.6417,-4.615,-4.588,-4.588,-4.588,-4.588,-4.588,-4.5776,-4.558,-4.5201,-4.3464,-4.2208,-4.2488,-4.1815,-4.0743,-4.0465,-4.0453,-4.0642,-3.9931,-3.9347,-3.8894,-3.8743,-3.858,-3.8517,-3.9032,-3.9433,-3.9634,-3.9581,-3.9362,-3.9154,-3.8841,-3.8526,-3.8218,-3.7826,-3.7433,-3.7036,-3.6843,-3.694,-3.694,-3.712,-3.7264,-3.7517,-3.7517,-3.7421,-3.724,-3.7144,-3.7096,-3.6771,-3.623,-3.5701,-3.5172,-3.4883,-3.4823,-3.4823,-3.4823,-3.4823,-3.4823,-3.4823,-3.488,-3.5008,-3.5737,-3.6134,-3.6026,-3.5761,-3.5485,-3.5328,-3.5136,-3.4894,-3.4652,-3.4617,-3.4495,-3.4115,-3.3709,-3.3515,-3.3453,-3.2353,-3.124,-2.9753,-2.9065,-2.988,-3.065,-3.065,-3.065,-3.1062,-3.1403,-3.1549,-3.2303,-4.6208,-4.6765,-4.6198,-4.5636,-4.5107,-4.4496,-4.4053,-4.3442,-4.3356,-4.3434,-4.3643,-4.4062,-4.4287,-4.4332,-4.484,-4.4945,-4.4825,-4.5499,-4.5858,-4.6097,-4.6651,-4.7145,-4.7294,-4.7264,-4.7294,-4.7135,-4.6858,-4.6417,-4.615,-4.597,-4.588,-4.588,-4.588,-4.588,-4.588,-4.588,-4.579,-4.5685,-4.3951,-4.2875,-4.3259,-4.173,-4.0377,-4.0857,-4.1332,-4.0756,-4.0109,-3.9689,-3.9424,-3.9295,-3.8919,-3.9032,-3.9484,-3.9622,-3.9685,-3.9594,-3.9258,-3.8945,-3.8736,-3.8384,-3.7959,-3.7489,-3.6964,-3.6459,-3.6266,-3.6471,-3.6675,-3.6879,-3.718,-3.7469,-3.7625,-3.7541,-3.7469,-3.7445,-3.7348,-3.6771,-3.6182,-3.5605,-3.5028,-3.4907,-3.4835,-3.4823,-3.4823,-3.4823,-3.4823,-3.4745,-3.4828,-3.5093,-3.6123,-3.6711,-3.6663,-3.6362,-3.5773,-3.5545,-3.5292,-3.4954,-3.4579,-3.3848,-3.3505,-3.3143,-3.2577,-3.2532,-3.2452,-3.1462,-3.0349,-2.9009,-2.8281,-2.8529,-2.9122,-2.9523,-2.9628,-2.9838,-2.9669,-2.971,-3.0769,-4.6018,-4.6372,-4.5898,-4.5694,-4.5522,-4.5142,-4.4551,-4.3987,-4.3837,-4.363,-4.3359,-4.3703,-4.3898,-4.3898,-4.4287,-4.4377,-4.4137,-4.493,-4.505,-4.5319,-4.6097,-4.6666,-4.6935,-4.7145,-4.7178,-4.7033,-4.6668,-4.6225,-4.597,-4.588,-4.588,-4.588,-4.588,-4.588,-4.588,-4.588,-4.588,-4.579,-4.4139,-4.3748,-4.3735,-4.1914,-4.0857,-4.1432,-4.1631,-4.1045,-4.0591,-4.0246,-4.0336,-3.9879,-3.9346,-3.9346,-3.9597,-3.9672,-3.9581,-3.9478,-3.905,-3.8736,-3.8514,-3.8255,-3.7817,-3.7385,-3.6495,-3.599,-3.5677,-3.5821,-3.5689,-3.5966,-3.694,-3.7336,-3.7385,-3.7336,-3.7324,-3.7312,-3.6916,-3.6374,-3.5785,-3.5184,-3.4895,-3.4859,-3.4823,-3.4823,-3.4823,-3.4823,-3.4835,-3.4798,-3.4757,-3.5265,-3.6279,-3.6709,-3.6848,-3.6601,-3.5819,-3.531,-3.51,-3.4736,-3.4445,-3.3639,-3.2542,-3.1827,-3.1272,-3.15,-3.1424,-3.0402,-2.9479,-2.885,-2.831,-2.8281,-2.8301,-2.8708,-2.8708,-2.8504,-2.834,-2.8389,-2.9444,-4.5382,-4.4874,-4.5449,-4.5811,-4.6027,-4.5947,-4.524,-4.4425,-4.4265,-4.3775,-4.3259,-4.3284,-4.3329,-4.3344,-4.3344,-4.3344,-4.3629,-4.4362,-4.4392,-4.4736,-4.5648,-4.6217,-4.6606,-4.686,-4.6882,-4.6784,-4.6388,-4.6135,-4.588,-4.588,-4.588,-4.588,-4.588,-4.588,-4.588,-4.588,-4.588,-4.5595,-4.4727,-4.3937,-4.3067,-4.2012,-4.1716,-4.1815,-4.211,-4.173,-4.1246,-4.1246,-4.1419,-4.0818,-3.9917,-3.984,-3.9762,-3.9697,-3.9594,-3.9374,-3.905,-3.8736,-3.8514,-3.8185,-3.7995,-3.7505,-3.6374,-3.5773,-3.5545,-3.5449,-3.5316,-3.5629,-3.6615,-3.7108,-3.7168,-3.7216,-3.7216,-3.718,-3.6675,-3.6038,-3.5412,-3.4931,-3.4919,-3.4895,-3.4883,-3.4883,-3.4823,-3.4823,-3.475,-3.481,-3.5011,-3.5537,-3.6004,-3.588,-3.585,-3.5629,-3.5151,-3.4781,-3.4683,-3.4075,-3.3534,-3.2521,-3.1342,-3.0469,-2.9984,-3.0183,-2.9972,-2.9076,-2.8378,-2.8242,-2.8252,-2.8291,-2.8301,-2.8301,-2.8301,-2.8301,-2.833,-2.8418,-2.8623,-4.5635,-4.55,-4.5669,-4.5581,-4.5341,-4.4838,-4.4209,-4.3749,-4.3122,-4.2692,-4.2839,-4.315,-4.3344,-4.3344,-4.3344,-4.3344,-4.3434,-4.3958,-4.4227,-4.4526,-4.5125,-4.5723,-4.6192,-4.6565,-4.6602,-4.6491,-4.6314,-4.6135,-4.597,-4.588,-4.588,-4.588,-4.588,-4.588,-4.588,-4.588,-4.588,-4.5595,-4.5201,-4.442,-4.462,-4.3654,-4.2695,-4.2598,-4.2695,-4.2488,-4.239,-4.2585,-4.1999,-4.1319,-4.073,-4.0364,-3.9981,-3.9697,-3.9594,-3.9387,-3.905,-3.8841,-3.8526,-3.8198,-3.8019,-3.7553,-3.6687,-3.6285,-3.6177,-3.6201,-3.6021,-3.5757,-3.6477,-3.6964,-3.7096,-3.718,-3.7204,-3.7204,-3.6916,-3.5966,-3.516,-3.5136,-3.5184,-3.5136,-3.5112,-3.4992,-3.4823,-3.4823,-3.4823,-3.4822,-3.4817,-3.533,-3.5568,-3.5336,-3.4936,-3.459,-3.4222,-3.4108,-3.391,-3.287,-3.2139,-3.1133,-3.0307,-2.9754,-2.9258,-2.8784,-2.8408,-2.8301,-2.8301,-2.8281,-2.8291,-2.8301,-2.8301,-2.8301,-2.8301,-2.8301,-2.835,-2.8447,-2.8652]},{"header":{"parameterUnit":"m.s-1","parameterCategory":1,"la1":31.0,"la2":29.5877,"lo1":-88.7671,"lo2":-86.6584,"dy":0.0162,"dx":0.0185,"nx":115,"ny":88,"refTime":"2023-06-15T18:00:00:Z","depth":0,"parameterNumber":3,"parameterNumberName":"V-component_of_WINDS"},"data":[0.0,0.0,0.0,0.0,0.0,0.0,0.0,0.0,0.0,0.0,0.0,0.0,0.0,0.0,0.0,0.0,0.0,0.0,0.0,0.0,0.0,0.0,0.0,0.0,0.0,0.0,0.0,0.0,0.0,0.0,0.0,0.0,0.0,0.0,0.0,0.0,0.0,0.0,0.0,0.0,0.0,0.0,0.0,0.0,0.0,0.0,0.0,0.0,0.0,0.0,0.0,0.0,0.0,0.0,0.0,0.0,0.0,0.0,0.0,0.0,0.0,0.0,0.0,0.0,0.0,0.0,0.0,0.0,0.0,0.0,0.0,0.0,0.0,0.0,0.0,0.0,0.0,0.0,0.0,0.0,0.0,0.0,0.0,0.0,0.0,0.0,0.0,0.0,0.0,0.0,0.0,0.0,0.0,0.0,0.0,0.0,0.0,0.0,0.0,0.0,0.0,0.0,0.0,0.0,0.0,0.0,0.0,0.0,0.0,0.0,0.0,0.0,0.0,0.0,0.0,0.0,0.0,0.0,0.0,0.0,0.0,0.0,0.0,0.0,0.0,0.0,0.0,0.0,0.0,0.0,0.0,0.0,0.0,0.0,0.0,0.0,0.0,0.0,0.0,0.0,0.0,0.0,0.0,0.0,0.0,0.0,0.0,0.0,0.0,0.0,0.0,0.0,0.0,0.0,0.0,0.0,0.0,0.0,0.0,0.0,0.0,0.0,0.0,0.0,0.0,0.0,0.0,0.0,0.0,0.0,0.0,0.0,0.0,0.0,0.0,0.0,0.0,0.0,0.0,0.0,0.0,0.0,0.0,0.0,0.0,0.0,0.0,0.0,0.0,0.0,0.0,0.0,0.0,0.0,0.0,0.0,0.0,0.0,0.0,0.0,0.0,0.0,0.0,0.0,0.0,0.0,0.0,0.0,0.0,0.0,0.0,0.0,0.0,0.0,0.0,0.0,0.0,0.0,0.0,0.0,0.0,0.0,0.0,0.0,0.0,0.0,0.0,0.0,0.0,0.0,0.0,0.0,0.0,0.0,0.0,0.0,0.0,0.0,0.0,0.0,0.0,0.0,0.0,0.0,0.0,0.0,0.0,0.0,0.0,0.0,0.0,0.0,0.0,0.0,0.0,0.0,0.0,0.0,0.0,0.0,0.0,0.0,0.0,0.0,0.0,0.0,0.0,0.0,0.0,0.0,0.0,0.0,0.0,0.0,0.0,0.0,0.0,0.0,0.0,0.0,0.0,0.0,0.0,0.0,0.0,0.0,0.0,0.0,0.0,0.0,0.0,0.0,0.0,0.0,0.0,0.0,0.0,0.0,0.0,0.0,0.0,0.0,0.0,0.0,0.0,0.0,0.0,0.0,0.0,0.0,0.0,0.0,0.0,0.0,0.0,0.0,0.0,0.0,0.0,0.0,0.0,0.0,0.0,0.0,0.0,0.0,0.0,0.0,0.0,0.0,0.0,0.0,0.0,0.0,0.0,0.0,0.0,0.0,0.0,0.0,0.0,0.0,0.0,0.0,0.0,0.0,0.0,0.0,0.0,0.0,0.0,0.0,0.0,0.0,0.0,0.0,0.0,0.0,0.0,0.0,0.0,0.0,0.0,0.0,0.0,0.0,0.0,0.0,0.0,0.0,0.0,0.0,0.0,0.0,0.0,0.0,0.0,0.0,0.0,0.0,0.0,0.0,0.0,0.0,0.0,0.0,0.0,0.0,0.0,0.0,0.0,0.0,0.0,0.0,0.0,0.0,0.0,0.0,0.0,0.0,0.0,0.0,0.0,0.0,0.0,0.0,0.0,0.0,0.0,0.0,0.0,0.0,0.0,0.0,0.0,0.0,0.0,0.0,0.0,0.0,0.0,0.0,0.0,0.0,0.0,0.0,0.0,0.0,0.0,0.0,0.0,0.0,0.0,0.0,0.0,0.0,0.0,0.0,0.0,0.0,0.0,0.0,0.0,0.0,0.0,0.0,0.0,0.0,0.0,0.0,0.0,0.0,0.0,0.0,0.0,0.0,0.0,0.0,0.0,0.0,0.0,0.0,0.0,0.0,0.0,0.0,0.0,0.0,0.0,0.0,0.0,0.0,0.0,0.0,0.0,0.0,0.0,0.0,0.0,0.0,0.0,0.0,0.0,0.0,0.0,0.0,0.0,0.0,0.0,0.0,0.0,0.0,0.0,0.0,0.0,0.0,0.0,0.0,0.0,0.0,0.0,0.0,0.0,0.0,0.0,0.0,0.0,0.0,0.0,0.0,0.0,0.0,0.0,0.0,0.0,0.0,0.0,0.0,0.0,0.0,0.0,0.0,0.0,0.0,0.0,0.0,0.0,0.0,0.0,0.0,0.0,0.0,0.0,0.0,0.0,0.0,0.0,0.0,0.0,0.0,0.0,0.0,0.0,0.0,0.0,0.0,0.0,0.0,0.0,0.0,0.0,0.0,0.0,0.0,0.0,0.0,0.0,0.0,0.0,0.0,0.0,0.0,0.0,0.0,0.0,0.0,0.0,0.0,0.0,0.0,0.0,0.0,0.0,0.0,0.0,0.0,0.0,0.0,0.0,0.0,0.0,0.0,0.0,0.0,0.0,0.0,0.0,0.0,0.0,0.0,0.0,0.0,0.0,0.0,0.0,0.0,0.0,0.0,0.0,0.0,0.0,0.0,0.0,0.0,0.0,0.0,0.0,0.0,0.0,0.0,0.0,0.0,0.0,0.0,0.0,0.0,0.0,0.0,0.0,0.0,0.0,0.0,0.0,0.0,0.0,0.0,0.0,0.0,0.0,0.0,0.0,0.0,0.0,0.0,0.0,0.0,0.0,0.0,0.0,0.0,0.0,0.0,0.0,0.0,0.0,0.0,0.0,0.0,0.0,0.0,0.0,0.0,0.0,0.0,0.0,0.0,0.0,0.0,0.0,0.0,0.0,0.0,0.0,0.0,0.0,0.0,0.0,0.0,0.0,0.0,0.0,0.0,0.0,0.0,0.0,0.0,0.0,0.0,0.0,0.0,0.0,0.0,0.0,0.0,0.0,0.0,0.0,0.0,0.0,0.0,0.0,0.0,0.0,0.0,0.0,0.0,0.0,0.0,0.0,0.0,0.0,0.0,0.0,0.0,0.0,0.0,0.0,0.0,0.0,0.0,0.0,0.0,0.0,0.0,0.0,0.0,0.0,0.0,0.0,0.0,0.0,0.0,0.0,0.0,0.0,0.0,0.0,0.0,0.0,0.0,0.0,0.0,0.0,0.0,0.0,0.0,0.0,0.0,0.0,0.0,0.0,0.0,0.0,0.0,0.0,0.0,0.0,0.0,0.0,0.0,0.0,0.0,0.0,0.0,0.0,0.0,0.0,0.0,0.0,0.0,0.0,0.0,0.0,0.0,0.0,0.0,0.0,0.0,0.0,0.0,0.0,0.0,0.0,0.0,0.0,0.0,0.0,0.0,0.0,0.0,0.0,0.0,0.0,0.0,0.0,0.0,0.0,0.0,0.0,0.0,0.0,0.0,0.0,0.0,0.0,0.0,0.0,0.0,0.0,0.0,0.0,0.0,0.0,0.0,0.0,0.0,0.0,0.0,0.0,0.0,0.0,0.0,0.0,0.0,0.0,0.0,0.0,0.0,0.0,0.0,0.0,0.0,0.0,0.0,0.0,0.0,0.0,0.0,0.0,0.0,0.0,0.0,0.0,0.0,0.0,0.0,0.0,0.0,0.0,0.0,0.0,0.0,0.0,0.0,0.0,0.0,0.0,0.0,0.0,0.0,0.0,0.0,0.0,0.0,0.0,0.0,0.0,0.0,0.0,0.0,0.0,0.0,0.0,0.0,0.0,0.0,0.0,0.0,0.0,0.0,0.0,0.0,0.0,0.0,0.0,0.0,0.0,0.0,0.0,0.0,0.0,0.0,0.0,0.0,0.0,0.0,0.0,0.0,0.0,0.0,0.0,0.0,0.0,0.0,0.0,0.0,0.0,0.0,0.0,0.0,0.0,0.0,0.0,0.0,0.0,0.0,0.0,0.0,0.0,0.0,0.0,0.0,0.0,0.0,0.0,0.0,0.0,0.0,0.0,0.0,0.0,0.0,0.0,0.0,0.0,0.0,0.0,0.0,0.0,0.0,0.0,0.0,0.0,0.0,0.0,0.0,0.0,0.0,0.0,0.0,0.0,0.0,0.0,0.0,0.0,0.0,0.0,0.0,0.0,0.0,0.0,0.0,0.0,0.0,0.0,0.0,0.0,0.0,0.0,0.0,0.0,0.0,0.0,0.0,0.0,0.0,-3.525,0.0,0.0,0.0,0.0,0.0,0.0,0.0,0.0,0.0,0.0,0.0,0.0,0.0,0.0,0.0,0.0,0.0,0.0,0.0,0.0,0.0,0.0,0.0,0.0,0.0,0.0,0.0,0.0,0.0,0.0,0.0,0.0,0.0,0.0,0.0,0.0,0.0,0.0,0.0,0.0,0.0,0.0,0.0,0.0,0.0,0.0,0.0,0.0,0.0,0.0,0.0,0.0,0.0,0.0,0.0,0.0,0.0,0.0,0.0,0.0,0.0,0.0,0.0,0.0,0.0,0.0,0.0,0.0,0.0,0.0,0.0,0.0,0.0,0.0,0.0,0.0,0.0,0.0,0.0,0.0,0.0,0.0,0.0,0.0,0.0,0.0,0.0,0.0,0.0,0.0,0.0,0.0,0.0,0.0,0.0,0.0,0.0,0.0,0.0,0.0,0.0,0.0,0.0,0.0,0.0,0.0,0.0,0.0,0.0,0.0,-3.64,-3.523,-3.4904,-3.4551,-3.4245,0.0,0.0,0.0,0.0,0.0,0.0,0.0,0.0,0.0,0.0,0.0,0.0,0.0,0.0,0.0,0.0,0.0,0.0,0.0,0.0,0.0,0.0,0.0,0.0,0.0,0.0,0.0,0.0,0.0,0.0,0.0,0.0,0.0,0.0,0.0,0.0,0.0,0.0,0.0,0.0,0.0,0.0,0.0,0.0,0.0,0.0,0.0,0.0,0.0,0.0,0.0,0.0,0.0,0.0,0.0,0.0,0.0,0.0,0.0,0.0,0.0,0.0,0.0,0.0,0.0,0.0,0.0,0.0,0.0,0.0,0.0,0.0,0.0,0.0,0.0,0.0,0.0,0.0,0.0,0.0,0.0,0.0,0.0,0.0,0.0,0.0,0.0,0.0,0.0,0.0,0.0,0.0,0.0,0.0,0.0,0.0,0.0,0.0,0.0,0.0,0.0,0.0,0.0,0.0,0.0,0.0,0.0,0.0,0.0,0.0,0.0,0.0,-3.3882,-3.3772,-3.3424,0.0,0.0,0.0,0.0,0.0,0.0,0.0,0.0,0.0,0.0,0.0,0.0,0.0,0.0,0.0,0.0,0.0,0.0,0.0,0.0,0.0,0.0,0.0,0.0,0.0,0.0,0.0,0.0,0.0,0.0,0.0,0.0,0.0,0.0,0.0,0.0,0.0,0.0,0.0,0.0,0.0,0.0,0.0,0.0,0.0,0.0,0.0,0.0,0.0,0.0,0.0,0.0,0.0,0.0,0.0,0.0,0.0,0.0,0.0,0.0,0.0,0.0,0.0,0.0,0.0,0.0,0.0,0.0,0.0,0.0,0.0,0.0,0.0,0.0,0.0,0.0,0.0,0.0,0.0,0.0,0.0,0.0,0.0,0.0,0.0,0.0,0.0,0.0,0.0,0.0,0.0,0.0,0.0,0.0,0.0,0.0,0.0,0.0,0.0,0.0,0.0,0.0,0.0,0.0,0.0,0.0,0.0,0.0,0.0,0.0,-3.3954,-3.3069,-3.3022,0.0,-3.3998,0.0,0.0,0.0,0.0,0.0,0.0,0.0,0.0,0.0,0.0,0.0,0.0,0.0,0.0,0.0,0.0,0.0,0.0,0.0,0.0,0.0,0.0,0.0,0.0,0.0,0.0,0.0,0.0,0.0,0.0,0.0,0.0,0.0,0.0,0.0,0.0,0.0,0.0,0.0,0.0,0.0,0.0,0.0,0.0,0.0,0.0,0.0,0.0,0.0,0.0,0.0,0.0,0.0,0.0,0.0,0.0,0.0,0.0,0.0,0.0,0.0,0.0,0.0,0.0,0.0,0.0,0.0,0.0,0.0,0.0,0.0,0.0,0.0,0.0,0.0,0.0,0.0,0.0,0.0,0.0,0.0,0.0,0.0,0.0,0.0,0.0,0.0,0.0,0.0,0.0,0.0,0.0,0.0,0.0,0.0,0.0,0.0,0.0,0.0,0.0,0.0,0.0,0.0,0.0,0.0,0.0,0.0,0.0,0.0,0.0,-3.1944,-3.1384,-3.1384,-3.1675,0.0,0.0,0.0,0.0,0.0,0.0,0.0,0.0,0.0,0.0,0.0,0.0,0.0,0.0,0.0,0.0,0.0,0.0,0.0,0.0,0.0,0.0,0.0,0.0,0.0,0.0,0.0,0.0,0.0,0.0,0.0,0.0,0.0,0.0,0.0,0.0,0.0,0.0,0.0,0.0,0.0,0.0,0.0,0.0,0.0,0.0,0.0,0.0,0.0,0.0,0.0,0.0,0.0,0.0,0.0,0.0,0.0,0.0,0.0,0.0,0.0,0.0,0.0,0.0,0.0,0.0,0.0,0.0,0.0,0.0,0.0,0.0,0.0,0.0,0.0,0.0,0.0,0.0,0.0,0.0,0.0,0.0,0.0,0.0,0.0,0.0,0.0,0.0,0.0,0.0,0.0,0.0,0.0,0.0,0.0,0.0,0.0,0.0,0.0,0.0,0.0,0.0,0.0,0.0,0.0,0.0,0.0,0.0,0.0,0.0,-3.1662,-3.0224,-2.9642,-2.9585,-3.0002,-3.0685,0.0,0.0,0.0,0.0,0.0,0.0,0.0,0.0,0.0,0.0,0.0,0.0,0.0,0.0,0.0,0.0,0.0,0.0,0.0,0.0,0.0,0.0,0.0,0.0,0.0,0.0,0.0,0.0,0.0,0.0,0.0,0.0,0.0,0.0,0.0,0.0,0.0,0.0,0.0,0.0,0.0,0.0,0.0,0.0,0.0,0.0,0.0,0.0,0.0,0.0,0.0,0.0,0.0,0.0,0.0,0.0,0.0,0.0,0.0,0.0,0.0,0.0,0.0,0.0,0.0,0.0,0.0,0.0,0.0,0.0,0.0,0.0,0.0,0.0,0.0,0.0,0.0,0.0,0.0,0.0,0.0,0.0,0.0,0.0,0.0,0.0,0.0,0.0,0.0,0.0,0.0,0.0,0.0,0.0,0.0,0.0,0.0,0.0,0.0,0.0,0.0,0.0,0.0,0.0,0.0,0.0,0.0,0.0,-3.2398,-3.0754,-2.9316,-2.7989,-2.7916,-2.8575,0.0,0.0,0.0,0.0,0.0,0.0,0.0,0.0,0.0,0.0,0.0,0.0,0.0,0.0,0.0,0.0,0.0,0.0,0.0,0.0,0.0,0.0,0.0,0.0,0.0,0.0,0.0,0.0,0.0,0.0,0.0,0.0,0.0,0.0,0.0,0.0,0.0,0.0,0.0,0.0,0.0,0.0,0.0,0.0,0.0,0.0,0.0,0.0,0.0,0.0,0.0,0.0,0.0,0.0,0.0,0.0,0.0,0.0,0.0,0.0,0.0,0.0,0.0,0.0,0.0,0.0,0.0,0.0,0.0,0.0,0.0,0.0,0.0,0.0,0.0,0.0,0.0,0.0,0.0,0.0,0.0,0.0,0.0,0.0,0.0,0.0,0.0,0.0,0.0,0.0,0.0,0.0,0.0,0.0,0.0,0.0,0.0,0.0,0.0,0.0,0.0,0.0,0.0,0.0,0.0,0.0,0.0,0.0,0.0,-3.1111,-2.8585,-2.6443,-2.4883,-2.5905,-2.7164,0.0,0.0,0.0,0.0,0.0,0.0,0.0,0.0,0.0,0.0,0.0,0.0,0.0,0.0,0.0,0.0,0.0,0.0,0.0,0.0,0.0,0.0,0.0,0.0,0.0,0.0,0.0,0.0,0.0,0.0,0.0,0.0,0.0,0.0,0.0,0.0,0.0,0.0,0.0,0.0,0.0,0.0,0.0,0.0,0.0,0.0,0.0,0.0,0.0,0.0,0.0,0.0,0.0,0.0,0.0,0.0,0.0,0.0,0.0,0.0,0.0,0.0,0.0,0.0,0.0,0.0,0.0,0.0,0.0,0.0,0.0,0.0,0.0,0.0,0.0,0.0,0.0,0.0,0.0,0.0,0.0,0.0,0.0,0.0,0.0,0.0,0.0,0.0,0.0,0.0,0.0,0.0,0.0,0.0,0.0,0.0,0.0,0.0,0.0,0.0,0.0,0.0,0.0,0.0,0.0,0.0,0.0,0.0,0.0,-2.9382,0.0,-2.4586,-2.2649,-2.4029,-2.5541,0.0,0.0,0.0,0.0,0.0,0.0,0.0,0.0,0.0,0.0,0.0,0.0,0.0,0.0,0.0,0.0,0.0,0.0,0.0,0.0,0.0,0.0,0.0,0.0,0.0,0.0,0.0,0.0,0.0,0.0,0.0,0.0,0.0,0.0,0.0,0.0,0.0,0.0,0.0,0.0,0.0,0.0,0.0,0.0,0.0,0.0,0.0,0.0,0.0,0.0,0.0,0.0,0.0,0.0,0.0,0.0,0.0,0.0,0.0,0.0,0.0,0.0,0.0,0.0,0.0,0.0,0.0,0.0,0.0,0.0,0.0,0.0,0.0,0.0,0.0,0.0,0.0,0.0,0.0,0.0,0.0,0.0,0.0,0.0,0.0,0.0,0.0,0.0,0.0,0.0,0.0,0.0,0.0,0.0,0.0,0.0,0.0,0.0,0.0,0.0,0.0,0.0,0.0,0.0,0.0,0.0,0.0,0.0,-3.2355,-2.7236,-2.5686,-2.3815,-2.157,-2.2539,-2.3703,0.0,0.0,0.0,0.0,0.0,0.0,0.0,0.0,0.0,0.0,0.0,0.0,0.0,0.0,0.0,0.0,0.0,0.0,0.0,0.0,0.0,0.0,0.0,0.0,0.0,0.0,0.0,0.0,0.0,0.0,0.0,0.0,0.0,0.0,0.0,0.0,0.0,0.0,0.0,0.0,0.0,0.0,0.0,0.0,0.0,0.0,0.0,0.0,0.0,0.0,0.0,0.0,0.0,0.0,0.0,0.0,0.0,0.0,0.0,0.0,0.0,0.0,0.0,0.0,0.0,0.0,0.0,0.0,0.0,0.0,0.0,0.0,0.0,0.0,0.0,0.0,0.0,0.0,0.0,0.0,0.0,0.0,0.0,0.0,0.0,0.0,0.0,0.0,0.0,0.0,0.0,0.0,0.0,0.0,0.0,0.0,0.0,0.0,0.0,0.0,0.0,0.0,0.0,0.0,0.0,0.0,0.0,0.0,0.0,-2.688,-2.4964,-2.3187,-2.1616,-2.2164,-2.3471,0.0,0.0,0.0,0.0,0.0,0.0,0.0,0.0,0.0,0.0,0.0,0.0,0.0,0.0,0.0,0.0,0.0,0.0,0.0,0.0,0.0,0.0,0.0,0.0,0.0,0.0,0.0,0.0,0.0,0.0,0.0,0.0,0.0,0.0,0.0,0.0,0.0,0.0,0.0,0.0,0.0,0.0,0.0,0.0,0.0,0.0,0.0,0.0,0.0,0.0,0.0,0.0,0.0,0.0,0.0,0.0,0.0,0.0,0.0,0.0,0.0,0.0,0.0,0.0,0.0,0.0,0.0,0.0,0.0,0.0,0.0,0.0,0.0,0.0,0.0,0.0,0.0,0.0,0.0,0.0,0.0,0.0,0.0,0.0,0.0,0.0,0.0,0.0,0.0,0.0,0.0,0.0,0.0,0.0,0.0,0.0,0.0,0.0,0.0,0.0,0.0,0.0,0.0,0.0,0.0,0.0,0.0,0.0,0.0,-2.7521,-2.4735,-2.2658,-2.1345,-2.1655,-2.3102,-2.5664,0.0,0.0,0.0,0.0,0.0,0.0,0.0,0.0,0.0,0.0,0.0,0.0,0.0,0.0,0.0,0.0,0.0,0.0,0.0,0.0,0.0,0.0,0.0,0.0,0.0,0.0,0.0,0.0,0.0,0.0,0.0,0.0,0.0,0.0,0.0,0.0,0.0,0.0,0.0,0.0,0.0,0.0,0.0,0.0,0.0,0.0,0.0,0.0,0.0,0.0,0.0,0.0,0.0,0.0,0.0,0.0,0.0,0.0,0.0,0.0,0.0,0.0,0.0,0.0,0.0,0.0,0.0,0.0,0.0,0.0,0.0,0.0,0.0,0.0,0.0,0.0,0.0,0.0,0.0,0.0,0.0,0.0,0.0,0.0,0.0,0.0,0.0,0.0,0.0,0.0,0.0,0.0,0.0,0.0,0.0,0.0,0.0,0.0,0.0,0.0,0.0,0.0,0.0,0.0,0.0,0.0,0.0,0.0,-2.8823,-2.5192,-2.2619,-2.124,-2.1287,-2.2691,0.0,0.0,0.0,0.0,0.0,0.0,0.0,0.0,0.0,0.0,0.0,0.0,0.0,0.0,0.0,0.0,0.0,0.0,0.0,0.0,0.0,0.0,0.0,0.0,0.0,0.0,0.0,0.0,0.0,0.0,0.0,0.0,0.0,0.0,0.0,0.0,0.0,0.0,0.0,0.0,0.0,0.0,0.0,0.0,0.0,0.0,0.0,0.0,0.0,0.0,0.0,0.0,0.0,0.0,0.0,0.0,0.0,0.0,0.0,0.0,0.0,0.0,0.0,0.0,0.0,0.0,0.0,0.0,0.0,0.0,0.0,0.0,0.0,0.0,0.0,0.0,0.0,0.0,0.0,0.0,0.0,0.0,0.0,0.0,0.0,0.0,0.0,0.0,0.0,0.0,0.0,0.0,0.0,0.0,0.0,0.0,0.0,0.0,0.0,0.0,0.0,0.0,0.0,0.0,0.0,0.0,0.0,0.0,0.0,-2.9398,-2.7231,-2.5319,-2.3548,-2.2503,-2.3329,0.0,0.0,0.0,0.0,0.0,0.0,0.0,0.0,0.0,0.0,0.0,0.0,0.0,0.0,0.0,0.0,0.0,0.0,0.0,0.0,0.0,0.0,0.0,0.0,0.0,0.0,0.0,0.0,0.0,0.0,0.0,0.0,0.0,0.0,0.0,0.0,0.0,0.0,0.0,0.0,0.0,0.0,0.0,0.0,0.0,0.0,0.0,0.0,0.0,0.0,0.0,0.0,0.0,0.0,0.0,0.0,0.0,0.0,0.0,0.0,0.0,0.0,0.0,0.0,0.0,0.0,0.0,0.0,0.0,0.0,0.0,0.0,0.0,0.0,0.0,0.0,0.0,0.0,0.0,0.0,0.0,0.0,0.0,0.0,0.0,0.0,0.0,0.0,0.0,0.0,0.0,0.0,0.0,0.0,0.0,0.0,0.0,0.0,0.0,0.0,0.0,0.0,0.0,0.0,0.0,0.0,0.0,0.0,-3.1345,-2.9586,-2.8856,-2.7728,-2.6203,-2.4729,-2.5114,0.0,0.0,0.0,0.0,0.0,0.0,0.0,0.0,0.0,0.0,0.0,0.0,0.0,0.0,0.0,0.0,0.0,0.0,0.0,0.0,0.0,0.0,0.0,0.0,0.0,0.0,0.0,0.0,0.0,0.0,0.0,0.0,0.0,0.0,0.0,0.0,0.0,0.0,0.0,0.0,0.0,0.0,0.0,0.0,0.0,0.0,0.0,0.0,0.0,0.0,0.0,0.0,0.0,0.0,0.0,0.0,0.0,0.0,0.0,0.0,0.0,0.0,0.0,0.0,0.0,0.0,0.0,0.0,0.0,0.0,0.0,0.0,0.0,0.0,0.0,0.0,0.0,0.0,0.0,0.0,0.0,0.0,0.0,0.0,0.0,0.0,0.0,0.0,0.0,0.0,0.0,0.0,0.0,0.0,0.0,0.0,0.0,0.0,0.0,0.0,0.0,0.0,0.0,0.0,0.0,0.0,0.0,0.0,-3.2525,-2.9474,-3.0056,-2.9951,-2.8723,-2.7157,-2.7182,0.0,0.0,0.0,0.0,0.0,0.0,0.0,0.0,0.0,0.0,0.0,0.0,0.0,0.0,0.0,0.0,0.0,0.0,0.0,0.0,0.0,0.0,0.0,0.0,0.0,0.0,0.0,0.0,0.0,0.0,0.0,0.0,0.0,0.0,0.0,0.0,0.0,0.0,0.0,0.0,0.0,0.0,0.0,0.0,0.0,0.0,0.0,0.0,0.0,0.0,0.0,0.0,0.0,0.0,0.0,0.0,0.0,0.0,0.0,0.0,0.0,0.0,0.0,0.0,0.0,0.0,0.0,0.0,0.0,0.0,0.0,0.0,0.0,0.0,0.0,0.0,0.0,0.0,0.0,0.0,0.0,0.0,0.0,0.0,0.0,0.0,0.0,0.0,0.0,0.0,0.0,0.0,0.0,0.0,0.0,0.0,0.0,0.0,0.0,0.0,0.0,0.0,0.0,0.0,0.0,0.0,0.0,0.0,-3.2984,-3.0755,-3.1367,-3.1141,-2.9902,-2.6985,-2.6478,0.0,0.0,0.0,0.0,0.0,0.0,0.0,0.0,0.0,0.0,0.0,0.0,0.0,0.0,0.0,0.0,0.0,0.0,0.0,0.0,0.0,0.0,0.0,0.0,0.0,0.0,0.0,0.0,0.0,0.0,0.0,0.0,0.0,0.0,0.0,0.0,0.0,0.0,0.0,0.0,0.0,0.0,0.0,0.0,0.0,0.0,0.0,0.0,-4.3377,0.0,0.0,0.0,0.0,0.0,0.0,0.0,0.0,0.0,0.0,0.0,0.0,0.0,0.0,0.0,0.0,0.0,0.0,0.0,0.0,0.0,0.0,0.0,0.0,0.0,0.0,0.0,0.0,0.0,0.0,0.0,0.0,0.0,0.0,0.0,0.0,0.0,0.0,0.0,0.0,0.0,0.0,0.0,0.0,0.0,0.0,0.0,0.0,0.0,0.0,0.0,0.0,0.0,0.0,0.0,0.0,0.0,0.0,0.0,-3.2673,-3.0637,-3.1403,-3.1253,-2.9907,-2.8466,-2.8228,0.0,0.0,0.0,0.0,0.0,0.0,0.0,0.0,0.0,0.0,0.0,0.0,0.0,0.0,0.0,0.0,0.0,0.0,0.0,0.0,0.0,0.0,0.0,0.0,0.0,0.0,0.0,0.0,0.0,0.0,0.0,0.0,0.0,0.0,0.0,0.0,0.0,0.0,0.0,0.0,0.0,0.0,0.0,0.0,0.0,0.0,0.0,0.0,0.0,0.0,0.0,0.0,0.0,0.0,0.0,0.0,0.0,0.0,0.0,0.0,0.0,0.0,0.0,0.0,0.0,0.0,0.0,0.0,0.0,0.0,0.0,0.0,0.0,0.0,0.0,0.0,0.0,0.0,0.0,0.0,0.0,0.0,0.0,0.0,0.0,0.0,0.0,0.0,0.0,0.0,0.0,0.0,0.0,0.0,0.0,0.0,0.0,0.0,0.0,0.0,0.0,0.0,0.0,0.0,0.0,0.0,0.0,-3.3219,-3.2339,-3.0502,-3.1394,-3.1379,-3.0168,-3.0639,-3.0842,-3.0641,0.0,0.0,0.0,0.0,0.0,0.0,0.0,0.0,0.0,0.0,0.0,0.0,0.0,0.0,0.0,0.0,0.0,0.0,0.0,0.0,0.0,0.0,0.0,0.0,0.0,0.0,0.0,0.0,0.0,0.0,0.0,0.0,0.0,0.0,0.0,0.0,0.0,0.0,-4.2176,-4.1989,0.0,0.0,0.0,0.0,0.0,0.0,0.0,0.0,-4.2611,0.0,0.0,0.0,0.0,0.0,0.0,0.0,0.0,0.0,0.0,0.0,0.0,0.0,0.0,0.0,0.0,0.0,0.0,0.0,0.0,0.0,0.0,0.0,0.0,0.0,0.0,0.0,0.0,0.0,0.0,0.0,0.0,0.0,0.0,0.0,0.0,0.0,0.0,0.0,0.0,0.0,0.0,0.0,0.0,0.0,0.0,0.0,0.0,0.0,0.0,0.0,0.0,0.0,0.0,0.0,0.0,-3.3675,-3.3819,-3.3282,-3.2088,-3.3003,-3.3272,-3.2534,-3.2714,-3.253,-3.1861,0.0,0.0,0.0,0.0,0.0,0.0,0.0,0.0,0.0,0.0,0.0,0.0,0.0,0.0,0.0,0.0,0.0,0.0,0.0,0.0,0.0,0.0,0.0,0.0,0.0,0.0,0.0,0.0,0.0,0.0,0.0,0.0,0.0,0.0,0.0,0.0,0.0,0.0,0.0,-4.337,-4.3211,0.0,0.0,0.0,0.0,0.0,0.0,0.0,0.0,-4.3738,0.0,0.0,0.0,0.0,0.0,0.0,0.0,0.0,0.0,0.0,0.0,0.0,0.0,0.0,0.0,0.0,0.0,0.0,0.0,0.0,0.0,0.0,0.0,0.0,0.0,0.0,0.0,0.0,0.0,0.0,0.0,0.0,0.0,0.0,0.0,0.0,0.0,0.0,0.0,0.0,0.0,0.0,0.0,0.0,0.0,0.0,0.0,0.0,0.0,0.0,0.0,0.0,0.0,0.0,0.0,-3.3821,-3.3813,-3.3245,-3.2018,-3.304,-3.3277,-3.259,-3.3297,-3.3189,0.0,0.0,0.0,0.0,0.0,0.0,0.0,0.0,0.0,0.0,0.0,0.0,0.0,0.0,0.0,0.0,0.0,0.0,0.0,0.0,0.0,0.0,0.0,0.0,0.0,0.0,0.0,0.0,0.0,0.0,0.0,0.0,0.0,0.0,0.0,0.0,0.0,0.0,0.0,0.0,-4.3964,-4.4158,-4.4006,0.0,0.0,0.0,0.0,0.0,0.0,-4.231,-4.2782,0.0,0.0,0.0,0.0,0.0,0.0,0.0,0.0,0.0,0.0,0.0,0.0,0.0,0.0,0.0,0.0,0.0,0.0,0.0,0.0,0.0,0.0,0.0,0.0,0.0,0.0,0.0,0.0,0.0,0.0,0.0,0.0,0.0,0.0,0.0,0.0,0.0,0.0,0.0,0.0,0.0,0.0,0.0,0.0,0.0,0.0,0.0,0.0,0.0,0.0,0.0,0.0,0.0,0.0,0.0,-3.386,-3.3791,-3.324,-3.2276,-3.314,-3.349,-3.3123,-3.4086,-3.3991,0.0,0.0,0.0,0.0,0.0,0.0,0.0,0.0,0.0,0.0,0.0,0.0,0.0,0.0,0.0,0.0,0.0,0.0,0.0,0.0,0.0,0.0,0.0,0.0,0.0,0.0,0.0,0.0,0.0,0.0,0.0,0.0,0.0,0.0,0.0,0.0,0.0,0.0,0.0,0.0,0.0,-4.5097,-4.536,-4.4159,0.0,0.0,0.0,0.0,-4.1906,-4.2234,0.0,0.0,0.0,0.0,0.0,0.0,0.0,0.0,0.0,0.0,0.0,0.0,0.0,0.0,0.0,0.0,0.0,0.0,0.0,0.0,0.0,0.0,0.0,0.0,0.0,0.0,0.0,0.0,0.0,0.0,0.0,0.0,0.0,0.0,0.0,0.0,0.0,0.0,0.0,0.0,0.0,0.0,0.0,0.0,0.0,0.0,0.0,0.0,0.0,0.0,0.0,0.0,0.0,0.0,0.0,0.0,-3.4126,-3.4362,-3.428,-3.4074,-3.487,-3.5673,-3.629,-3.6646,-3.6232,0.0,0.0,0.0,0.0,0.0,0.0,0.0,0.0,0.0,0.0,0.0,0.0,0.0,0.0,0.0,0.0,0.0,0.0,0.0,0.0,0.0,0.0,0.0,0.0,0.0,0.0,0.0,0.0,0.0,0.0,0.0,0.0,0.0,0.0,0.0,0.0,0.0,0.0,0.0,0.0,0.0,-4.6247,-4.3381,-4.3244,-4.285,0.0,0.0,-4.233,-4.351,-4.5376,0.0,0.0,0.0,0.0,0.0,0.0,0.0,0.0,0.0,0.0,0.0,0.0,0.0,0.0,0.0,0.0,0.0,0.0,0.0,0.0,0.0,0.0,0.0,0.0,0.0,0.0,0.0,0.0,0.0,0.0,0.0,0.0,0.0,0.0,0.0,0.0,0.0,0.0,0.0,0.0,0.0,0.0,0.0,0.0,0.0,0.0,0.0,0.0,0.0,0.0,0.0,0.0,0.0,0.0,0.0,-3.5196,-3.4664,-3.4967,-3.4913,-3.4447,-3.492,-3.5743,-3.6914,-3.6528,-3.6211,0.0,0.0,0.0,0.0,0.0,0.0,0.0,0.0,0.0,0.0,0.0,0.0,0.0,0.0,0.0,0.0,0.0,0.0,0.0,0.0,0.0,0.0,0.0,0.0,0.0,0.0,0.0,0.0,0.0,0.0,0.0,0.0,0.0,0.0,0.0,0.0,0.0,0.0,0.0,0.0,0.0,0.0,-4.4782,-4.462,0.0,0.0,0.0,-4.3355,-4.3906,0.0,0.0,0.0,0.0,0.0,0.0,0.0,0.0,0.0,0.0,0.0,0.0,0.0,0.0,0.0,0.0,0.0,0.0,0.0,0.0,0.0,0.0,0.0,0.0,0.0,0.0,0.0,0.0,0.0,0.0,0.0,0.0,0.0,0.0,0.0,0.0,0.0,0.0,0.0,0.0,0.0,0.0,0.0,0.0,0.0,0.0,0.0,0.0,0.0,0.0,0.0,0.0,0.0,0.0,0.0,0.0,0.0,-3.5054,-3.577,-3.5789,-3.5133,-3.5352,-3.6125,-3.7337,-3.6753,0.0,0.0,0.0,0.0,0.0,0.0,0.0,0.0,0.0,0.0,0.0,0.0,0.0,0.0,0.0,0.0,0.0,0.0,0.0,0.0,0.0,0.0,0.0,0.0,0.0,0.0,0.0,-4.3023,0.0,0.0,0.0,0.0,0.0,0.0,0.0,0.0,0.0,0.0,0.0,0.0,0.0,0.0,-4.5769,-4.5936,-4.6167,-4.6552,0.0,0.0,-4.4807,-4.4892,-4.6745,-4.7174,0.0,0.0,0.0,0.0,0.0,0.0,0.0,0.0,0.0,0.0,0.0,0.0,0.0,0.0,0.0,0.0,0.0,0.0,0.0,0.0,0.0,0.0,0.0,0.0,0.0,0.0,0.0,0.0,0.0,0.0,0.0,0.0,0.0,0.0,0.0,0.0,0.0,0.0,0.0,0.0,0.0,0.0,0.0,0.0,0.0,0.0,0.0,0.0,0.0,0.0,0.0,0.0,0.0,0.0,-3.6357,-3.5345,-3.6824,-3.7372,-3.6914,-3.7169,-3.7692,-3.8519,-3.8492,-3.7989,0.0,0.0,0.0,0.0,0.0,0.0,0.0,0.0,0.0,0.0,0.0,0.0,0.0,0.0,0.0,0.0,0.0,0.0,0.0,0.0,0.0,0.0,0.0,0.0,0.0,0.0,0.0,0.0,0.0,0.0,0.0,0.0,0.0,0.0,0.0,0.0,0.0,0.0,0.0,0.0,0.0,-4.6116,-4.5503,-4.7175,-4.8521,0.0,-4.7819,-4.7021,-4.7231,-5.0363,-5.0845,-4.511,0.0,0.0,0.0,0.0,0.0,0.0,0.0,0.0,0.0,0.0,0.0,0.0,0.0,0.0,0.0,0.0,0.0,0.0,0.0,0.0,0.0,0.0,0.0,0.0,0.0,0.0,0.0,0.0,0.0,0.0,0.0,0.0,0.0,0.0,0.0,0.0,0.0,0.0,0.0,0.0,0.0,0.0,0.0,0.0,0.0,0.0,0.0,0.0,0.0,0.0,0.0,0.0,0.0,-3.6796,-3.6272,-3.751,-3.8131,-3.8076,-3.8075,-3.851,-3.9261,-3.9446,-3.8693,0.0,0.0,0.0,0.0,0.0,0.0,0.0,0.0,0.0,0.0,0.0,0.0,0.0,0.0,0.0,0.0,0.0,0.0,0.0,0.0,0.0,0.0,0.0,0.0,0.0,0.0,0.0,0.0,-4.0692,-4.0282,-4.0249,0.0,0.0,0.0,0.0,0.0,0.0,0.0,0.0,0.0,0.0,-4.5117,-4.6402,-4.7201,0.0,0.0,-4.9085,-4.8581,-4.8241,-5.0036,-5.0056,-4.6071,-4.5615,0.0,0.0,0.0,0.0,0.0,0.0,0.0,0.0,0.0,0.0,0.0,0.0,0.0,0.0,0.0,0.0,0.0,0.0,0.0,0.0,0.0,0.0,0.0,0.0,0.0,0.0,0.0,0.0,0.0,0.0,0.0,0.0,0.0,0.0,0.0,0.0,0.0,0.0,0.0,0.0,0.0,0.0,0.0,0.0,0.0,0.0,0.0,0.0,0.0,0.0,0.0,0.0,-3.7357,-3.709,-3.8373,-3.9175,-3.9371,-3.9382,-3.9508,-3.9879,-4.0267,-3.9596,0.0,0.0,0.0,0.0,0.0,0.0,0.0,0.0,0.0,0.0,0.0,0.0,0.0,0.0,0.0,0.0,0.0,0.0,0.0,0.0,0.0,0.0,0.0,0.0,0.0,0.0,0.0,0.0,-4.0436,-3.9993,-3.9292,0.0,0.0,0.0,0.0,0.0,0.0,0.0,0.0,0.0,0.0,-4.5094,-4.7125,-4.7633,-4.8238,-4.969,-4.9314,-4.8819,-4.8843,-4.9801,-4.9555,-4.6888,0.0,0.0,0.0,0.0,0.0,0.0,0.0,0.0,0.0,0.0,0.0,0.0,0.0,0.0,0.0,0.0,0.0,0.0,0.0,0.0,0.0,0.0,0.0,0.0,0.0,0.0,0.0,0.0,0.0,0.0,-3.3602,0.0,0.0,0.0,0.0,0.0,0.0,0.0,0.0,0.0,0.0,0.0,0.0,0.0,0.0,0.0,0.0,0.0,0.0,0.0,0.0,0.0,0.0,-3.7963,-3.7767,-3.9484,-4.0631,-4.1018,-4.1222,-4.0996,-4.049,-4.1219,-4.0829,-3.9237,0.0,0.0,0.0,0.0,0.0,0.0,0.0,0.0,0.0,0.0,0.0,0.0,0.0,0.0,0.0,0.0,0.0,0.0,0.0,0.0,0.0,0.0,0.0,0.0,0.0,0.0,-4.0317,-3.989,-3.9429,0.0,0.0,0.0,0.0,0.0,0.0,0.0,0.0,0.0,0.0,-4.4385,-4.6604,-4.761,-4.8437,-4.9102,-4.9846,-4.8377,-4.7604,-4.9088,-5.0274,-5.0034,0.0,0.0,0.0,0.0,0.0,0.0,0.0,0.0,0.0,0.0,0.0,0.0,0.0,0.0,0.0,0.0,0.0,0.0,0.0,0.0,0.0,0.0,0.0,0.0,0.0,0.0,0.0,-3.4492,-3.4767,0.0,0.0,0.0,0.0,0.0,0.0,0.0,0.0,0.0,0.0,0.0,-3.8973,-3.9561,0.0,0.0,0.0,0.0,0.0,0.0,0.0,0.0,0.0,0.0,0.0,0.0,-3.8673,-3.8632,-4.0804,-4.1776,-4.1409,-4.1903,-4.1972,-4.1443,-4.1773,-4.1797,-4.1436,0.0,0.0,0.0,0.0,0.0,0.0,0.0,0.0,0.0,0.0,0.0,0.0,0.0,0.0,0.0,0.0,0.0,0.0,0.0,0.0,0.0,0.0,0.0,0.0,0.0,-3.9657,0.0,0.0,0.0,0.0,0.0,0.0,0.0,0.0,0.0,0.0,0.0,-4.1557,-4.3039,-4.4662,-4.6371,-4.8131,-4.8527,-4.9264,0.0,0.0,0.0,0.0,0.0,0.0,0.0,0.0,0.0,0.0,0.0,0.0,0.0,0.0,-4.9626,-4.6191,-4.4514,-4.3793,-4.434,0.0,0.0,0.0,0.0,0.0,0.0,0.0,0.0,0.0,0.0,0.0,0.0,0.0,0.0,-3.5858,0.0,-3.6592,0.0,0.0,0.0,0.0,0.0,0.0,0.0,0.0,-3.9029,-4.0231,-4.1204,-4.1693,-4.2058,0.0,-4.1664,-4.0511,0.0,0.0,0.0,0.0,0.0,0.0,0.0,0.0,-3.9454,-3.9327,-4.1643,-4.2592,-4.2025,-4.2755,-4.2817,-4.2037,-4.2178,-4.2469,-4.2863,-4.1385,-4.0311,0.0,0.0,0.0,0.0,0.0,0.0,0.0,0.0,0.0,0.0,0.0,0.0,0.0,0.0,0.0,0.0,0.0,0.0,0.0,0.0,0.0,0.0,0.0,-3.958,0.0,0.0,0.0,0.0,0.0,0.0,0.0,0.0,0.0,-4.1241,-4.2126,-4.3388,-4.4997,-4.6048,-4.7076,-4.8419,0.0,0.0,0.0,0.0,0.0,0.0,0.0,-4.8794,-4.752,-4.7703,-4.8133,-4.8349,-4.9775,-5.0824,-5.0537,0.0,0.0,-4.7517,-4.6051,-4.5297,-4.532,-4.5286,-4.5171,-4.4959,-4.5125,-4.5152,0.0,0.0,0.0,0.0,0.0,0.0,0.0,0.0,-3.6807,-3.7361,0.0,-3.8713,0.0,0.0,0.0,0.0,0.0,-3.8877,0.0,0.0,-4.1908,-4.2844,-4.3652,-4.2885,-4.2937,-4.3722,-4.4471,-4.4091,-4.2684,-4.0657,0.0,0.0,0.0,0.0,0.0,0.0,-4.0162,-4.0222,-4.2081,-4.2958,-4.2816,-4.3756,-4.3615,-4.2281,-4.2478,-4.2925,-4.3508,-4.289,-4.2535,-4.2485,-4.1455,0.0,0.0,0.0,0.0,0.0,0.0,0.0,0.0,0.0,0.0,0.0,0.0,0.0,0.0,0.0,0.0,0.0,0.0,0.0,0.0,-4.1405,0.0,0.0,0.0,0.0,0.0,0.0,0.0,0.0,0.0,0.0,-4.3749,-4.4297,-4.5516,-4.7569,0.0,0.0,0.0,0.0,-4.7947,-4.8669,-4.7056,-4.6573,-4.8627,-4.8488,-4.8067,-4.8001,0.0,0.0,-4.926,-4.9703,-4.9997,-4.9302,-4.9243,-4.9541,-5.0824,-4.967,-4.8369,-4.7115,-4.6781,-4.6444,-4.5788,-4.6251,-4.6484,-3.9903,0.0,0.0,0.0,0.0,-3.8339,-3.9212,-4.0472,-4.0553,-4.0619,-4.0705,-4.0976,0.0,0.0,0.0,0.0,0.0,0.0,-3.9847,-4.0973,-4.238,-4.3808,-4.5218,-4.5662,-4.6182,-4.6673,-4.5882,-4.5388,-4.5065,-4.3476,-4.2272,-4.1393,0.0,0.0,0.0,0.0,-4.1091,-4.1614,-4.3073,-4.3571,-4.3059,-4.3448,-4.3277,-4.251,-4.3027,-4.3394,-4.3591,-4.341,-4.3048,-4.2535,-4.2275,0.0,0.0,0.0,0.0,0.0,0.0,0.0,0.0,0.0,0.0,0.0,0.0,0.0,0.0,0.0,0.0,0.0,0.0,0.0,-4.1299,-4.0984,-4.0531,0.0,0.0,0.0,0.0,0.0,0.0,0.0,0.0,0.0,-4.5843,-4.5765,-4.6239,0.0,0.0,-4.8264,-4.8882,-4.8828,-4.8936,-4.9671,-4.93,0.0,-4.976,-4.9257,-4.8614,-4.8084,-4.8812,-4.9525,-4.9839,-5.0036,-5.0135,-4.9937,-4.9889,-4.9909,-4.9707,-4.922,-4.8804,-4.8819,-4.8803,-4.8697,-4.847,-4.8271,-4.7881,-4.325,-4.0346,-3.9887,-3.9671,-3.9651,-4.0139,-4.099,-4.2189,-4.2455,-4.2685,-4.2917,-4.3004,-4.2138,-4.0614,-4.0344,0.0,0.0,0.0,-4.1445,-4.313,-4.3972,-4.488,-4.5747,-4.6407,-4.6749,-4.6682,-4.5824,-4.5469,-4.5619,-4.4299,-4.3575,-4.335,0.0,0.0,-4.1839,-4.1758,-4.2052,-4.2691,-4.3801,-4.403,-4.339,-4.3407,-4.3336,-4.3007,-4.3372,-4.3645,-4.3645,-4.3645,-4.3429,-4.2982,-4.2767,-4.2332,0.0,0.0,0.0,0.0,0.0,0.0,0.0,0.0,0.0,0.0,0.0,-4.3606,-4.2697,0.0,0.0,0.0,-4.2106,-4.1634,-4.1304,-4.1313,0.0,0.0,0.0,0.0,0.0,0.0,0.0,-4.3943,-4.4671,-4.545,-4.6344,-4.6143,-4.6653,-4.8715,-4.8597,-4.8502,-4.8993,0.0,-4.8904,-4.9672,-4.9236,-4.9052,-4.9639,-4.9144,-4.8514,-4.8084,-4.8365,-4.8779,-4.9226,-4.9326,-4.9342,-4.9342,-4.9342,-4.916,-4.8729,-4.8736,-4.889,-4.9292,-4.9493,-4.9591,-4.9499,-4.9222,-4.8711,-4.5607,-4.4261,-4.2093,-4.0786,-4.0294,-4.1071,-4.1881,-4.2582,-4.3324,-4.4024,-4.4729,-4.4704,-4.4295,-4.3436,-4.1899,0.0,-4.4091,-4.3106,-4.3989,-4.6372,-4.59,-4.5583,-4.5567,-4.5645,-4.5314,-4.4736,-4.472,-4.4754,-4.4805,-4.3712,-4.385,-4.5187,-4.3388,-4.2475,-4.2684,-4.2518,-4.2816,-4.3611,-4.4208,-4.4208,-4.3645,-4.3645,-4.3645,-4.3568,-4.3645,-4.3645,-4.3645,-4.3645,-4.3645,-4.3611,-4.3066,-4.2724,-4.2649,0.0,0.0,0.0,0.0,0.0,0.0,0.0,0.0,0.0,0.0,0.0,0.0,0.0,0.0,-4.2671,-4.232,0.0,-4.2426,-4.2259,0.0,0.0,0.0,-4.3124,-4.3562,-4.4257,-4.4655,-4.4605,0.0,0.0,-4.5698,-4.5765,-4.6808,-4.9508,-4.9326,-4.8995,-4.911,-4.8466,-4.8295,-4.896,-4.7877,-4.7512,-4.8778,-4.8481,-4.8067,-4.8017,-4.8001,-4.805,-4.8084,-4.8084,-4.8034,-4.81,-4.8017,-4.8034,-4.8017,-4.8476,-4.883,-4.8747,-4.9231,-4.9537,-4.9238,-4.9137,-4.8915,-4.6415,-4.4532,-4.4787,-4.442,-4.3644,-4.4358,-4.4507,-4.4557,-4.5169,-4.5257,-4.4872,-4.5339,-4.5107,-4.4279,-4.3353,-4.3534,-4.4476,-4.3701,-4.3821,-4.4569,-4.4296,-4.4205,-4.4373,-4.4626,-4.4486,-4.3847,-4.3991,-4.3835,-4.3564,-4.3425,-4.3298,-4.3276,-4.3295,-4.3568,-4.4075,-4.2518,-4.2319,-4.3611,-4.3247,-4.323,-4.3628,-4.3645,-4.3645,-4.3645,-4.3645,-4.3645,-4.3645,-4.3645,-4.3645,-4.3628,-4.3446,-4.314,-4.2732,-4.232,0.0,0.0,0.0,0.0,0.0,0.0,0.0,0.0,0.0,-4.2705,-4.1974,0.0,-4.196,0.0,-4.2888,-4.392,-4.4423,-4.4323,0.0,0.0,-4.4235,-4.4145,-4.3839,-4.4301,-4.4473,-4.3943,-4.4489,-4.4953,-4.4953,-4.5433,-4.603,-4.6775,-4.7189,-4.7868,-4.8911,-4.8942,-4.8678,-4.8365,-4.8381,-4.8463,-4.8283,-4.8133,-4.8001,-4.8001,-4.8001,-4.8001,-4.8001,-4.8001,-4.8001,-4.8001,-4.8001,-4.8001,-4.8001,-4.8146,-4.8366,-4.8751,-4.9266,-4.9381,-4.878,-4.8547,-4.8235,-4.555,-4.4176,-4.5344,-4.5405,-4.4626,-4.5058,-4.5202,-4.5046,-4.5761,-4.5551,-4.4932,-4.4914,-4.4499,-4.3678,-4.3301,-4.3512,-4.4131,-4.3908,-4.3843,-4.4003,-4.4146,-4.3741,-4.3062,-4.3394,-4.3168,-4.2268,-4.2355,-4.2365,-4.2322,-4.2433,-4.2524,-4.2574,-4.2928,-4.3459,-4.4139,-4.2999,-4.2789,-4.3633,-4.2928,-4.3032,-4.4059,-4.3794,-4.3645,-4.3611,-4.3356,-4.3173,-4.319,-4.3007,-4.2841,-4.2824,-4.2824,-4.2699,-4.2378,-4.1738,-4.1102,0.0,0.0,0.0,0.0,0.0,0.0,0.0,0.0,0.0,0.0,0.0,-4.2295,-4.2061,-4.3345,-4.4322,-4.4549,-4.4747,-4.487,-4.487,-4.5153,-4.5125,-4.4726,-4.4998,-4.5019,-4.4638,-4.4655,-4.4688,-4.4705,-4.4771,-4.497,-4.5268,-4.5947,-4.6794,-4.7886,-4.8134,-4.8084,-4.8034,-4.8349,-4.8498,-4.805,-4.8001,-4.8001,-4.8001,-4.8001,-4.8001,-4.8001,-4.8001,-4.8001,-4.8001,-4.8001,-4.8001,-4.8001,-4.8001,-4.8115,-4.8413,-4.8652,-4.8571,-4.8116,-4.7682,-4.7181,-4.4024,-4.3584,-4.4636,-4.4864,-4.4411,-4.4705,-4.4797,-4.4797,-4.5489,-4.5416,-4.4778,-4.3921,-4.3189,-4.2644,-4.2629,-4.2968,-4.3596,-4.3678,-4.376,-4.3842,-4.4313,-4.3539,-4.1972,-4.2256,-4.1862,-4.0808,-4.0863,-4.0962,-4.1133,-4.1252,-4.1653,-4.2327,-4.2453,-4.28,-4.3406,-4.3555,-4.3542,-4.3428,-4.2863,-4.3195,-4.4393,-4.3636,-4.3224,-4.3191,-4.2675,-4.2394,-4.2451,-4.2055,-4.1849,-4.1921,-4.1921,-4.1954,-4.1949,-4.0838,-4.0471,0.0,-4.0036,0.0,0.0,0.0,0.0,0.0,0.0,0.0,0.0,-4.2859,-4.2892,-4.3037,-4.3746,-4.4098,-4.3981,-4.4737,-4.5219,-4.5069,-4.5652,-4.6034,-4.5682,-4.5649,-4.5616,-4.5516,-4.4937,-4.4539,-4.4506,-4.4009,-4.3893,-4.4473,-4.4929,-4.5593,-4.6452,-4.6782,-4.7177,-4.7655,-4.7721,-4.757,-4.7588,-4.7638,-4.7638,-4.7638,-4.7721,-4.7836,-4.777,-4.7919,-4.8001,-4.8001,-4.8001,-4.8001,-4.8001,-4.8001,-4.8001,-4.8049,-4.7948,-4.7776,-4.7489,-4.6975,-4.618,-4.3585,-4.3032,-4.3679,-4.4153,-4.4411,-4.4411,-4.4518,-4.4504,-4.523,-4.5198,-4.4538,-4.3313,-4.2747,-4.2644,-4.282,-4.2975,-4.3093,-4.2798,-4.2798,-4.2961,-4.2524,-4.2184,-4.2056,-4.2107,-4.1842,-4.1311,-4.1451,-4.1053,-4.0304,-4.1051,-4.1187,-4.0847,-4.1962,-4.2564,-4.269,0.0,0.0,0.0,-4.2275,-4.2627,-4.2839,-4.1693,-4.1165,-4.1307,-4.071,0.0,-4.1247,-4.119,-4.1425,-4.1849,-4.1921,0.0,0.0,0.0,0.0,0.0,0.0,0.0,0.0,0.0,0.0,0.0,-4.2025,-4.2275,-4.2943,-4.2533,-4.2517,-4.311,-4.414,-4.473,-4.4747,-4.6371,-4.6955,-4.5844,-4.6291,-4.6275,-4.5086,-4.4887,-4.4688,-4.4092,-4.391,-4.3843,-4.3843,-4.3694,-4.3618,-4.3783,-4.3485,-4.3725,-4.4894,-4.6012,-4.6601,-4.6253,-4.6269,-4.6198,-4.6127,-4.6214,-4.6269,-4.6198,-4.6689,-4.6949,-4.7036,-4.7572,-4.7984,-4.7968,-4.8001,-4.7984,-4.8001,-4.8001,-4.8001,-4.8001,-4.7998,-4.7738,-4.7048,-4.6606,-4.6178,-4.2349,0.0,-4.2898,-4.3368,0.0,-4.4209,-4.4425,-4.4397,-4.4443,-4.3953,-4.3056,-4.2091,-4.1659,-4.1659,-4.1908,-4.199,-4.2005,-4.2382,-4.2436,-4.2213,-4.227,-4.2096,-4.1599,-4.1666,-4.1492,-4.1101,-4.1336,-4.1151,-4.074,-4.1202,-4.1255,-4.0895,-4.1954,-4.2406,-4.2406,-4.3067,-4.3247,-4.3005,-4.266,-4.2817,-4.3447,-4.222,-4.1718,-4.21,0.0,0.0,0.0,0.0,0.0,0.0,0.0,0.0,0.0,0.0,0.0,-4.2295,-4.205,-4.2016,-4.2278,-4.2384,-4.2607,-4.2862,-4.2936,-4.2992,-4.3005,-4.3074,-4.3199,-4.3545,-4.4673,-4.5419,-4.5424,-4.6988,-4.7404,-4.603,-4.6146,-4.5765,-4.4456,-4.4175,-4.4026,-4.3711,-4.3645,-4.3645,-4.3645,-4.3295,-4.3096,-4.3068,-4.2813,-4.2783,-4.3444,-4.4455,-4.525,-4.5627,-4.5697,-4.5697,-4.5697,-4.5697,-4.5539,-4.5373,-4.5531,-4.5736,-4.5772,-4.6158,-4.6602,-4.7224,-4.7438,-4.7554,-4.7934,-4.8001,-4.8001,-4.8001,-4.8001,-4.7585,-4.6569,-4.6169,-4.5899,-4.1126,-4.126,-4.2071,-4.2582,-4.2889,-4.3709,-4.4153,-4.4214,0.0,0.0,0.0,-4.1379,-4.1041,-4.0956,-4.1171,-4.1284,-4.1213,-4.2179,-4.2319,-4.1829,-4.2502,-4.2266,-4.1294,-4.1492,-4.1454,-4.1126,-4.1359,-4.1516,-4.1564,-4.1549,-4.1564,-4.1609,-4.2102,-4.2417,-4.2566,-4.306,-4.3654,-4.4237,-4.2967,-4.2813,-4.3975,-4.2567,-4.2066,-4.2613,-4.1543,-4.0999,-4.1114,-4.0658,-4.0213,-3.9994,-3.9946,-4.0345,-4.1023,-4.1098,-4.1354,-4.1863,-4.2009,-4.2259,-4.2692,-4.2989,-4.3272,-4.3671,-4.3747,-4.3581,-4.3227,-4.3746,-4.3998,-4.3898,-4.5063,-4.5657,-4.5433,-4.6742,-4.7023,-4.5566,-4.5516,-4.5052,-4.3843,-4.3645,-4.3661,-4.3645,-4.3645,-4.3568,-4.3355,-4.2958,-4.2506,-4.2445,-4.22,-4.2291,-4.2318,-4.3122,-4.4075,-4.4892,-4.502,-4.5153,-4.5086,-4.495,-4.4877,-4.4106,-4.4196,-4.4329,-4.4417,-4.4591,-4.5277,-4.6453,-4.6794,-4.7222,-4.7835,-4.8001,-4.8001,-4.8001,-4.8001,-4.7621,-4.6531,-4.5983,-4.5562,-4.0746,-4.1191,-4.0879,-4.155,-4.2792,-4.2999,-4.3296,-4.3624,-4.354,-4.3385,-4.3202,-4.2735,-4.2332,-4.1851,-4.2281,-4.215,-4.1633,-4.1999,-4.2165,0.0,-4.2179,-4.2136,-4.1961,-4.2179,-4.2283,-4.2423,-4.2634,-4.2604,-4.2267,-4.2299,-4.2237,-4.2314,-4.2404,-4.2641,-4.315,-4.3284,-4.3364,-4.3449,-4.2212,-4.1626,-4.1836,-3.9994,-3.9113,-3.9343,-3.869,-3.8509,-3.9167,-3.9169,-3.9298,-3.9779,-3.9962,-4.0312,-4.0906,-4.1077,-4.1445,-4.2058,-4.2512,-4.2778,-4.2843,-4.3284,-4.3393,-4.3084,-4.2634,-4.2818,-4.3831,-4.3931,-4.3898,-4.3931,-4.4527,-4.4649,-4.4108,-4.5301,-4.5632,-4.4291,-4.4506,-4.4506,-4.3727,-4.3645,-4.3645,-4.3645,-4.3645,-4.3372,-4.2912,-4.2648,-4.2253,-4.1722,-4.133,-4.1016,-4.1571,-4.2545,-4.3328,-4.3585,-4.363,-4.3389,-4.3213,-4.2863,-4.2773,-4.1987,-4.2487,-4.2829,-4.2825,-4.3711,-4.4721,-4.5763,-4.6356,-4.7075,-4.7802,-4.8001,-4.8001,-4.8001,-4.8001,-4.7852,-4.7439,-4.6703,-4.5568,-4.0401,-4.0389,-4.0358,-4.1016,-4.2012,-4.3204,-4.3543,-4.3322,-4.3294,-4.3305,-4.3116,-4.2658,-4.232,-4.2195,-4.2123,-4.199,-4.1702,-4.1995,-4.2092,-4.2092,-4.2092,-4.2092,-4.2092,-4.2392,-4.2622,-4.2688,-4.301,-4.3101,-4.291,-4.2895,-4.288,-4.288,-4.288,-4.303,-4.3299,-4.3344,-4.3344,-4.3314,-4.2402,-4.2073,-4.2387,-4.0846,-4.0261,-4.0679,-4.0064,-3.9666,-3.968,-3.968,-3.9703,-3.974,-3.9874,-4.0278,-4.0889,-4.1116,-4.1485,-4.2093,-4.2318,-4.2445,-4.2445,-4.2522,-4.2522,-4.2142,-4.1884,-4.1997,-4.2615,-4.3113,-4.3328,-4.3267,-4.4075,-4.4434,-4.3752,-4.4966,-4.5367,-4.4324,-4.4506,-4.4373,-4.3794,-4.3645,-4.3645,-4.3568,-4.3235,-4.2912,-4.2648,-4.1933,-4.1409,-4.0956,-4.0647,-4.0603,-4.0815,-4.1654,-4.2551,-4.3165,-4.3329,-4.3045,-4.2476,-4.2357,-4.1938,-4.104,-4.1128,-4.137,-4.1438,-4.2166,-4.3014,-4.4365,-4.529,-4.6126,-4.7144,-4.7753,-4.7968,-4.8001,-4.8001,-4.7918,-4.755,-4.6536,-4.5379,-4.0186,-3.9671,-4.0079,-4.0433,-4.1032,-4.2916,-4.3232,-4.2629,-4.2616,-4.2491,-4.2348,-4.2237,-4.2202,-4.2164,-4.2008,-4.193,-4.1814,-4.1995,-4.2092,-4.2092,-4.2092,-4.2092,-4.2175,-4.2541,-4.2688,-4.2769,-4.317,-4.3344,-4.3344,-4.3344,-4.3344,-4.3344,-4.3344,-4.3344,-4.3344,-4.3344,-4.3344,-4.3299,-4.2686,-4.2596,-4.306,-4.1833,-4.1399,-4.1818,-4.125,-4.0696,-4.0217,-4.0187,-4.0006,-3.967,-3.9854,-4.0261,-4.0768,-4.0972,-4.1307,-4.172,-4.1835,-4.19,-4.1964,-4.1672,-4.1459,-4.1327,-4.1194,-4.1209,-4.1393,-4.1948,-4.2412,-4.2445,-4.3307,-4.3695,-4.3331,-4.4105,-4.4647,-4.4245,-4.4039,-4.3748,-4.3394,-4.3218,-4.3096,-4.3035,-4.2648,-4.2317,-4.1997,-4.1209,-4.0547,-4.0331,-4.0238,-4.0212,-4.0441,-4.0905,-4.164,-4.2476,-4.2895,-4.2566,-4.2058,-4.1863,-4.1369,-4.0337,-4.0187,-4.0269,-4.0304,-4.0401,-4.1289,-4.3073,-4.4106,-4.5245,-4.6553,-4.7324,-4.7769,-4.7918,-4.8001,-4.7865,-4.7174,-4.6428,-4.531,-4.0511,-3.9669,-3.9647,-3.9655,-3.9943,-4.1019,-4.1229,-4.0794,-4.0936,-4.0853,-4.0776,-4.2247,-4.2475,-4.2167,-4.2596,-4.2557,-4.2107,-4.2092,-4.2092,-4.2092,-4.2092,-4.2175,-4.2392,-4.2622,-4.2754,-4.2981,-4.3155,-4.3344,-4.3344,-4.3344,-4.3344,-4.3344,-4.3344,-4.3344,-4.3359,-4.3344,-4.3344,-4.3314,-4.2701,-4.2387,-4.2357,-4.116,-4.0516,-4.0561,-3.9963,-3.9574,-3.9559,-3.9514,-3.9484,-3.9496,-3.9783,-3.9996,-4.0137,-4.0385,-4.0593,-4.0662,-4.0972,-4.1194,-4.1475,-4.1075,-4.0789,-4.0721,-4.037,-4.0316,-4.0737,-4.0873,-4.1142,-4.1491,-4.172,-4.193,-4.167,-4.1944,-4.2414,-4.2812,-4.235,-4.198,-4.2539,-4.211,-4.1656,-4.1738,-4.1722,-4.1393,-4.094,-4.0615,-4.0216,-3.9681,-3.9628,-3.9796,-4.0172,-4.0379,-4.0708,-4.137,-4.1564,-4.1324,-4.0846,-4.0606,-4.0397,-3.9738,-3.9544,-3.9571,-3.9711,-4.0207,-4.0978,-4.2285,-4.3405,-4.4594,-4.6109,-4.7027,-4.7272,-4.7917,-4.8032,-4.7878,-4.6915,-4.6445,-4.5841,-4.0559,-3.9621,-3.9609,-3.9609,-3.9775,-4.0718,-4.0694,-3.999,-4.0063,-3.9641,-3.9136,-3.9972,-4.0872,-4.1807,-4.2294,-4.2324,-4.2107,-4.2092,-4.2092,-4.2092,-4.2092,-4.2257,-4.2392,-4.2607,-4.2769,-4.2996,-4.325,-4.3344,-4.3344,-4.3344,-4.3344,-4.3344,-4.3344,-4.3524,-4.3838,-4.3539,-4.3524,-4.3868,-4.3269,-4.2925,-4.2776,-4.1654,-4.098,-4.092,-4.0337,-3.9813,-3.9469,-3.9424,-3.9424,-3.9424,-3.9783,-4.0011,-4.0011,-4.0331,-4.0524,-4.0524,-4.0509,-4.0578,-4.0478,-4.0216,-4.0076,-3.995,-3.9768,-3.9768,-3.9879,-3.995,-4.0005,-4.027,-4.0992,-4.1327,-4.1008,-4.126,-4.1672,-4.1868,-4.1656,-4.1591,-4.1917,-4.1656,-4.1525,-4.1459,-4.1142,-4.0805,-4.0478,-4.0146,-3.9753,-3.9424,-3.9424,-3.9574,-3.9798,-3.9796,-3.9901,-4.0098,-4.0217,-4.0307,-4.0322,-4.0412,-4.0098,-3.9634,-3.9424,-3.9424,-3.9553,-4.0005,-4.0863,-4.1853,-4.2877,-4.4171,-4.589,-4.6662,-4.7121,-4.7832,-4.8356,-4.8262,-4.7334,-4.6868,-4.627,-4.0319,-3.9609,-3.9296,-3.9114,-3.9221,-4.0007,-3.9791,-3.912,-3.9082,-3.8616,-3.7764,-3.8286,-3.9465,-4.09,-4.1468,-4.1814,-4.2092,-4.2092,-4.2092,-4.2092,-4.2092,-4.2242,-4.2474,-4.2622,-4.2835,-4.3076,-4.325,-4.3344,-4.3344,-4.3344,-4.3419,-4.3569,-4.3599,-4.3838,-4.4197,-4.3808,-4.3733,-4.3958,-4.3569,-4.3254,-4.294,-4.1968,-4.1384,-4.1309,-4.0561,-3.9903,-3.9454,-3.9424,-3.9424,-3.9424,-3.9783,-4.0011,-4.0011,-4.0331,-4.047,-4.0331,-4.0191,-3.998,-3.9625,-3.9625,-3.9553,-3.9424,-3.9424,-3.9424,-3.9424,-3.9424,-3.9424,-3.9481,-4.0339,-4.0668,-4.0339,-4.06,-4.1008,-4.1194,-4.1075,-4.0992,-4.1194,-4.106,-4.0857,-4.0873,-4.0478,-4.0216,-4.0146,-3.9737,-3.9424,-3.9424,-3.9424,-3.9424,-3.9424,-3.9439,-3.9454,-3.9424,-3.9454,-3.9634,-4.0038,-4.0083,-3.9858,-3.9649,-3.9424,-3.9481,-3.961,-4.0216,-4.0923,-4.1991,-4.2909,-4.386,-4.5177,-4.6088,-4.7178,-4.8039,-4.8547,-4.8534,-4.7793,-4.7224,-4.6556,-3.9657,-3.9465,-3.8491,-3.8176,-3.808,-3.8173,-3.8,-3.7915,-3.803,-3.7641,-3.7117,-3.8036,-3.8898,-3.9469,-4.0287,-4.1156,-4.1995,-4.2092,-4.2092,-4.2092,-4.2092,-4.2325,-4.2703,-4.2688,-4.293,-4.325,-4.3265,-4.3344,-4.3344,-4.3374,-4.3658,-4.4212,-4.4227,-4.4272,-4.4347,-4.4227,-4.3958,-4.3554,-4.3389,-4.3045,-4.2432,-4.1758,-4.1384,-4.122,-4.0142,-3.9484,-3.9424,-3.9424,-3.9424,-3.9424,-3.9798,-4.0011,-4.0011,-4.0331,-4.0316,-4.0066,-3.9839,-3.9625,-3.9496,-3.9424,-3.9424,-3.9409,-3.9424,-3.9424,-3.9424,-3.9424,-3.9424,-3.9424,-3.9553,-3.961,-3.9553,-3.9696,-3.995,-4.0424,-3.995,-3.995,-4.0478,-4.0021,-3.9553,-3.9625,-3.9625,-3.9553,-3.9481,-3.9409,-3.9424,-3.9424,-3.9424,-3.9424,-3.9424,-3.9424,-3.9424,-3.9424,-3.9424,-3.9439,-3.9484,-3.9619,-3.9559,-3.9424,-3.9553,-3.9681,-4.0146,-4.0677,-4.1403,-4.2015,-4.2671,-4.3464,-4.4522,-4.5674,-4.6948,-4.7893,-4.8572,-4.8529,-4.8192,-4.7325,-4.6675,-4.021,-3.9513,-3.8431,-3.7974,-3.7974,-3.7974,-3.8,-3.7836,-3.7939,-3.7616,-3.7202,-3.7559,-3.8238,-3.921,-3.9549,-4.0546,-4.1995,-4.2092,-4.2092,-4.2092,-4.2092,-4.2325,-4.2703,-4.2688,-4.293,-4.325,-4.3344,-4.3344,-4.3389,-4.3748,-4.4062,-4.4257,-4.4317,-4.4511,-4.4721,-4.4077,-4.3748,-4.3898,-4.3569,-4.3015,-4.2357,-4.1713,-4.119,-4.0741,-3.9888,-3.9424,-3.9424,-3.9424,-3.9424,-3.9424,-3.9783,-4.0011,-4.0011,-4.0207,-4.0277,-3.9996,-3.9839,-3.9625,-3.9424,-3.9424,-3.9424,-3.9424,-3.9424,-3.9424,-3.9424,-3.9424,-3.9424,-3.9424,-3.9424,-3.9424,-3.9424,-3.9424,-3.9496,-3.9696,-3.9553,-3.9481,-3.9681,-3.9553,-3.9424,-3.9424,-3.9424,-3.9424,-3.9424,-3.9424,-3.9424,-3.9424,-3.9424,-3.9424,-3.9424,-3.9424,-3.9424,-3.9424,-3.9424,-3.9424,-3.9424,-3.9439,-3.9424,-3.9553,-3.9681,-4.0076,-4.0478,-4.1409,-4.2205,-4.2444,-4.2891,-4.3608,-4.4866,-4.6022,-4.72,-4.7816,-4.8461,-4.8793,-4.8624,-4.7815,-4.7149,-3.9898,-3.9032,-3.8286,-3.7974,-3.7986,-3.8092,-3.8214,-3.8288,-3.8194,-3.7904,-3.7538,-3.7262,-3.7971,-3.8997,-3.9197,-4.0287,-4.1995,-4.2092,-4.2092,-4.2092,-4.2092,-4.2325,-4.2622,-4.2688,-4.293,-4.3265,-4.3344,-4.3344,-4.3374,-4.3793,-4.4092,-4.4302,-4.4317,-4.4526,-4.4751,-4.4077,-4.3808,-4.3898,-4.3554,-4.2925,-4.2117,-4.1624,-4.095,-4.0172,-3.9649,-3.9424,-3.9424,-3.9496,-3.9481,-3.9553,-3.9854,-4.0066,-4.0066,-4.0121,-4.0051,-3.9925,-3.9696,-3.9568,-3.9424,-3.9424,-3.9424,-3.9424,-3.9424,-3.9424,-3.9424,-3.9424,-3.9424,-3.9424,-3.9424,-3.9424,-3.9424,-3.9424,-3.9424,-3.9424,-3.9424,-3.9424,-3.9424,-3.9424,-3.9424,-3.9424,-3.9424,-3.9424,-3.9424,-3.9424,-3.9424,-3.9424,-3.9424,-3.9424,-3.9424,-3.9424,-3.9424,-3.9424,-3.9424,-3.9424,-3.9424,-3.9496,-3.9409,-3.9538,-4.0005,-4.0409,-4.1008,-4.1933,-4.2666,-4.2909,-4.3493,-4.4202,-4.5219,-4.6438,-4.7221,-4.7838,-4.8456,-4.8906,-4.8686,-4.8326,-4.7699,-3.8551,-3.813,-3.7974,-3.795,-3.808,-3.8243,-3.8477,-3.8632,-3.851,-3.8141,-3.7776,-3.74,-3.7958,-3.9024,-3.9197,-4.0287,-4.1829,-4.2092,-4.2092,-4.2092,-4.2092,-4.2325,-4.2688,-4.2688,-4.293,-4.3265,-4.3344,-4.3344,-4.3344,-4.3494,-4.3808,-4.4242,-4.4317,-4.4347,-4.4347,-4.4197,-4.3913,-4.3509,-4.3299,-4.2656,-4.1564,-4.1339,-4.0711,-3.9649,-3.9439,-3.9424,-3.9424,-3.9553,-3.9681,-3.9681,-4.0051,-4.0292,-4.0207,-3.998,-3.9753,-3.9696,-3.9553,-3.9409,-3.9424,-3.9424,-3.9424,-3.9424,-3.9424,-3.9424,-3.9424,-3.9424,-3.9424,-3.9424,-3.9424,-3.9424,-3.9424,-3.9424,-3.9424,-3.9424,-3.9424,-3.9424,-3.9424,-3.9424,-3.9424,-3.9424,-3.9424,-3.9424,-3.9424,-3.9424,-3.9424,-3.9424,-3.9424,-3.9424,-3.9424,-3.9424,-3.9424,-3.9424,-3.9496,-3.9496,-3.9481,-3.9553,-3.9481,-3.961,-4.0146,-4.0668,-4.1327,-4.219,-4.2883,-4.3281,-4.3911,-4.4658,-4.5412,-4.6524,-4.7308,-4.7882,-4.8528,-4.8934,-4.8787,-4.8506,-4.8152,-3.8719,-3.8467,-3.7745,-3.7766,-3.823,-3.8032,-3.8069,-3.8457,-3.8463,-3.8091,-3.7525,-3.7262,-3.7958,-3.8948,-3.9197,-4.0287,-4.2009,-4.2092,-4.2092,-4.2092,-4.2092,-4.2242,-4.2474,-4.2607,-4.293,-4.325,-4.3344,-4.3344,-4.3419,-4.3763,-4.4137,-4.4287,-4.4302,-4.4317,-4.4272,-4.3883,-4.3509,-4.3329,-4.288,-4.2222,-4.1414,-4.0935,-4.0277,-3.9544,-3.9424,-3.9424,-3.9424,-3.961,-3.9681,-3.9681,-4.0051,-4.0292,-4.0207,-3.991,-3.9681,-3.9696,-3.9481,-3.9424,-3.9424,-3.9424,-3.9424,-3.9424,-3.9424,-3.9424,-3.9424,-3.9424,-3.9424,-3.9424,-3.9424,-3.9424,-3.9424,-3.9424,-3.9424,-3.9424,-3.9424,-3.9424,-3.9424,-3.9424,-3.9424,-3.9424,-3.9424,-3.9424,-3.9424,-3.9424,-3.9424,-3.9424,-3.9424,-3.9424,-3.9424,-3.9424,-3.9496,-3.9553,-3.9625,-3.9685,-3.9847,-3.9934,-3.9904,-4.0061,-4.0523,-4.082,-4.1459,-4.2142,-4.2883,-4.357,-4.4271,-4.4959,-4.5715,-4.6507,-4.7299,-4.7686,-4.8091,-4.8489,-4.8838,-4.8658,-4.8231,-3.8515,-3.8407,-3.767,-3.7581,-3.8044,-3.7763,-3.7836,-3.809,-3.7991,-3.7617,-3.7236,-3.696,-3.751,-3.8562,-3.9033,-4.01,-4.1451,-4.1912,-4.2092,-4.2092,-4.2092,-4.2175,-4.2392,-4.2688,-4.301,-4.325,-4.3344,-4.3344,-4.3359,-4.3718,-4.3943,-4.3928,-4.3943,-4.3943,-4.3928,-4.3554,-4.3344,-4.3269,-4.294,-4.2297,-4.1489,-4.098,-4.0337,-3.9574,-3.9424,-3.9424,-3.9424,-3.9625,-3.9753,-3.9839,-4.0051,-4.0137,-4.0051,-3.9768,-3.9625,-3.9553,-3.9481,-3.9424,-3.9424,-3.9424,-3.9424,-3.9424,-3.9424,-3.9424,-3.9424,-3.9424,-3.9424,-3.9424,-3.9424,-3.9424,-3.9424,-3.9424,-3.9424,-3.9424,-3.9424,-3.9424,-3.9424,-3.9424,-3.9424,-3.9424,-3.9424,-3.9424,-3.9424,-3.9424,-3.9424,-3.9409,-3.9481,-3.9481,-3.9568,-3.9568,-3.9711,-3.9768,-3.9768,-3.9975,-4.0273,-4.0345,-4.0355,-4.0668,-4.0994,-4.1044,-4.1327,-4.1948,-4.2634,-4.3408,-4.4114,-4.4826,-4.5635,-4.6519,-4.7283,-4.7558,-4.76,-4.7901,-4.8189,-4.8389,-4.8189,-3.7938,-3.7983,-3.7636,-3.7497,-3.7599,-3.7516,-3.7494,-3.7506,-3.739,-3.7211,-3.701,-3.6634,-3.6947,-3.79,-3.8689,-3.9563,-4.0518,-4.1437,-4.1814,-4.1912,-4.1995,-4.216,-4.2392,-4.2754,-4.2996,-4.325,-4.3265,-4.3344,-4.3344,-4.3419,-4.3344,-4.3419,-4.3434,-4.3359,-4.3419,-4.3344,-4.3344,-4.3329,-4.324,-4.2551,-4.1534,-4.1265,-4.0726,-3.9604,-3.9559,-3.9514,-3.9424,-3.9625,-3.9768,-3.9925,-3.9996,-3.9925,-3.9696,-3.9481,-3.9409,-3.9409,-3.9424,-3.9424,-3.9424,-3.9424,-3.9424,-3.9424,-3.9424,-3.9424,-3.9424,-3.9424,-3.9424,-3.9424,-3.9424,-3.9424,-3.9424,-3.9424,-3.9424,-3.9424,-3.9424,-3.9424,-3.9424,-3.9424,-3.9424,-3.9424,-3.9424,-3.9424,-3.9424,-3.9424,-3.9424,-3.9496,-3.9625,-3.9696,-3.9768,-3.9783,-3.9925,-3.9996,-3.9996,-4.0355,-4.0741,-4.0802,-4.0842,-4.1106,-4.1465,-4.1519,-4.146,-4.1978,-4.2735,-4.3421,-4.4033,-4.4767,-4.5503,-4.6419,-4.6782,-4.6783,-4.6963,-4.716,-4.7474,-4.7737,-4.7919,-3.7409,-3.7312,-3.6727,-3.677,-3.7228,-3.7147,-3.7107,-3.7302,-3.7249,-3.6935,-3.6621,-3.6433,-3.6896,-3.7795,-3.8069,-3.8689,-3.9637,-4.0518,-4.0972,-4.1156,-4.1814,-4.2146,-4.2392,-4.2607,-4.2915,-4.3076,-4.325,-4.3344,-4.3344,-4.3344,-4.3344,-4.3344,-4.3344,-4.3344,-4.3344,-4.3344,-4.3344,-4.3254,-4.2836,-4.2521,-4.2043,-4.116,-4.0516,-4.0247,-4.0142,-3.9903,-3.9499,-3.9625,-3.9768,-3.9996,-3.9839,-3.9753,-3.9681,-3.9496,-3.9424,-3.9424,-3.9424,-3.9424,-3.9424,-3.9424,-3.9424,-3.9424,-3.9424,-3.9424,-3.9424,-3.9424,-3.9424,-3.9424,-3.9424,-3.9424,-3.9424,-3.9424,-3.9424,-3.9424,-3.9424,-3.9424,-3.9424,-3.9424,-3.9424,-3.9424,-3.9424,-3.9424,-3.9424,-3.9481,-3.9625,-3.9625,-3.9768,-3.9925,-3.9925,-3.998,-4.0066,-4.0207,-4.0338,-4.0775,-4.1122,-4.1198,-4.1377,-4.1546,-4.1857,-4.2184,-4.2113,-4.2195,-4.3057,-4.3878,-4.4236,-4.4883,-4.5581,-4.6296,-4.6257,-4.6083,-4.6325,-4.662,-4.6815,-4.7118,-4.7134,-3.7397,-3.712,-3.6606,-3.6502,-3.6825,-3.6589,-3.6655,-3.6835,-3.6835,-3.6671,-3.6408,-3.637,-3.6722,-3.7176,-3.7625,-3.8069,-3.8689,-3.9549,-3.9972,-4.0087,-4.0546,-4.1339,-4.2117,-4.2607,-4.2754,-4.2996,-4.325,-4.3265,-4.3344,-4.3344,-4.3344,-4.3344,-4.3344,-4.3344,-4.3344,-4.3344,-4.3344,-4.3269,-4.294,-4.2656,-4.2297,-4.1654,-4.1115,-4.0905,-4.0801,-4.0591,-4.0262,-4.0124,-3.9926,-3.9787,-3.9696,-3.9696,-3.9553,-3.9496,-3.9424,-3.9424,-3.9424,-3.9424,-3.9424,-3.9424,-3.9424,-3.9424,-3.9424,-3.9424,-3.9424,-3.9424,-3.9424,-3.9424,-3.9424,-3.9424,-3.9424,-3.9424,-3.9424,-3.9424,-3.9424,-3.9424,-3.9424,-3.9424,-3.9424,-3.9424,-3.9424,-3.9409,-3.9496,-3.9625,-3.9768,-3.9839,-3.9996,-4.0066,-4.0137,-4.0137,-4.0191,-4.0331,-4.0493,-4.08,-4.1238,-4.1392,-4.2032,-4.2232,-4.2474,-4.2803,-4.2661,-4.2538,-4.2988,-4.3738,-4.4325,-4.4862,-4.5403,-4.5714,-4.5746,-4.5714,-4.5911,-4.6016,-4.6159,-4.6324,-4.6394,-3.7589,-3.706,-3.686,-3.6527,-3.6321,-3.6131,-3.616,-3.6395,-3.6408,-3.6395,-3.637,-3.637,-3.6452,-3.6452,-3.7176,-3.7625,-3.7717,-3.8599,-3.9121,-3.9285,-3.9549,-4.026,-4.159,-4.2184,-4.2578,-4.2915,-4.3155,-4.325,-4.3344,-4.3344,-4.3344,-4.3344,-4.3344,-4.3344,-4.3344,-4.3344,-4.3344,-4.3344,-4.3284,-4.3,-4.2611,-4.2267,-4.1893,-4.1534,-4.128,-4.1354,-4.1205,-4.0846,-4.0232,-3.9559,-3.9598,-3.9538,-3.9424,-3.9424,-3.9424,-3.9424,-3.9424,-3.9424,-3.9424,-3.9424,-3.9424,-3.9424,-3.9424,-3.9424,-3.9424,-3.9424,-3.9424,-3.9424,-3.9424,-3.9424,-3.9424,-3.9424,-3.9424,-3.9424,-3.9424,-3.9424,-3.9424,-3.9424,-3.9424,-3.9424,-3.9424,-3.9553,-3.9625,-3.9753,-3.9839,-4.0051,-4.0207,-4.0277,-4.0347,-4.0331,-4.0401,-4.047,-4.0593,-4.0762,-4.1217,-4.1586,-4.2355,-4.2925,-4.3094,-4.3276,-4.3121,-4.3096,-4.3153,-4.3514,-4.4015,-4.4403,-4.4802,-4.502,-4.5153,-4.511,-4.522,-4.5262,-4.5421,-4.5551,-4.5624,-3.7048,-3.6531,-3.6315,-3.5892,-3.5527,-3.5874,-3.6015,-3.6098,-3.6383,-3.6395,-3.637,-3.637,-3.637,-3.6452,-3.664,-3.6722,-3.6922,-3.773,-3.8405,-3.9197,-3.9197,-3.9373,-4.0201,-4.1015,-4.2005,-4.2592,-4.309,-4.3265,-4.3344,-4.3344,-4.3344,-4.3344,-4.3344,-4.3344,-4.3344,-4.3344,-4.3344,-4.3344,-4.3344,-4.3269,-4.3045,-4.2626,-4.2342,-4.2117,-4.1713,-4.1713,-4.1938,-4.1519,-4.0876,-4.0262,-3.9753,-3.9631,-3.9514,-3.9484,-3.9529,-3.9559,-3.9484,-3.9454,-3.9439,-3.9454,-3.9424,-3.9424,-3.9424,-3.9424,-3.9424,-3.9424,-3.9424,-3.9424,-3.9424,-3.9424,-3.9424,-3.9424,-3.9424,-3.9424,-3.9424,-3.9424,-3.9424,-3.9424,-3.9424,-3.9424,-3.9553,-3.9696,-3.9696,-3.998,-4.0137,-4.0207,-4.0347,-4.047,-4.047,-4.0455,-4.0455,-4.0524,-4.0586,-4.077,-4.114,-4.1632,-4.2494,-4.3264,-4.3587,-4.3802,-4.3648,-4.3507,-4.3464,-4.3499,-4.3602,-4.4035,-4.4541,-4.4648,-4.4827,-4.4708,-4.4572,-4.4783,-4.4918,-4.4918,-4.5179,-3.6892,-3.6362,-3.5945,-3.5611,-3.5502,-3.5975,-3.6143,-3.6281,-3.6659,-3.6596,-3.6395,-3.637,-3.637,-3.637,-3.637,-3.6465,-3.6528,-3.7202,-3.7903,-3.8475,-3.8476,-3.8714,-3.9489,-4.0158,-4.0912,-4.198,-4.293,-4.325,-4.3344,-4.3359,-4.3344,-4.3344,-4.3344,-4.3344,-4.3344,-4.3344,-4.3344,-4.3344,-4.3344,-4.3344,-4.3254,-4.303,-4.2821,-4.2791,-4.2476,-4.2491,-4.2731,-4.2177,-4.1713,-4.125,-4.0681,-4.0172,-3.9918,-3.9888,-4.0023,-4.0277,-4.0008,-3.9903,-3.9858,-3.9604,-3.9424,-3.9454,-3.9439,-3.9424,-3.9424,-3.9424,-3.9424,-3.9424,-3.9424,-3.9424,-3.9424,-3.9424,-3.9424,-3.9424,-3.9424,-3.9424,-3.9424,-3.9424,-3.9424,-3.9553,-3.9625,-3.9839,-3.998,-4.0207,-4.0347,-4.0347,-4.0401,-4.047,-4.047,-4.0455,-4.0455,-4.0524,-4.0524,-4.0693,-4.1063,-4.1678,-4.2556,-4.331,-4.391,-4.4141,-4.4218,-4.3987,-4.38,-4.391,-4.3989,-4.4142,-4.4556,-4.4556,-4.4572,-4.4572,-4.4572,-4.4572,-4.4632,-4.4708,-4.5093,-3.6831,-3.6242,-3.5809,-3.5513,-3.555,-3.6076,-3.6282,-3.6293,-3.6935,-3.6822,-3.6445,-3.637,-3.637,-3.637,-3.637,-3.6395,-3.6584,-3.6867,-3.74,-3.7994,-3.7495,-3.8036,-3.8906,-3.9533,-4.0076,-4.1114,-4.2524,-4.3152,-4.3593,-4.3369,-4.3434,-4.3464,-4.3359,-4.3344,-4.3344,-4.3344,-4.3344,-4.3344,-4.3344,-4.3344,-4.3344,-4.3284,-4.3269,-4.3225,-4.3195,-4.315,-4.3135,-4.2776,-4.2432,-4.2419,-4.1833,-4.128,-4.0846,-4.0591,-4.0756,-4.1294,-4.0801,-4.0591,-4.0487,-4.0142,-3.9843,-3.9723,-3.9768,-3.9783,-3.9813,-3.9738,-3.9664,-3.9574,-3.9544,-3.9424,-3.9424,-3.9424,-3.9424,-3.9424,-3.9424,-3.9424,-3.9424,-3.9409,-3.9553,-3.9696,-3.9839,-3.998,-4.0121,-4.0347,-4.0416,-4.047,-4.047,-4.0524,-4.0524,-4.0524,-4.0524,-4.0524,-4.0524,-4.0524,-4.0847,-4.1401,-4.2325,-4.2894,-4.3679,-4.4018,-4.4295,-4.4295,-4.4079,-4.431,-4.4479,-4.4556,-4.4556,-4.4556,-4.4572,-4.4572,-4.4572,-4.4572,-4.4572,-4.4572,-4.4972,-3.6627,-3.5737,-3.5653,-3.5304,-3.515,-3.6003,-3.6124,-3.5948,-3.6768,-3.6872,-3.642,-3.637,-3.637,-3.637,-3.637,-3.6596,-3.6847,-3.6872,-3.7136,-3.7701,-3.7149,-3.733,-3.8108,-3.8961,-3.9545,-4.024,-4.1766,-4.3401,-4.4206,-4.3973,-4.3703,-4.3928,-4.3584,-4.3344,-4.3344,-4.3344,-4.3344,-4.3344,-4.3344,-4.3344,-4.3344,-4.3344,-4.3344,-4.3344,-4.3344,-4.3344,-4.3344,-4.3225,-4.294,-4.2432,-4.2252,-4.2147,-4.1983,-4.1594,-4.1459,-4.1459,-4.1369,-4.122,-4.1175,-4.1085,-4.1025,-4.1055,-4.0935,-4.0965,-4.0861,-4.0561,-4.0277,-4.0098,-3.9783,-3.9454,-3.9424,-3.9484,-3.9439,-3.9439,-3.9439,-3.9424,-3.9409,-3.9553,-3.9696,-3.9768,-3.998,-4.0191,-4.0347,-4.0416,-4.047,-4.047,-4.047,-4.0524,-4.0524,-4.0524,-4.0524,-4.0524,-4.0524,-4.0524,-4.0601,-4.1201,-4.1878,-4.2217,-4.2817,-4.3264,-4.3648,-4.4202,-4.4402,-4.4327,-4.4495,-4.4556,-4.4556,-4.4572,-4.4572,-4.4572,-4.4572,-4.4572,-4.4572,-4.4603,-4.4926,-3.6086,-3.5593,-3.5328,-3.5162,-3.515,-3.5905,-3.6296,-3.6282,-3.6758,-3.6939,-3.6759,-3.6508,-3.637,-3.637,-3.637,-3.6671,-3.696,-3.696,-3.7274,-3.7688,-3.7224,-3.7266,-3.7901,-3.8791,-3.9785,-4.0668,-4.1868,-4.3095,-4.4417,-4.4072,-4.4012,-4.4047,-4.3658,-4.3344,-4.3344,-4.3344,-4.325,-4.325,-4.325,-4.325,-4.325,-4.3265,-4.3265,-4.325,-4.3265,-4.3344,-4.3344,-4.3344,-4.321,-4.3015,-4.3195,-4.3329,-4.324,-4.306,-4.2716,-4.2402,-4.2102,-4.1908,-4.1803,-4.1639,-4.1354,-4.1354,-4.1414,-4.1384,-4.1324,-4.107,-4.0905,-4.0741,-4.0352,-4.0068,-4.0427,-3.9858,-3.9634,-3.9783,-3.9664,-3.9541,-3.9553,-3.9711,-3.9869,-4.0026,-4.0167,-4.0307,-4.0401,-4.047,-4.047,-4.0524,-4.0524,-4.0524,-4.0524,-4.0524,-4.0524,-4.0524,-4.0524,-4.0524,-4.0586,-4.1016,-4.1417,-4.1709,-4.2109,-4.2556,-4.3002,-4.3571,-4.3896,-4.3929,-4.4143,-4.4541,-4.4572,-4.4572,-4.4572,-4.4572,-4.4572,-4.4572,-4.4572,-4.4679,-4.4957,-3.5617,-3.5581,-3.5052,-3.4932,-3.5223,-3.5917,-3.6333,-3.6701,-3.687,-3.6967,-3.7111,-3.6634,-3.637,-3.637,-3.642,-3.6646,-3.7136,-3.7073,-3.7349,-3.7739,-3.7262,-3.7551,-3.8176,-3.8781,-3.9329,-4.0518,-4.1707,-4.2546,-4.3801,-4.4053,-4.4205,-4.4161,-4.3694,-4.3284,-4.3248,-4.2666,-4.2879,-4.2739,-4.2739,-4.2739,-4.2739,-4.2915,-4.2996,-4.312,-4.3289,-4.3509,-4.3359,-4.3554,-4.3464,-4.3509,-4.3808,-4.4257,-4.4332,-4.4436,-4.4197,-4.3584,-4.303,-4.2821,-4.2656,-4.2432,-4.2282,-4.2312,-4.1938,-4.1833,-4.1758,-4.1758,-4.1504,-4.1324,-4.0965,-4.0741,-4.0965,-4.0442,-4.0127,-4.0098,-3.9991,-3.9718,-3.9802,-3.9945,-4.0233,-4.0375,-4.0484,-4.0493,-4.0516,-4.047,-4.0455,-4.0524,-4.0524,-4.0524,-4.0524,-4.0524,-4.0524,-4.0524,-4.0524,-4.0524,-4.0632,-4.0847,-4.1093,-4.1186,-4.1632,-4.2109,-4.2509,-4.294,-4.3251,-4.3637,-4.4265,-4.4572,-4.4572,-4.4572,-4.4572,-4.4572,-4.4572,-4.4572,-4.4572,-4.4587,-4.4756,-3.5617,-3.5557,-3.5052,-3.4823,-3.5005,-3.588,-3.6321,-3.6517,-3.687,-3.7186,-3.7149,-3.6634,-3.637,-3.637,-3.637,-3.6684,-3.6897,-3.6797,-3.701,-3.755,-3.6973,-3.6943,-3.7455,-3.7891,-3.8679,-3.9886,-4.1218,-4.2736,-4.3659,-4.3803,-4.4239,-4.4412,-4.3738,-4.3098,-4.3138,-4.2105,-4.0944,-4.0958,-4.1057,-4.1043,-4.1212,-4.184,-4.2213,-4.2547,-4.336,-4.3868,-4.3494,-4.3733,-4.3883,-4.3464,-4.3958,-4.4287,-4.4407,-4.49,-4.4766,-4.4407,-4.4122,-4.4077,-4.3943,-4.3614,-4.3658,-4.3494,-4.3269,-4.3135,-4.2806,-4.2447,-4.2043,-4.1414,-4.1294,-4.1399,-4.1534,-4.1235,-4.0905,-4.0725,-4.0589,-4.0227,-4.013,-4.0679,-4.0909,-4.0806,-4.0892,-4.0731,-4.0647,-4.0586,-4.0524,-4.0524,-4.0524,-4.0524,-4.0524,-4.0524,-4.0524,-4.0524,-4.0524,-4.0524,-4.0539,-4.0786,-4.0847,-4.0832,-4.117,-4.1648,-4.2048,-4.2463,-4.291,-4.3402,-4.4048,-4.4541,-4.4572,-4.4572,-4.4572,-4.4572,-4.4572,-4.4572,-4.4572,-4.4603,-4.4633,-3.5172,-3.5172,-3.5244,-3.5088,-3.4871,-3.5283,-3.5844,-3.6321,-3.6282,-3.6609,-3.7036,-3.6609,-3.637,-3.637,-3.637,-3.6483,-3.6634,-3.6471,-3.6571,-3.701,-3.6671,-3.6767,-3.7463,-3.812,-3.882,-3.9641,-4.0775,-4.1674,-4.2753,-4.3828,-4.4618,-4.4544,-4.3907,-4.3471,-4.3185,-4.2134,-4.1548,-4.1278,-4.1123,-4.094,-4.1043,-4.1652,-4.2324,-4.2131,-4.3486,-4.3847,-4.3718,-4.3943,-4.3973,-4.3599,-4.3958,-4.4511,-4.4796,-4.5155,-4.5244,-4.5559,-4.5469,-4.508,-4.4407,-4.4047,-4.4287,-4.4451,-4.4003,-4.3299,-4.3269,-4.3075,-4.2821,-4.2551,-4.2132,-4.2087,-4.2147,-4.1773,-4.1685,-4.152,-4.1384,-4.1245,-4.1134,-4.1462,-4.1786,-4.152,-4.1238,-4.1001,-4.0724,-4.0586,-4.0524,-4.0524,-4.0524,-4.0524,-4.0524,-4.0524,-4.0524,-4.0524,-4.0524,-4.0524,-4.0524,-4.0632,-4.0662,-4.0662,-4.0709,-4.1186,-4.1601,-4.2032,-4.2767,-4.3399,-4.4093,-4.4447,-4.451,-4.4572,-4.4572,-4.4572,-4.4572,-4.4572,-4.4572,-4.4572,-4.4787,-3.4751,-3.4691,-3.5208,-3.5112,-3.4655,-3.4872,-3.5539,-3.6333,-3.6059,-3.6397,-3.6826,-3.6621,-3.637,-3.637,-3.637,-3.6395,-3.6383,-3.637,-3.637,-3.6383,-3.6641,-3.6918,-3.7526,-3.8299,-3.9141,-3.9956,-4.0598,-4.1261,-4.1963,-4.3036,-4.4067,-4.4295,-4.3395,-4.3172,-4.2984,-4.1966,-4.1028,-4.0754,-4.0611,-4.0501,-4.0691,-4.1782,-4.2221,-4.2796,-4.3626,-4.4496,-4.4032,-4.4526,-4.4556,-4.4167,-4.4586,-4.52,-4.5514,-4.5843,-4.5813,-4.5963,-4.5918,-4.5678,-4.4975,-4.4571,-4.4691,-4.4766,-4.4392,-4.3599,-4.3329,-4.3344,-4.3329,-4.318,-4.2895,-4.291,-4.3,-4.2464,-4.2346,-4.2364,-4.2319,-4.2317,-4.2251,-4.2368,-4.2149,-4.1669,-4.137,-4.1093,-4.0832,-4.0616,-4.0524,-4.0524,-4.0524,-4.0524,-4.0524,-4.0524,-4.0524,-4.0524,-4.0524,-4.0524,-4.0524,-4.0524,-4.0524,-4.0616,-4.0662,-4.094,-4.1509,-4.2289,-4.3044,-4.3704,-4.4229,-4.4416,-4.4556,-4.4572,-4.4572,-4.4572,-4.4572,-4.4572,-4.4572,-4.4572,-4.5003,-3.4547,-3.4138,-3.4655,-3.4595,-3.4162,-3.5112,-3.5819,-3.6296,-3.631,-3.6563,-3.6998,-3.6646,-3.637,-3.637,-3.637,-3.637,-3.637,-3.637,-3.637,-3.6533,-3.6847,-3.7195,-3.7644,-3.8354,-3.9146,-3.9745,-4.0439,-4.0885,-4.1366,-4.235,-4.2931,-4.2917,-4.2733,-4.2273,-4.1787,-4.1127,-4.0359,-4.008,-3.9907,-3.9943,-4.0494,-4.1439,-4.2281,-4.3294,-4.4818,-4.5873,-4.5229,-4.5648,-4.5633,-4.4975,-4.5409,-4.5873,-4.6067,-4.6441,-4.6367,-4.6112,-4.6277,-4.6067,-4.5574,-4.5484,-4.5933,-4.5783,-4.5095,-4.3958,-4.3404,-4.3344,-4.3344,-4.3344,-4.315,-4.3195,-4.3379,-4.3367,-4.3117,-4.306,-4.3016,-4.3045,-4.2965,-4.284,-4.2544,-4.1878,-4.1494,-4.134,-4.0832,-4.0601,-4.0524,-4.0524,-4.0524,-4.0524,-4.0524,-4.0524,-4.0524,-4.0524,-4.0524,-4.0524,-4.0524,-4.0524,-4.0524,-4.0755,-4.0924,-4.1232,-4.1663,-4.2505,-4.3353,-4.3828,-4.4291,-4.4447,-4.4572,-4.4572,-4.4572,-4.4572,-4.4572,-4.4572,-4.4572,-4.4572,-4.5249,-3.4054,-3.3633,-3.4138,-3.4222,-3.4078,-3.48,-3.5442,-3.5879,-3.5899,-3.6173,-3.6684,-3.6458,-3.637,-3.637,-3.637,-3.637,-3.637,-3.637,-3.637,-3.6546,-3.6872,-3.7337,-3.7922,-3.865,-3.9446,-4.0143,-4.056,-4.0911,-4.1372,-4.1782,-4.1782,-4.1847,-4.2121,-4.2493,-4.1989,-4.0857,-4.0258,-4.0237,-4.0397,-4.0817,-4.0954,-4.2561,-4.3545,-4.3702,-4.5287,-4.5834,-4.5484,-4.5978,-4.5813,-4.5618,-4.5693,-4.6007,-4.6352,-4.6696,-4.6651,-4.6411,-4.6696,-4.6636,-4.6292,-4.6007,-4.5529,-4.517,-4.4855,-4.4451,-4.3479,-4.3344,-4.3344,-4.3344,-4.3423,-4.3503,-4.3596,-4.3738,-4.3743,-4.3731,-4.3716,-4.37,-4.3591,-4.3436,-4.3094,-4.2417,-4.2032,-4.1786,-4.117,-4.0539,-4.0524,-4.0524,-4.0524,-4.0524,-4.0524,-4.0524,-4.0524,-4.0524,-4.0524,-4.0524,-4.0524,-4.0524,-4.0555,-4.0878,-4.1232,-4.1724,-4.2202,-4.2802,-4.3615,-4.3985,-4.4337,-4.4509,-4.4572,-4.4572,-4.4572,-4.4572,-4.4572,-4.4572,-4.4572,-4.4572,-4.5295,-3.3525,-3.3128,-3.3597,-3.3909,-3.4102,-3.4703,-3.5223,-3.5524,-3.5716,-3.5991,-3.6358,-3.637,-3.637,-3.637,-3.637,-3.637,-3.637,-3.637,-3.637,-3.6646,-3.7098,-3.76,-3.8227,-3.9006,-3.9905,-4.0453,-4.0795,-4.0997,-4.1311,-4.1311,-4.1411,-4.1597,-4.1967,-4.2208,-4.2017,-4.1412,-4.0671,-4.0854,-4.1379,-4.1949,-4.2017,-4.3375,-4.4807,-4.4584,-4.5843,-4.6207,-4.6157,-4.6486,-4.6456,-4.6187,-4.6112,-4.6232,-4.6456,-4.6666,-4.677,-4.698,-4.7174,-4.7219,-4.68,-4.6247,-4.5304,-4.502,-4.4781,-4.4302,-4.3673,-4.3344,-4.3423,-4.3423,-4.366,-4.3769,-4.3862,-4.3988,-4.4127,-4.4037,-4.4205,-4.4219,-4.4096,-4.3972,-4.3525,-4.3002,-4.2633,-4.2202,-4.1971,-4.137,-4.0955,-4.0816,-4.0524,-4.0524,-4.0524,-4.0524,-4.0524,-4.0524,-4.0524,-4.0524,-4.0524,-4.0816,-4.1109,-4.137,-4.1786,-4.2402,-4.294,-4.3464,-4.3848,-4.4278,-4.4509,-4.4541,-4.4572,-4.4572,-4.4572,-4.4572,-4.4572,-4.4572,-4.4572,-4.4633,-4.511,-3.3056,-3.2611,-3.314,-3.3633,-3.4126,-3.4908,-3.532,-3.562,-3.5908,-3.6086,-3.637,-3.6395,-3.6395,-3.6395,-3.6433,-3.6458,-3.6395,-3.6408,-3.6458,-3.6697,-3.7538,-3.7952,-3.8504,-3.9297,-4.0058,-4.0465,-4.0694,-4.0997,-4.1311,-4.1311,-4.1311,-4.1311,-4.1498,-4.1498,-4.1411,-4.1298,-4.1285,-4.1392,-4.1839,-4.2557,-4.3315,-4.4121,-4.5096,-4.5877,-4.6226,-4.6606,-4.686,-4.6965,-4.698,-4.6905,-4.689,-4.6995,-4.7085,-4.7145,-4.6995,-4.6621,-4.707,-4.6995,-4.6471,-4.6322,-4.5798,-4.508,-4.4676,-4.4248,-4.3678,-4.3563,-4.3811,-4.3916,-4.3983,-4.4063,-4.4096,-4.4188,-4.4388,-4.4389,-4.4542,-4.4557,-4.451,-4.4326,-4.3864,-4.3402,-4.2971,-4.2602,-4.2586,-4.2325,-4.1663,-4.1217,-4.0709,-4.0601,-4.077,-4.0924,-4.1078,-4.1109,-4.114,-4.114,-4.1263,-4.1432,-4.1678,-4.1909,-4.2294,-4.2894,-4.3433,-4.3895,-4.4249,-4.4526,-4.4572,-4.4572,-4.4572,-4.4572,-4.4572,-4.4572,-4.4572,-4.4572,-4.4572,-4.471,-4.5172,-3.3693,-3.3537,-3.3717,-3.4078,-3.4547,-3.5029,-3.532,-3.562,-3.6098,-3.6275,-3.6458,-3.6709,-3.6659,-3.6558,-3.6722,-3.6747,-3.6496,-3.6835,-3.691,-3.7048,-3.8027,-3.8454,-3.8919,-3.9411,-4.0083,-4.0402,-4.0593,-4.0896,-4.1311,-4.1311,-4.1311,-4.1311,-4.1311,-4.1311,-4.1311,-4.1311,-4.1484,-4.2306,-4.3067,-4.3989,-4.4877,-4.5581,-4.6278,-4.692,-4.6905,-4.701,-4.7264,-4.7279,-4.7219,-4.7204,-4.7189,-4.7174,-4.7219,-4.7234,-4.716,-4.695,-4.7279,-4.7234,-4.686,-4.6646,-4.589,-4.5087,-4.4674,-4.4434,-4.4258,-4.4403,-4.4576,-4.4576,-4.4719,-4.4645,-4.4342,-4.4879,-4.5095,-4.4726,-4.4756,-4.4833,-4.4756,-4.4526,-4.4187,-4.371,-4.3264,-4.2987,-4.2879,-4.3033,-4.2556,-4.2304,-4.199,-4.1765,-4.1801,-4.1955,-4.2094,-4.2094,-4.2094,-4.2017,-4.2032,-4.2125,-4.2232,-4.2417,-4.2786,-4.3294,-4.3802,-4.4249,-4.4402,-4.4556,-4.4572,-4.4572,-4.4572,-4.4572,-4.4572,-4.4572,-4.4572,-4.4572,-4.4572,-4.4772,-4.5157,-3.3825,-3.3549,-3.3897,-3.4234,-3.4559,-3.4945,-3.5308,-3.5817,-3.6281,-3.6458,-3.6709,-3.7036,-3.701,-3.6885,-3.7136,-3.7349,-3.6985,-3.7274,-3.7475,-3.7588,-3.8404,-3.873,-3.9007,-3.9396,-3.9943,-4.03,-4.0504,-4.0707,-4.1097,-4.1211,-4.1311,-4.1311,-4.1311,-4.1311,-4.1411,-4.1683,-4.1855,-4.2695,-4.3476,-4.4783,-4.5378,-4.602,-4.6909,-4.7115,-4.71,-4.7025,-4.716,-4.713,-4.6965,-4.695,-4.683,-4.6815,-4.689,-4.698,-4.7085,-4.7204,-4.7309,-4.7189,-4.6986,-4.6831,-4.5988,-4.5227,-4.5082,-4.5067,-4.5163,-4.5323,-4.5403,-4.5483,-4.5642,-4.5476,-4.5294,-4.5834,-4.5726,-4.5372,-4.5418,-4.5511,-4.511,-4.4895,-4.4618,-4.4141,-4.3818,-4.351,-4.3325,-4.3433,-4.3417,-4.338,-4.3267,-4.3071,-4.2859,-4.2759,-4.279,-4.2771,-4.2694,-4.2509,-4.2556,-4.2756,-4.2848,-4.294,-4.3325,-4.3787,-4.4018,-4.4418,-4.4495,-4.4556,-4.4617,-4.4617,-4.4556,-4.4572,-4.4708,-4.4708,-4.4572,-4.4572,-4.4572,-4.4818,-4.5157,-3.3371,-3.2687,-3.3551,-3.3899,-3.4066,-3.4643,-3.5393,-3.6296,-3.6393,-3.6646,-3.7111,-3.7149,-3.7199,-3.7287,-3.7764,-3.7889,-3.7839,-3.7914,-3.7952,-3.8153,-3.8693,-3.8881,-3.9132,-3.9446,-3.984,-4.0083,-4.0389,-4.0694,-4.0883,-4.1198,-4.1311,-4.1311,-4.1311,-4.1311,-4.1498,-4.1954,-4.2137,-4.2709,-4.3923,-4.4762,-4.4995,-4.5845,-4.6604,-4.6867,-4.6793,-4.698,-4.698,-4.683,-4.6591,-4.6322,-4.5933,-4.6037,-4.6172,-4.6367,-4.677,-4.71,-4.7294,-4.7152,-4.6936,-4.6825,-4.6721,-4.6213,-4.6133,-4.6103,-4.6087,-4.6234,-4.6314,-4.6395,-4.6475,-4.6493,-4.6511,-4.6542,-4.6542,-4.6465,-4.648,-4.6188,-4.5649,-4.5326,-4.5064,-4.4741,-4.4479,-4.4264,-4.4187,-4.4218,-4.4002,-4.4123,-4.4044,-4.4028,-4.371,-4.324,-4.3195,-4.3171,-4.3063,-4.2894,-4.3033,-4.3402,-4.3525,-4.3618,-4.3925,-4.431,-4.4479,-4.4495,-4.4541,-4.4632,-4.4662,-4.4796,-4.5184,-4.52,-4.5008,-4.4933,-4.52,-4.4783,-4.4858,-4.4894,-4.5157,-3.2489,-3.1892,-3.2162,-3.2685,-3.3609,-3.4848,-3.5719,-3.6093,-3.6326,-3.6483,-3.6634,-3.7437,-3.7475,-3.7299,-3.8165,-3.8015,-3.8002,-3.809,-3.8191,-3.8504,-3.8969,-3.9308,-3.9509,-3.9597,-3.989,-4.0083,-4.0389,-4.0593,-4.0883,-4.1198,-4.1311,-4.1311,-4.1311,-4.1311,-4.1683,-4.2333,-4.2333,-4.2792,-4.4111,-4.4485,-4.4961,-4.5932,-4.6476,-4.6549,-4.6723,-4.6942,-4.707,-4.6666,-4.6516,-4.6756,-4.6307,-4.6352,-4.6935,-4.7025,-4.7204,-4.7249,-4.7381,-4.7433,-4.7367,-4.7646,-4.7661,-4.7409,-4.7201,-4.7033,-4.7084,-4.7007,-4.7154,-4.7108,-4.7184,-4.725,-4.7142,-4.7142,-4.7019,-4.6896,-4.688,-4.6603,-4.6049,-4.5511,-4.5234,-4.4803,-4.4572,-4.4572,-4.4572,-4.4526,-4.4341,-4.4648,-4.4756,-4.4694,-4.4664,-4.4205,-4.3929,-4.3835,-4.3818,-4.3756,-4.3848,-4.4156,-4.4218,-4.4326,-4.4495,-4.4572,-4.4632,-4.4617,-4.4556,-4.4781,-4.5175,-4.5642,-4.6237,-4.604,-4.5697,-4.604,-4.6166,-4.5551,-4.5039,-4.5257,-4.5432,-3.1405,-3.0921,-3.1356,-3.2286,-3.34,-3.4507,-3.5307,-3.5908,-3.6263,-3.6458,-3.6759,-3.7374,-3.75,-3.7362,-3.8027,-3.8165,-3.7701,-3.8379,-3.8642,-3.873,-3.927,-3.9521,-3.9685,-3.9697,-3.9788,-3.9993,-4.0287,-4.0605,-4.0795,-4.1097,-4.1311,-4.1311,-4.1311,-4.1311,-4.1498,-4.1769,-4.2052,-4.2806,-4.364,-4.4392,-4.5052,-4.5898,-4.6166,-4.6447,-4.6726,-4.6916,-4.7133,-4.6565,-4.6636,-4.6785,-4.6277,-4.6247,-4.683,-4.71,-4.7279,-4.7309,-4.7467,-4.7624,-4.7719,-4.8003,-4.8271,-4.8269,-4.7907,-4.7599,-4.7492,-4.7415,-4.743,-4.7527,-4.7773,-4.7912,-4.7804,-4.7665,-4.7373,-4.7111,-4.7019,-4.6927,-4.6342,-4.5711,-4.5218,-4.4726,-4.4572,-4.4572,-4.4572,-4.4572,-4.4572,-4.4694,-4.4848,-4.5002,-4.528,-4.5371,-4.508,-4.488,-4.4818,-4.4772,-4.4803,-4.4618,-4.4586,-4.454,-4.451,-4.4572,-4.4648,-4.4936,-4.5298,-4.5561,-4.5901,-4.6371,-4.6796,-4.6714,-4.6518,-4.6864,-4.6932,-4.6394,-4.6001,-4.5968,-4.6234,-3.0133,-2.944,-3.0819,-3.1884,-3.3273,-3.3656,-3.4691,-3.5858,-3.6225,-3.6621,-3.701,-3.7174,-3.7224,-3.7312,-3.7852,-3.8002,-3.7952,-3.8454,-3.8743,-3.8843,-3.9396,-3.9685,-3.9697,-3.9697,-3.98,-3.9903,-4.0198,-4.0605,-4.0707,-4.101,-4.1311,-4.1311,-4.1311,-4.1311,-4.1311,-4.1398,-4.1584,-4.1967,-4.3654,-4.4869,-4.4577,-4.5235,-4.6255,-4.655,-4.6535,-4.6344,-4.6753,-4.6685,-4.6352,-4.6172,-4.5978,-4.5903,-4.6516,-4.6995,-4.7234,-4.7381,-4.7538,-4.7709,-4.7964,-4.8218,-4.8263,-4.8199,-4.7912,-4.7404,-4.7157,-4.7281,-4.7281,-4.7511,-4.7696,-4.8019,-4.8019,-4.7896,-4.7665,-4.7542,-4.7481,-4.7065,-4.6372,-4.5695,-4.5018,-4.4649,-4.4572,-4.4572,-4.4572,-4.4572,-4.4572,-4.4572,-4.5048,-4.5417,-4.5741,-4.6249,-4.6111,-4.5772,-4.5418,-4.5218,-4.4972,-4.4863,-4.4754,-4.4708,-4.4752,-4.5067,-4.5348,-4.5709,-4.6044,-4.642,-4.6754,-4.6929,-4.7198,-4.7357,-4.7422,-4.7422,-4.7422,-4.7153,-4.6997,-4.6994,-4.7001,-2.8734,-2.8238,-2.9008,-2.9778,-3.0712,-3.2626,-3.3803,-3.471,-3.5899,-3.6445,-3.6621,-3.6973,-3.7161,-3.7199,-3.7626,-3.7713,-3.7613,-3.8178,-3.8479,-3.868,-3.9145,-3.9559,-3.9685,-3.9659,-3.9685,-3.9903,-4.0198,-4.0707,-4.101,-4.1211,-4.1311,-4.1311,-4.1311,-4.1311,-4.1311,-4.1311,-4.1411,-4.1498,-4.3191,-4.4205,-4.3829,-4.5341,-4.6653,-4.6181,-4.5703,-4.627,-4.6549,-4.6266,-4.6569,-4.683,-4.6381,-4.6516,-4.7055,-4.7219,-4.7294,-4.7396,-4.7624,-4.788,-4.8049,-4.8256,-4.8368,-4.7768,-4.7311,-4.6665,-4.6419,-4.668,-4.6942,-4.7204,-4.7588,-4.7958,-4.8158,-4.805,-4.7958,-4.7927,-4.7804,-4.7065,-4.6311,-4.5572,-4.4833,-4.4679,-4.4587,-4.4572,-4.4572,-4.4572,-4.4572,-4.5077,-4.5801,-4.636,-4.6654,-4.6988,-4.6927,-4.6542,-4.5788,-4.5495,-4.5172,-4.4941,-4.4861,-4.5122,-4.528,-4.5618,-4.6095,-4.6461,-4.6779,-4.731,-4.7638,-4.7805,-4.8012,-4.8433,-4.8467,-4.8177,-4.8113,-4.7983,-4.8179,-4.8246,-4.8065,-2.7242,-2.6908,-2.7442,-2.8415,-2.9846,-3.1316,-3.2816,-3.4366,-3.5341,-3.5966,-3.6383,-3.6671,-3.6835,-3.6835,-3.7161,-3.7236,-3.7036,-3.7701,-3.7801,-3.8027,-3.868,-3.9157,-3.9383,-3.9559,-3.9762,-3.9993,-4.0389,-4.0896,-4.1211,-4.1311,-4.1311,-4.1311,-4.1311,-4.1311,-4.1311,-4.1311,-4.1311,-4.1411,-4.2999,-4.3368,-4.3355,-4.5144,-4.6181,-4.5613,-4.5432,-4.5987,-4.6285,-4.6094,-4.6197,-4.6899,-4.689,-4.689,-4.7189,-4.7279,-4.7381,-4.7467,-4.7794,-4.8049,-4.8202,-4.8309,-4.8404,-4.785,-4.6711,-4.6065,-4.5664,-4.5849,-4.568,-4.6034,-4.7281,-4.7788,-4.785,-4.7788,-4.7773,-4.7758,-4.725,-4.6557,-4.5803,-4.5033,-4.4664,-4.4618,-4.4572,-4.4572,-4.4572,-4.4572,-4.4587,-4.474,-4.5708,-4.6376,-4.6854,-4.741,-4.7376,-4.7271,-4.6469,-4.5604,-4.4926,-4.4862,-4.4889,-4.5253,-4.5833,-4.6309,-4.6803,-4.7144,-4.7476,-4.7952,-4.8342,-4.8493,-4.8787,-4.8984,-4.9018,-4.8736,-4.8736,-4.8877,-4.9086,-4.9171,-4.9002,-2.6201,-2.5908,-2.624,-2.7663,-2.9606,-3.0124,-3.1825,-3.4088,-3.474,-3.5448,-3.6138,-3.632,-3.6358,-3.637,-3.637,-3.637,-3.6609,-3.7224,-3.7249,-3.7538,-3.8304,-3.8781,-3.9107,-3.932,-3.9689,-4.0134,-4.0681,-4.0997,-4.1311,-4.1311,-4.1311,-4.1311,-4.1311,-4.1311,-4.1311,-4.1311,-4.1311,-4.1597,-4.2444,-4.3177,-4.4017,-4.5052,-4.5326,-4.5235,-4.4961,-4.5341,-4.5808,-4.5808,-4.5598,-4.6137,-4.6944,-4.7061,-4.7178,-4.7309,-4.7396,-4.7553,-4.7794,-4.8049,-4.8202,-4.8438,-4.8414,-4.8004,-4.6557,-4.5788,-4.5495,-4.5372,-4.5203,-4.5603,-4.6865,-4.7496,-4.7573,-4.7635,-4.7635,-4.7588,-4.6942,-4.6126,-4.5326,-4.471,-4.4695,-4.4664,-4.4649,-4.4649,-4.4572,-4.4572,-4.4678,-4.4756,-4.5217,-4.5897,-4.6499,-4.7185,-4.7575,-4.7497,-4.7074,-4.6155,-4.5199,-4.522,-4.5526,-4.6016,-4.6686,-4.7143,-4.7523,-4.7836,-4.8199,-4.8631,-4.8906,-4.8917,-4.8934,-4.9001,-4.9018,-4.9018,-4.9018,-4.9018,-4.9069,-4.9221,-4.9576,-2.6348,-2.6269,-2.6367,-2.6983,-2.8058,-2.9818,-3.1389,-3.252,-3.4609,-3.5506,-3.5787,-3.6207,-3.637,-3.637,-3.637,-3.637,-3.6445,-3.6885,-3.7111,-3.7362,-3.7864,-3.8366,-3.8932,-3.9246,-3.9626,-4.0236,-4.0795,-4.0997,-4.1211,-4.1311,-4.1311,-4.1311,-4.1311,-4.1311,-4.1311,-4.1311,-4.1311,-4.1597,-4.1967,-4.2709,-4.2528,-4.3464,-4.4406,-4.4499,-4.4406,-4.4577,-4.467,-4.4485,-4.5038,-4.5689,-4.624,-4.6638,-4.7019,-4.7309,-4.7396,-4.7568,-4.7794,-4.7964,-4.8218,-4.8453,-4.8444,-4.8065,-4.6957,-4.6652,-4.6513,-4.6544,-4.6313,-4.5973,-4.6899,-4.7311,-4.7481,-4.7588,-4.7619,-4.7619,-4.725,-4.6034,-4.5003,-4.4972,-4.5033,-4.4972,-4.4941,-4.4787,-4.4572,-4.4572,-4.4572,-4.4771,-4.517,-4.5835,-4.6563,-4.7106,-4.7646,-4.7609,-4.7537,-4.7162,-4.646,-4.6295,-4.6545,-4.7036,-4.7572,-4.8081,-4.8453,-4.8623,-4.8956,-4.9018,-4.9018,-4.8984,-4.9001,-4.9018,-4.9018,-4.9018,-4.9018,-4.9018,-4.9103,-4.9272,-4.9627]}]]